[[{"header":{"parameterUnit":"m.s-1","parameterCategory":1,"la1":30.6,"la2":29.2853,"lo1":-89.7004,"lo2":-87.6739,"dy":0.0162,"dx":0.0183,"nx":112,"ny":82,"refTime":"2023-10-07T06:00:00:Z","depth":0,"parameterNumber":2,"parameterNumberName":"U-component_of_WINDS"},"data":[0.0,0.0,0.0,0.0,0.0,0.0,0.0,0.0,0.0,0.0,0.0,0.0,0.0,0.0,0.0,0.0,0.0,0.0,0.0,0.0,0.0,0.0,0.0,0.0,0.0,0.0,0.0,0.0,0.0,0.0,0.0,0.0,0.0,0.0,0.0,0.0,0.0,0.0,0.0,0.0,0.0,0.0,0.0,0.0,0.0,0.0,0.0,0.0,0.0,0.0,0.0,0.0,0.0,0.0,0.0,0.0,0.0,0.0,0.0,0.0,0.0,0.0,0.0,0.0,0.0,0.0,0.0,0.0,0.0,0.0,0.0,0.0,0.0,0.0,0.0,0.0,0.0,0.0,0.0,0.0,0.0,0.0,0.0,0.0,0.0,0.0,0.0,0.0,0.0,0.0,0.0,7.5781,8.7642,9.383,9.1173,8.7161,8.0354,6.9896,0.0,0.0,0.0,0.0,0.0,0.0,0.0,0.0,0.0,0.0,0.0,0.0,0.0,0.0,0.0,0.0,0.0,0.0,0.0,0.0,0.0,0.0,0.0,0.0,0.0,0.0,0.0,0.0,0.0,0.0,0.0,0.0,0.0,0.0,0.0,0.0,0.0,0.0,0.0,0.0,0.0,0.0,0.0,0.0,0.0,0.0,0.0,0.0,0.0,0.0,0.0,0.0,0.0,0.0,0.0,0.0,0.0,0.0,0.0,0.0,0.0,0.0,0.0,0.0,0.0,0.0,0.0,0.0,0.0,0.0,0.0,0.0,0.0,0.0,0.0,0.0,0.0,0.0,0.0,0.0,0.0,0.0,0.0,0.0,0.0,0.0,0.0,0.0,0.0,0.0,0.0,0.0,0.0,0.0,0.0,0.0,0.0,0.0,0.0,0.0,0.0,0.0,0.0,0.0,7.1445,8.4883,9.1859,9.4729,9.2635,8.6698,7.9575,7.1282,0.0,0.0,0.0,0.0,0.0,0.0,0.0,0.0,0.0,0.0,0.0,0.0,0.0,0.0,0.0,0.0,0.0,0.0,0.0,0.0,0.0,0.0,0.0,0.0,0.0,0.0,0.0,0.0,0.0,0.0,0.0,0.0,0.0,0.0,0.0,0.0,0.0,0.0,0.0,0.0,0.0,0.0,0.0,0.0,0.0,0.0,0.0,0.0,0.0,0.0,0.0,0.0,0.0,0.0,0.0,0.0,0.0,0.0,0.0,0.0,0.0,0.0,0.0,0.0,0.0,0.0,0.0,0.0,0.0,0.0,0.0,0.0,0.0,0.0,0.0,0.0,0.0,0.0,0.0,0.0,0.0,0.0,0.0,0.0,0.0,0.0,0.0,0.0,0.0,0.0,0.0,0.0,0.0,0.0,0.0,0.0,0.0,0.0,0.0,0.0,0.0,0.0,0.0,6.9531,7.6916,8.9003,9.3821,9.5212,9.2832,8.7261,8.0385,7.222,6.5863,0.0,0.0,0.0,0.0,0.0,0.0,0.0,0.0,0.0,0.0,0.0,0.0,0.0,0.0,0.0,0.0,0.0,0.0,0.0,0.0,0.0,0.0,0.0,0.0,0.0,0.0,0.0,0.0,0.0,0.0,0.0,0.0,0.0,0.0,0.0,0.0,0.0,0.0,0.0,0.0,0.0,0.0,0.0,0.0,0.0,0.0,0.0,0.0,0.0,0.0,0.0,0.0,0.0,0.0,0.0,0.0,0.0,0.0,0.0,0.0,0.0,0.0,0.0,0.0,0.0,0.0,0.0,0.0,0.0,0.0,0.0,0.0,0.0,0.0,0.0,0.0,0.0,0.0,0.0,0.0,0.0,0.0,0.0,0.0,0.0,0.0,0.0,0.0,0.0,0.0,0.0,0.0,0.0,0.0,0.0,0.0,0.0,0.0,0.0,0.0,0.0,0.0,7.6758,8.2462,9.1976,9.5292,9.5817,9.3303,8.7123,8.0279,7.2954,6.5237,0.0,0.0,0.0,0.0,0.0,0.0,0.0,0.0,0.0,0.0,0.0,0.0,0.0,0.0,0.0,0.0,0.0,0.0,0.0,0.0,0.0,0.0,0.0,0.0,0.0,0.0,0.0,0.0,0.0,0.0,0.0,0.0,0.0,0.0,0.0,0.0,0.0,0.0,0.0,0.0,0.0,0.0,0.0,0.0,0.0,0.0,0.0,0.0,0.0,0.0,0.0,0.0,0.0,0.0,0.0,0.0,0.0,0.0,0.0,0.0,0.0,0.0,0.0,0.0,0.0,0.0,0.0,0.0,0.0,0.0,0.0,0.0,0.0,0.0,0.0,0.0,0.0,0.0,0.0,0.0,0.0,0.0,0.0,0.0,0.0,0.0,0.0,0.0,0.0,0.0,0.0,0.0,0.0,0.0,0.0,0.0,0.0,0.0,0.0,0.0,0.0,0.0,8.0898,8.7743,9.5461,9.6958,9.6721,9.4954,8.5086,7.737,7.3631,6.2691,0.0,0.0,0.0,0.0,0.0,0.0,0.0,0.0,0.0,0.0,0.0,0.0,0.0,0.0,0.0,0.0,0.0,0.0,0.0,0.0,0.0,0.0,0.0,0.0,0.0,0.0,0.0,0.0,0.0,0.0,0.0,0.0,0.0,0.0,0.0,0.0,0.0,0.0,0.0,0.0,0.0,0.0,0.0,0.0,0.0,0.0,0.0,0.0,0.0,0.0,0.0,0.0,0.0,0.0,0.0,0.0,0.0,0.0,0.0,0.0,0.0,0.0,0.0,0.0,0.0,0.0,0.0,0.0,0.0,0.0,0.0,0.0,0.0,0.0,0.0,0.0,0.0,0.0,0.0,0.0,0.0,0.0,0.0,0.0,0.0,0.0,0.0,0.0,0.0,0.0,0.0,0.0,0.0,0.0,0.0,0.0,0.0,0.0,0.0,0.0,0.0,0.0,7.9563,8.6302,0.0,9.6364,9.5838,9.3628,8.6717,7.9674,7.3095,0.0,0.0,0.0,0.0,0.0,0.0,0.0,0.0,0.0,0.0,0.0,0.0,0.0,0.0,0.0,0.0,0.0,0.0,0.0,0.0,0.0,0.0,0.0,0.0,0.0,0.0,0.0,0.0,0.0,0.0,0.0,0.0,0.0,0.0,0.0,0.0,0.0,0.0,0.0,0.0,0.0,0.0,0.0,0.0,0.0,0.0,0.0,0.0,0.0,0.0,0.0,0.0,0.0,0.0,0.0,0.0,0.0,0.0,0.0,0.0,0.0,0.0,0.0,0.0,0.0,0.0,0.0,0.0,0.0,0.0,0.0,0.0,0.0,0.0,0.0,0.0,0.0,0.0,0.0,0.0,0.0,0.0,0.0,0.0,0.0,0.0,0.0,0.0,0.0,0.0,0.0,0.0,0.0,0.0,0.0,0.0,0.0,0.0,0.0,0.0,0.0,0.0,7.3789,8.0206,8.7034,0.0,9.64,9.5756,9.3498,8.6387,7.9354,7.3028,0.0,0.0,0.0,0.0,0.0,0.0,0.0,0.0,0.0,0.0,0.0,0.0,0.0,0.0,0.0,0.0,0.0,0.0,0.0,0.0,0.0,0.0,0.0,0.0,0.0,0.0,0.0,0.0,0.0,0.0,0.0,0.0,0.0,0.0,0.0,0.0,0.0,0.0,0.0,0.0,0.0,0.0,0.0,0.0,0.0,0.0,0.0,0.0,0.0,0.0,0.0,0.0,0.0,0.0,0.0,0.0,0.0,0.0,0.0,0.0,0.0,0.0,0.0,0.0,0.0,0.0,0.0,0.0,0.0,0.0,0.0,0.0,0.0,0.0,0.0,0.0,0.0,0.0,0.0,0.0,0.0,0.0,0.0,0.0,0.0,0.0,0.0,0.0,0.0,0.0,0.0,0.0,0.0,0.0,0.0,0.0,0.0,0.0,0.0,0.0,0.0,0.0,7.5664,8.3778,9.1163,9.6879,9.7475,9.6784,9.5098,8.3345,7.5315,0.0,0.0,0.0,0.0,0.0,0.0,0.0,0.0,0.0,0.0,0.0,0.0,0.0,0.0,0.0,0.0,0.0,0.0,0.0,0.0,0.0,0.0,0.0,0.0,0.0,0.0,0.0,0.0,0.0,0.0,0.0,0.0,0.0,0.0,0.0,0.0,0.0,0.0,0.0,0.0,0.0,0.0,0.0,0.0,0.0,0.0,0.0,0.0,0.0,0.0,0.0,0.0,0.0,0.0,0.0,0.0,0.0,0.0,0.0,0.0,0.0,0.0,0.0,0.0,0.0,0.0,0.0,0.0,0.0,0.0,0.0,0.0,0.0,0.0,0.0,0.0,0.0,0.0,0.0,0.0,0.0,0.0,0.0,0.0,0.0,0.0,0.0,0.0,0.0,0.0,0.0,0.0,0.0,0.0,0.0,0.0,0.0,0.0,0.0,0.0,0.0,0.0,0.0,7.5534,8.2827,8.977,9.6005,9.6641,9.5498,9.2579,8.5019,7.7945,7.2028,0.0,0.0,0.0,0.0,0.0,0.0,0.0,0.0,0.0,0.0,0.0,0.0,0.0,0.0,0.0,0.0,0.0,0.0,0.0,0.0,0.0,0.0,0.0,0.0,0.0,0.0,0.0,0.0,0.0,0.0,0.0,0.0,0.0,0.0,0.0,0.0,0.0,0.0,0.0,0.0,0.0,0.0,0.0,0.0,0.0,0.0,0.0,0.0,0.0,0.0,0.0,0.0,0.0,0.0,0.0,0.0,0.0,0.0,0.0,0.0,0.0,0.0,0.0,0.0,0.0,0.0,0.0,0.0,0.0,0.0,0.0,0.0,0.0,0.0,0.0,0.0,0.0,0.0,0.0,0.0,0.0,0.0,0.0,0.0,0.0,0.0,0.0,0.0,0.0,0.0,0.0,0.0,0.0,0.0,0.0,0.0,0.0,0.0,0.0,0.0,0.0,0.0,7.557,8.289,8.977,9.5688,9.6285,9.5174,9.2434,8.642,7.9394,7.1403,0.0,0.0,0.0,0.0,0.0,0.0,0.0,0.0,0.0,0.0,0.0,0.0,0.0,0.0,0.0,0.0,0.0,0.0,0.0,0.0,0.0,0.0,0.0,0.0,0.0,0.0,0.0,0.0,0.0,0.0,0.0,0.0,0.0,0.0,0.0,0.0,0.0,0.0,0.0,0.0,0.0,0.0,0.0,0.0,0.0,0.0,0.0,0.0,0.0,0.0,0.0,0.0,0.0,0.0,0.0,0.0,0.0,0.0,0.0,0.0,0.0,0.0,0.0,0.0,0.0,0.0,0.0,0.0,0.0,0.0,0.0,0.0,0.0,0.0,0.0,0.0,0.0,0.0,0.0,0.0,0.0,0.0,0.0,0.0,0.0,0.0,0.0,0.0,0.0,0.0,0.0,0.0,0.0,0.0,0.0,0.0,0.0,0.0,0.0,0.0,0.0,0.0,7.5732,8.3522,9.0566,9.5649,9.6165,9.545,9.3626,8.7402,7.9998,7.1559,0.0,0.0,0.0,0.0,0.0,0.0,0.0,0.0,0.0,0.0,0.0,0.0,0.0,0.0,0.0,0.0,0.0,0.0,0.0,0.0,0.0,0.0,0.0,0.0,0.0,0.0,0.0,0.0,0.0,0.0,0.0,0.0,0.0,0.0,0.0,0.0,0.0,0.0,0.0,0.0,0.0,0.0,0.0,0.0,0.0,0.0,0.0,0.0,0.0,0.0,0.0,0.0,0.0,0.0,0.0,0.0,0.0,0.0,0.0,0.0,5.5455,0.0,0.0,0.0,0.0,0.0,0.0,0.0,0.0,0.0,0.0,0.0,0.0,0.0,0.0,0.0,0.0,0.0,0.0,0.0,0.0,0.0,0.0,0.0,0.0,0.0,0.0,0.0,0.0,0.0,0.0,0.0,0.0,0.0,0.0,0.0,0.0,0.0,0.0,0.0,0.0,0.0,7.5672,8.3137,8.9811,9.4737,9.5292,9.43,9.1956,8.6731,8.0245,7.244,6.5744,0.0,0.0,0.0,0.0,0.0,0.0,0.0,0.0,0.0,0.0,0.0,0.0,0.0,0.0,0.0,0.0,0.0,0.0,0.0,0.0,0.0,0.0,0.0,0.0,0.0,0.0,0.0,0.0,0.0,0.0,0.0,0.0,0.0,0.0,0.0,0.0,0.0,0.0,0.0,0.0,0.0,0.0,0.0,0.0,0.0,0.0,0.0,0.0,0.0,0.0,0.0,0.0,0.0,0.0,0.0,0.0,0.0,0.0,0.0,0.0,5.7815,0.0,0.0,0.0,0.0,0.0,0.0,0.0,0.0,0.0,0.0,0.0,0.0,0.0,0.0,0.0,0.0,0.0,0.0,0.0,0.0,0.0,0.0,0.0,0.0,0.0,0.0,0.0,0.0,0.0,0.0,0.0,0.0,0.0,0.0,0.0,0.0,0.0,0.0,0.0,0.0,7.5715,8.3312,8.9912,9.4504,9.5013,9.4124,9.1994,8.7517,8.1353,7.3336,6.759,0.0,0.0,0.0,0.0,0.0,0.0,0.0,0.0,0.0,0.0,0.0,0.0,0.0,0.0,0.0,0.0,0.0,0.0,0.0,0.0,0.0,0.0,0.0,0.0,0.0,0.0,0.0,0.0,0.0,0.0,0.0,0.0,0.0,0.0,0.0,0.0,0.0,0.0,0.0,0.0,0.0,0.0,0.0,0.0,0.0,0.0,0.0,0.0,0.0,0.0,0.0,0.0,0.0,6.8904,6.9976,7.0504,7.0057,7.0168,7.0433,6.6192,6.2906,6.0596,6.134,0.0,0.0,0.0,0.0,0.0,0.0,0.0,0.0,0.0,0.0,0.0,0.0,0.0,0.0,0.0,0.0,0.0,0.0,0.0,0.0,0.0,0.0,0.0,0.0,6.5581,6.3942,5.9155,0.0,0.0,0.0,0.0,0.0,0.0,0.0,0.0,0.0,0.0,0.0,7.5717,8.3444,9.0054,9.4113,9.4576,9.3866,9.2189,8.8408,8.2684,7.4652,6.9875,6.4234,0.0,0.0,0.0,0.0,0.0,0.0,0.0,0.0,0.0,0.0,0.0,0.0,0.0,0.0,0.0,0.0,0.0,0.0,0.0,0.0,0.0,0.0,0.0,0.0,0.0,0.0,0.0,0.0,0.0,0.0,0.0,0.0,4.6311,4.8652,0.0,0.0,0.0,0.0,0.0,0.0,0.0,0.0,0.0,0.0,0.0,0.0,0.0,6.729,6.9269,7.3073,7.4197,7.2721,7.5746,7.6129,7.4228,7.5529,7.657,7.7346,7.7319,0.0,6.5842,6.4037,0.0,0.0,0.0,0.0,0.0,0.0,0.0,0.0,0.0,0.0,0.0,0.0,0.0,0.0,0.0,0.0,0.0,0.0,0.0,0.0,0.0,0.0,6.5357,6.5785,6.6926,6.7507,0.0,6.3543,6.0785,5.7816,5.6692,0.0,0.0,0.0,0.0,0.0,0.0,0.0,7.5677,8.2887,8.8904,9.2445,9.2832,9.212,9.0403,8.7694,8.3439,7.7195,7.14,6.6443,6.2463,5.7153,0.0,0.0,0.0,0.0,0.0,0.0,0.0,0.0,0.0,0.0,0.0,0.0,0.0,0.0,0.0,0.0,0.0,0.0,0.0,0.0,0.0,0.0,0.0,0.0,0.0,0.0,0.0,0.0,0.0,4.9056,5.1595,5.0403,5.2991,5.3951,0.0,0.0,0.0,0.0,0.0,0.0,0.0,0.0,0.0,6.6937,7.1005,7.3565,7.4425,7.8021,8.0045,8.0522,8.241,8.2989,8.2389,8.3105,8.3868,8.4645,8.4079,8.1712,7.7814,7.253,6.8447,6.5394,0.0,0.0,0.0,0.0,6.3968,6.4132,6.5176,6.5229,6.4702,6.3932,0.0,0.0,0.0,0.0,0.0,0.0,0.0,0.0,0.0,0.0,7.0958,7.1472,7.2506,7.3037,7.1657,6.9091,6.5905,0.0,6.0649,5.978,5.8913,0.0,0.0,0.0,0.0,7.1033,7.626,8.3047,8.8727,9.2134,9.2487,9.179,9.0053,8.755,8.4176,7.9702,7.3843,6.901,6.5589,6.1142,5.8117,0.0,0.0,0.0,0.0,0.0,0.0,0.0,0.0,0.0,0.0,0.0,0.0,0.0,0.0,0.0,0.0,0.0,0.0,0.0,0.0,0.0,0.0,0.0,0.0,0.0,0.0,0.0,0.0,5.3363,5.5688,5.2674,5.6629,5.7904,0.0,0.0,0.0,0.0,0.0,0.0,6.5623,6.961,7.2149,7.2853,7.7555,8.0293,8.0703,8.3971,8.6492,8.8298,8.9098,8.9806,9.0365,9.0374,9.0586,9.0881,8.9683,8.8692,8.7336,7.9679,7.4289,7.0726,6.9289,6.8534,6.8313,6.9346,6.9688,6.999,7.1868,7.1833,7.059,6.874,6.7266,6.5439,6.1196,0.0,0.0,0.0,0.0,6.7847,7.0797,7.3295,7.5358,7.6667,7.7639,7.7877,7.6329,7.4328,7.1323,0.0,6.4384,6.3151,6.1673,0.0,0.0,0.0,0.0,7.2174,7.7693,8.3681,8.8627,9.1841,9.216,9.1456,8.9739,8.745,8.4778,8.1608,7.6241,7.1743,6.8549,6.4534,6.1067,5.8194,0.0,0.0,0.0,0.0,0.0,0.0,0.0,0.0,0.0,0.0,0.0,0.0,0.0,0.0,0.0,0.0,0.0,0.0,0.0,0.0,0.0,0.0,0.0,0.0,0.0,0.0,0.0,0.0,0.0,5.6525,6.082,0.0,0.0,0.0,0.0,6.351,6.7246,7.0204,7.1965,7.5927,7.8866,8.0411,8.5127,8.8385,8.991,9.3207,9.4904,9.5009,9.5838,9.6216,9.6272,9.629,9.5893,9.5181,9.5098,9.3288,8.9815,8.217,7.8436,7.7162,7.3569,7.2637,7.3321,7.3261,7.325,7.3254,7.3381,7.2302,7.127,7.3516,7.2584,7.0246,6.8396,6.7844,0.0,0.0,6.9335,7.1059,7.2893,7.4639,7.6573,7.9031,8.026,8.0656,7.9744,7.8794,7.5929,0.0,6.5652,6.4251,6.3319,0.0,6.4817,6.6528,7.1135,7.5976,8.0342,8.4713,8.839,9.1009,9.1285,9.0573,8.889,8.7133,8.5017,8.2401,7.8202,7.4652,7.2048,6.6327,6.2391,6.064,5.7521,0.0,0.0,0.0,0.0,0.0,0.0,0.0,0.0,0.0,0.0,0.0,0.0,0.0,0.0,0.0,0.0,0.0,0.0,0.0,0.0,0.0,0.0,0.0,0.0,0.0,0.0,0.0,0.0,6.5966,6.9955,0.0,6.7274,6.7471,6.8723,7.0877,7.3849,7.7182,8.0872,8.4403,8.7559,9.025,9.353,9.5755,9.6825,9.853,9.9362,9.9362,9.9654,9.9779,9.9779,9.9233,9.8844,9.8503,9.6938,9.5605,9.4138,8.9315,8.5318,8.2078,8.0532,7.978,7.979,8.1112,8.1614,8.1682,8.2262,8.1679,8.0115,7.6655,7.3418,7.0582,6.8904,6.8798,6.9676,7.1867,7.3699,7.5662,7.8444,8.0021,8.1131,8.2043,8.2045,8.1807,8.1489,8.0338,7.8537,7.5796,7.2604,7.0032,6.9197,6.8405,6.8442,7.0116,7.3307,7.7071,8.1329,8.5106,8.8388,9.093,9.0692,8.9675,8.8006,8.6322,8.4233,8.1683,7.8037,7.4854,7.2311,6.7564,6.3659,6.0859,5.8032,5.636,0.0,0.0,0.0,0.0,0.0,0.0,0.0,0.0,0.0,0.0,0.0,0.0,0.0,0.0,0.0,0.0,0.0,0.0,0.0,0.0,0.0,0.0,0.0,0.0,0.0,0.0,7.0827,7.2702,7.6985,7.8283,7.4477,7.4878,7.6383,7.8792,8.1782,8.5251,8.9245,9.2273,9.4878,9.7061,9.9468,10.0985,10.15,10.2612,10.2994,10.2701,10.2701,10.2612,10.2288,10.1787,10.1409,10.0987,9.914,9.7843,9.6912,9.446,9.1257,8.7751,8.6357,8.5487,8.5237,8.6891,8.7478,8.7534,8.8041,8.7703,8.6135,8.1044,7.7299,7.4546,7.3428,7.3477,7.4476,7.6984,7.8763,8.0364,8.2587,8.338,8.3617,8.3617,8.3141,8.2674,8.2355,8.1449,8.0577,8.0298,7.7499,7.4811,7.3698,7.2786,7.2816,7.449,7.6661,7.9664,8.3923,8.6669,8.8986,9.1009,9.0414,8.9237,8.753,8.5846,8.3708,8.0828,7.7431,7.4301,7.1474,6.7838,6.4411,6.1296,5.8468,5.6919,5.6766,0.0,0.0,0.0,0.0,0.0,0.0,0.0,0.0,0.0,0.0,0.0,0.0,0.0,0.0,0.0,0.0,0.0,0.0,0.0,0.0,0.0,0.0,0.0,6.4345,7.0683,7.5572,7.6527,8.1545,8.3107,7.8362,8.1475,8.4799,8.719,9.1093,9.4392,9.6809,9.9161,10.0495,10.05,10.2793,10.4017,10.4096,10.5704,10.6108,10.5196,10.5212,10.4803,10.4096,10.4007,10.3583,10.2815,10.1901,10.0185,9.7949,9.7054,9.5771,9.4034,9.0681,8.9361,8.9434,9.0151,9.0313,9.0184,9.0054,8.9495,8.8482,8.6765,8.4528,8.2472,8.2436,8.2436,8.2594,8.3462,8.434,8.4975,8.5018,8.4384,8.3748,8.3748,8.371,8.3459,8.2613,8.2399,8.2122,8.1331,7.9782,7.8077,7.6448,7.6884,7.7996,7.9625,8.1325,0.0,8.812,8.9406,9.0215,9.1126,9.0414,8.9226,8.751,8.579,8.3333,7.9875,7.6426,7.3041,6.9703,6.7129,6.4606,6.2084,5.8704,5.6687,5.6026,0.0,0.0,0.0,0.0,0.0,0.0,0.0,0.0,0.0,0.0,0.0,0.0,0.0,0.0,0.0,0.0,0.0,0.0,0.0,0.0,0.0,0.0,7.2526,7.2775,7.8584,8.4203,8.7974,9.0822,9.2189,9.144,9.2375,9.3813,9.5639,9.7883,9.9975,10.1784,10.309,10.4284,10.5595,10.6192,10.6911,10.7384,10.7894,10.7984,10.7784,10.7808,10.771,10.7384,10.6213,10.5616,10.5191,10.2605,10.1109,10.0291,9.7764,9.6425,9.5816,9.3676,9.283,9.2837,9.2998,9.2643,9.2119,9.2627,9.1844,9.0472,8.9232,8.7979,8.6708,8.5435,8.5063,8.5245,8.612,8.6513,8.6864,8.7499,8.7478,8.7319,8.7319,8.6329,8.5346,8.5095,8.4093,8.3193,8.2956,8.2005,8.0933,7.9863,8.0379,8.1093,8.1529,8.3579,0.0,8.7526,8.9004,9.0215,9.1126,9.0414,8.8987,8.6636,8.4324,8.1046,7.6388,7.2937,6.9849,6.7067,6.4494,6.2223,6.0232,5.8113,5.7556,0.0,0.0,0.0,0.0,0.0,0.0,0.0,0.0,0.0,0.0,0.0,0.0,0.0,0.0,0.0,0.0,0.0,0.0,0.0,0.0,0.0,0.0,7.6024,8.2247,8.5305,8.8419,9.1788,9.5668,9.7841,9.8922,9.8743,9.9309,10.0207,10.149,10.2799,10.4085,10.5392,10.6216,10.7114,10.8114,10.8383,10.8793,10.9287,10.9601,10.9592,10.9303,10.9312,10.91,10.881,10.7811,10.7414,10.7295,10.4714,10.3216,10.2313,9.9772,9.8105,0.0,0.0,0.0,0.0,0.0,9.3834,9.3445,9.3846,9.3122,9.193,9.1675,9.0772,8.9711,8.8981,8.8521,8.835,8.8843,8.8747,8.8643,8.9537,8.9235,8.8761,8.9118,8.8164,8.6987,8.628,8.5347,8.4437,8.3723,8.3206,0.0,8.176,8.2005,8.2663,8.3731,8.5443,8.7092,8.8277,8.9619,9.0374,9.0254,8.9739,8.8256,8.542,8.3425,0.0,0.0,0.0,6.8585,6.4978,6.2704,0.0,0.0,0.0,5.8795,5.9155,5.8677,0.0,0.0,5.6369,5.6619,0.0,0.0,0.0,0.0,0.0,0.0,0.0,0.0,0.0,0.0,0.0,0.0,0.0,0.0,0.0,0.0,8.5171,9.1926,9.9054,9.8994,9.8884,10.0793,10.2908,10.3708,10.2306,10.35,10.4686,10.5494,10.6294,10.7206,10.7995,0.0,0.0,0.0,0.0,11.0087,11.0087,11.0791,11.0799,11.0093,11.0093,10.9797,10.9092,10.9008,10.889,10.8803,10.7184,10.56,10.4015,10.2314,10.0215,9.7802,9.539,9.438,9.4306,9.4228,9.4214,9.4213,9.4131,0.0,0.0,9.3708,9.2908,9.1785,9.2459,9.2031,9.1366,9.1445,9.0851,9.0374,9.1246,9.0365,8.9445,9.017,8.966,8.8574,8.7004,8.6438,8.5812,8.4305,8.3868,8.3542,8.2963,8.2701,8.3344,8.5508,8.6805,8.8036,8.9474,9.0493,9.0493,8.8946,0.0,0.0,8.4299,8.2962,8.0544,7.6418,7.2655,6.8494,6.3796,6.1973,6.1184,6.1354,6.099,6.0196,5.9019,5.8808,5.884,5.8999,5.8739,5.8583,0.0,0.0,0.0,0.0,0.0,0.0,0.0,0.0,0.0,0.0,0.0,0.0,0.0,0.0,0.0,8.5068,9.2315,9.9087,10.5086,10.6783,10.6893,10.5411,10.5614,10.6003,10.6406,10.6682,10.7203,10.7991,10.8797,10.9715,11.0511,11.0702,11.1008,11.171,11.1205,11.101,11.101,11.1091,11.1089,11.1005,0.0,0.0,11.0715,11.0093,10.9805,10.9719,10.8098,10.6807,10.5705,10.34,10.1002,9.8633,9.6224,9.4863,9.4313,9.4276,9.4286,9.4259,9.4213,9.4079,9.3925,9.3925,9.3695,9.3418,9.3457,9.2885,0.0,9.303,9.2635,9.2198,9.2992,9.2968,9.2767,9.2931,9.1802,9.0618,9.0282,8.8609,8.7042,8.6726,8.5575,8.5026,8.6195,8.5288,8.4328,8.4111,8.6566,8.8352,8.8087,8.9382,8.9739,8.8232,8.8642,8.7873,8.5101,8.3399,8.0908,7.7268,7.1919,6.783,6.5495,6.3756,6.3488,6.4893,6.2222,6.1667,6.3389,6.2023,6.2053,6.332,6.0568,5.9664,0.0,0.0,0.0,0.0,0.0,0.0,0.0,0.0,0.0,0.0,0.0,6.8447,0.0,0.0,8.5739,9.3062,9.9385,10.4585,10.8289,11.0204,11.05,10.8385,10.8603,10.8782,10.8812,10.9502,11.0212,11.0616,11.1302,11.1995,11.2392,11.2413,11.2609,11.3,11.2588,11.2419,11.2419,11.2419,11.2419,11.2419,11.2002,11.1796,11.1796,11.1005,11.0593,11.0509,10.9303,10.8092,10.6807,10.3895,10.1796,10.0112,9.8535,9.7166,9.6017,9.5188,9.4907,9.4847,9.4392,9.3993,9.368,9.3965,9.3776,9.3506,9.3823,9.3584,9.328,9.3691,9.3468,9.3308,9.4143,9.4025,9.3798,9.4249,9.3389,9.2213,9.1393,9.0218,8.9041,8.8221,8.736,8.6922,8.7319,8.7077,8.6663,8.6201,8.7597,8.8589,8.8286,8.9318,8.9399,8.7578,8.8029,8.7418,8.4924,8.2588,8.0123,7.7479,7.3309,7.039,6.9106,6.7407,6.6916,6.7798,6.569,6.5016,6.5859,6.5026,6.5028,6.5818,6.4537,6.3946,0.0,0.0,0.0,0.0,0.0,0.0,0.0,0.0,6.4614,6.9504,7.2555,7.6326,8.2863,8.8156,9.3772,10.0582,10.539,10.8888,11.0503,11.1814,11.2108,11.0603,11.0891,11.088,11.0314,11.1515,11.2401,11.2401,11.311,11.3689,11.379,11.3802,11.3799,11.3792,11.3798,11.3798,11.3592,11.3592,11.3592,11.3592,11.2883,11.2595,11.2419,11.1711,11.13,11.1089,11.0214,10.8889,10.74,10.4415,10.2709,10.1889,10.1103,9.9884,9.8398,9.661,9.5975,9.5846,9.4851,9.4127,9.3649,9.4062,9.377,9.335,9.3909,9.4029,9.3906,9.394,9.3946,9.4129,9.4862,9.4617,9.4379,9.5095,9.4579,9.3529,9.1991,9.143,9.0755,8.9216,8.8797,8.8519,8.7965,8.8329,8.8624,8.8454,8.861,8.8726,8.8679,8.9276,8.8934,8.69,8.7252,8.6782,8.4679,8.2214,7.9999,7.8154,7.5937,7.4277,7.3213,7.1551,7.0766,7.0913,6.992,6.9124,6.8576,6.824,6.8171,6.8365,6.9053,6.8823,5.6483,5.6539,0.0,6.2078,6.2235,6.3965,0.0,0.0,7.4678,7.9576,8.3085,8.6376,9.0133,9.5322,10.0806,10.5919,10.8982,11.141,11.3,11.3409,11.3099,11.2212,11.1588,11.1216,11.1106,11.1882,11.2401,11.2401,11.3096,11.3895,11.4582,11.471,11.4719,11.4707,11.4696,11.4283,11.3611,11.3611,11.3611,11.3611,11.349,11.3102,11.2419,11.2298,11.188,11.1089,10.9592,10.8401,10.7483,10.5584,10.4415,10.3583,10.2689,10.191,10.079,9.8498,9.7636,9.7428,9.5892,9.5304,9.5114,9.4421,9.4134,9.4061,9.4103,9.402,9.391,9.4059,9.4457,9.4896,9.5118,9.5608,9.6045,9.6125,9.5491,9.4581,9.3642,9.2251,9.0932,8.9953,8.92,8.8884,8.9519,8.911,8.8425,8.7662,8.831,8.8643,8.7995,8.8142,8.7729,8.6108,8.6611,8.6578,8.5317,8.4132,8.2658,8.081,7.9675,7.8377,7.6801,7.5054,7.4512,7.5295,7.3739,7.3221,7.3868,7.2377,7.2027,7.2779,7.2869,7.2044,5.9582,0.0,0.0,0.0,6.9562,7.3807,8.0008,8.1687,8.3452,8.8819,9.1743,9.4765,9.9476,10.2988,10.6413,0.0,11.1992,11.3491,11.4194,11.3912,11.3288,11.2511,11.1698,11.1399,11.1882,11.3014,11.4011,11.4499,11.518,11.602,11.6886,11.6898,11.6894,11.6914,11.6905,11.6704,11.6412,11.5914,11.5707,11.5707,11.4294,11.3719,11.3689,11.2308,11.1506,11.1089,11.0008,10.9302,10.8914,10.7211,10.6093,10.5196,10.3886,10.2913,10.2008,9.9993,9.8716,9.7802,9.7137,9.6266,9.5377,9.4527,9.3929,9.3469,9.2927,9.3056,9.3393,9.3451,9.3953,9.4506,9.4554,9.4778,9.5015,9.5015,9.4737,9.4379,9.3904,9.3264,9.264,9.2187,9.1841,9.1723,9.204,9.1445,9.0629,8.984,8.9252,8.8837,8.8577,8.8291,8.7688,8.6608,8.6813,8.6917,8.6756,8.5507,8.4522,8.4051,8.2289,8.0935,8.026,7.8554,7.782,7.8183,7.7034,7.6357,7.62,7.5492,7.5346,7.5722,7.572,7.5848,6.2496,0.0,0.0,7.1707,7.738,8.2989,8.63,8.8951,9.2031,9.6816,9.9098,10.1613,10.6196,10.8416,11.0289,11.2693,11.4189,11.518,11.5394,11.4604,11.3398,11.1887,11.0995,11.0817,11.1416,11.3282,11.4898,11.5889,11.6694,11.7608,11.8692,11.9005,11.9,11.8716,11.8983,11.8806,11.8105,11.7485,11.7087,11.6789,11.5088,11.4515,11.4689,11.2492,11.1385,11.121,11.0298,10.99,10.9607,10.8197,10.7105,10.6297,10.5096,10.4086,10.319,10.1805,10.0114,9.8484,9.8054,9.7137,9.5975,9.4976,9.4239,9.3552,9.2473,9.2721,9.3224,9.2789,9.3368,9.4061,9.3839,9.3935,9.4094,9.4094,9.4094,9.4079,9.3942,9.3902,9.3848,9.3726,9.3701,9.3701,9.3701,9.3027,9.2244,9.1518,8.9983,8.8914,8.8859,8.8226,8.7688,8.7355,8.6941,8.7065,8.8043,8.6621,8.5781,8.6087,8.4377,8.3046,8.232,8.1131,8.0379,8.014,7.9544,7.895,7.8354,7.8115,7.7997,7.7993,7.7993,7.8629,6.4741,0.0,7.1882,7.9817,8.4912,8.9402,9.5007,9.8166,10.0588,10.3119,10.5012,10.6714,10.8403,10.9983,11.1896,11.4293,11.5406,11.6213,11.7003,11.5804,11.3607,11.0419,10.9397,10.8909,0.0,11.1783,11.4316,11.5889,11.6713,11.7886,11.9506,12.0384,12.0393,11.9588,12.0393,11.9685,11.731,11.7188,11.6782,11.5999,11.5999,11.55,11.4685,11.3116,11.188,11.121,11.0298,10.9598,10.8819,10.7904,10.7114,10.6386,10.6297,10.5809,10.4892,10.4117,10.2302,10.0004,9.8452,9.7885,9.7557,9.5975,9.5445,9.5129,9.3552,9.3593,9.3827,9.2283,9.294,9.3951,9.3201,9.3563,9.41,9.41,9.41,9.4049,9.3936,9.3902,9.3866,9.3748,9.371,9.371,9.371,9.3035,9.2238,9.1509,9.0066,8.8853,8.8203,8.7483,8.7314,8.8062,8.6772,8.6695,8.8787,8.7491,8.6415,8.6122,8.6015,8.4873,8.2397,8.2243,8.1847,8.1093,8.1014,8.1014,8.0973,8.014,7.9706,7.9709,7.9709,7.9748,7.1134,0.0,8.2084,8.8614,9.4478,9.956,10.3094,10.5807,10.7792,10.8608,10.7516,10.6684,10.7802,10.84,10.9612,11.1986,11.4886,11.7088,11.7902,11.7492,11.5406,11.0614,11.0713,0.0,0.0,0.0,0.0,11.6617,11.7999,11.9514,12.1196,12.1983,12.2087,12.1292,12.1481,12.0997,11.971,11.8587,11.7891,11.7616,11.6497,11.4993,11.3184,11.3211,11.2503,11.121,11.0883,11.0593,11.0284,10.8909,10.8203,10.7794,10.6213,10.5395,10.4902,10.3609,10.2587,10.1696,10.0089,9.878,9.7719,9.6644,9.5946,9.5287,9.4205,9.4071,9.4135,9.3598,9.3469,9.3386,9.3138,9.2808,9.2556,9.2556,9.2556,9.2708,9.3189,9.3704,9.4142,9.4617,9.5095,9.5412,9.5412,9.4737,9.337,9.1068,8.9417,8.8354,8.8185,8.7939,8.8103,8.8893,8.852,8.8467,8.9159,8.8571,8.8128,8.7966,8.6804,8.5709,8.4871,8.3752,8.3035,8.2757,8.2203,8.1885,8.1885,8.1054,8.0935,8.1449,8.0894,8.0935,7.8516,8.476,9.0789,9.7062,10.2784,10.7409,10.9287,11.0896,11.1808,11.088,10.7996,10.539,10.5107,10.4483,10.5212,10.85,11.1693,11.4714,11.7204,11.6801,11.4782,11.0896,11.0608,10.9916,0.0,0.0,0.0,11.6507,11.8291,11.9985,12.2005,12.3102,12.3497,12.2995,12.2698,12.1993,12.0912,11.949,11.85,11.7993,11.6582,11.4918,11.2809,11.3398,11.2709,11.121,11.121,11.1005,11.0694,10.9693,10.8902,10.8209,10.6591,10.5799,10.5385,10.3713,10.3085,10.2882,10.1008,9.9437,9.819,9.7385,9.6598,9.5768,9.4976,9.472,9.4655,9.4361,9.3735,9.3152,9.3433,9.2679,9.189,9.2184,9.2019,9.2019,9.2845,9.3357,9.4011,9.4996,9.557,9.6005,9.6245,9.5133,9.3434,9.1178,8.9555,8.8477,8.8226,8.8433,8.8921,8.9748,8.9558,8.9628,9.0106,8.9527,8.9174,8.9337,8.7938,8.6925,8.6566,8.5521,8.4684,8.4089,8.3496,8.3076,8.2757,8.2243,8.2243,8.2756,8.2243,8.2285,8.6591,9.2437,9.7911,10.5102,10.9795,11.2915,11.3587,11.3703,11.289,11.0283,10.6386,10.271,0.0,0.0,9.9407,10.42,10.6706,10.999,11.5491,11.4384,11.2616,0.0,0.0,0.0,0.0,0.0,0.0,11.5819,0.0,11.9497,12.2005,12.3683,12.4495,12.4495,12.3793,12.2598,12.0997,12.0088,11.8809,11.708,11.629,11.5088,11.3602,11.3604,11.2709,11.121,11.121,11.0715,11.0008,11.0008,10.9007,10.7594,10.7584,10.709,10.6213,10.4509,10.3912,10.3588,10.1217,9.9841,9.9041,9.8212,9.7428,9.6602,9.5809,9.5561,9.5395,9.4644,9.3848,9.3411,9.415,9.3161,9.2115,9.2923,9.2473,9.206,9.2767,9.2973,9.3446,9.4856,9.5185,9.5452,9.6125,9.4339,9.2514,9.173,9.0394,8.9191,8.8406,8.8976,8.977,9.0562,8.9976,9.0104,9.1519,9.0294,8.9616,9.0108,8.9405,8.8517,8.7585,8.7508,8.6715,8.5129,8.5016,8.4591,8.378,8.3701,8.3701,8.3778,8.3757,8.3725,9.485,10.12,10.6706,11.2187,11.5185,11.6617,11.5595,11.4505,11.2187,10.7404,10.1704,9.6529,0.0,0.0,0.0,10.2585,10.97,0.0,12.0016,12.0502,0.0,11.4401,0.0,11.3794,11.1388,11.2616,0.0,0.0,11.8697,12.0399,12.2891,12.451,12.5114,12.4495,12.4307,12.372,12.2695,12.0582,11.8517,11.629,11.5501,11.4585,11.3602,11.3017,11.2207,11.121,11.121,11.0715,11.0008,10.9387,10.8495,10.7506,10.6915,10.6591,10.6213,10.4509,10.3912,10.3588,10.1801,10.0716,9.9869,9.9044,9.8259,9.7433,9.6639,9.639,9.6349,9.6141,9.5514,9.4952,9.5143,9.4434,9.3567,9.3185,9.2932,9.2643,9.2184,9.2597,9.3265,9.42,9.5286,9.5887,9.5532,9.3983,9.2532,9.1785,9.0885,9.0217,9.0011,9.0168,9.0603,9.1395,9.1308,9.1102,9.0896,9.0996,9.0876,9.0429,9.002,8.9673,8.9421,8.8748,8.8154,8.7756,8.6447,8.5986,8.6447,8.5178,8.5219,8.6408,8.5784,8.547,10.2889,10.8683,11.3308,11.669,11.8317,11.8006,11.4714,11.2108,10.84,10.1305,9.5533,0.0,8.6468,8.9707,0.0,0.0,0.0,0.0,12.0186,12.11,12.019,0.0,11.791,0.0,11.5207,11.6217,11.7602,0.0,11.9913,12.1105,12.3181,12.4791,12.5494,12.4991,12.4703,12.3903,12.2802,12.0684,11.8705,11.6995,11.5914,11.4682,11.3616,11.281,11.2002,11.121,0.0,11.0883,11.0483,10.9716,10.8887,10.7993,10.7199,10.6712,10.6213,10.4887,10.4205,10.3709,10.2506,10.1509,10.0595,9.9495,9.8567,9.7807,9.735,9.6976,9.6764,9.7137,9.639,9.5577,9.5942,9.5166,9.4205,9.3747,9.3368,9.2849,9.1978,9.2143,9.2811,9.3889,9.5283,9.6086,9.5332,9.4171,9.3118,9.2388,9.1602,9.1143,9.1143,9.1143,9.1308,9.1767,9.1808,9.1602,9.1185,9.1185,9.1161,9.1018,9.053,9.0269,9.0178,8.9978,8.954,8.8788,8.813,8.7829,8.7954,8.7034,8.7052,8.7966,8.7487,8.725,11.0414,11.4791,11.7813,11.9812,11.9801,11.78,11.2314,10.8096,10.2894,9.3818,0.0,8.4715,8.0905,8.4479,9.0044,9.6166,0.0,11.0993,11.9198,11.961,11.9591,12.1187,12.0588,11.9816,11.9115,11.9689,12.0386,12.1286,12.1405,12.1986,12.3388,12.4912,12.5702,12.5702,12.4912,12.3687,12.2116,12.0608,11.9313,11.8198,11.6596,11.5093,11.3581,11.2709,11.188,11.121,11.121,11.1089,11.0995,11.0211,10.9403,10.8582,10.7794,10.7006,10.6297,10.5385,10.4708,10.3884,10.2983,10.2214,10.1384,9.9762,9.8797,9.8217,9.8093,9.7514,9.6987,9.7704,9.681,9.5809,9.6515,9.5643,9.4598,9.4474,9.3941,9.3138,9.2184,9.2138,9.2678,9.4011,9.5371,9.6045,9.5212,9.4423,9.3717,9.2932,9.2262,9.1808,9.1808,9.1808,9.1808,9.1808,9.1808,9.1808,9.1808,9.1143,9.102,9.1684,9.1056,9.0621,9.0488,9.1081,9.0786,8.9416,8.9858,8.9863,8.9361,8.9269,8.9262,8.9343,8.9343,8.9303,11.6408,11.8186,11.9103,12.269,12.0585,11.6317,11.13,10.5091,0.0,0.0,8.2884,7.9229,7.6447,8.2116,8.9934,9.831,10.5791,11.3887,12.331,0.0,12.2814,0.0,0.0,0.0,0.0,0.0,0.0,0.0,12.3903,12.3983,12.4299,12.52,12.5702,12.5702,12.4912,12.3701,12.2092,12.1204,11.961,11.7411,11.5783,11.4511,11.3581,11.2086,11.13,11.121,11.121,0.0,11.0098,10.9301,10.8504,10.771,10.6885,10.6507,10.6297,10.5385,10.5013,10.4714,10.3211,10.259,10.2214,10.0596,10.0,9.9752,9.9091,9.8313,9.7732,9.7872,9.722,9.6515,9.6644,9.6478,9.6104,9.5436,9.5188,9.4673,9.318,9.3841,9.4772,9.5046,9.5808,9.5928,9.4538,9.3692,9.2927,9.2138,9.189,9.1808,9.1808,9.1808,9.1808,9.1808,9.1808,9.1808,9.1808,9.1684,9.1643,9.1767,9.1602,9.1471,9.1462,9.1459,9.1631,9.1932,9.1407,9.1691,9.2821,9.2168,9.2198,9.2834,9.2834,9.2476,11.9386,12.1486,12.26,12.4001,12.0503,11.4607,10.7312,0.0,0.0,0.0,7.7059,7.4948,7.3311,7.9992,0.0,9.3672,10.0117,10.8099,11.9108,11.9296,0.0,0.0,0.0,0.0,0.0,0.0,0.0,0.0,12.5114,12.5114,12.5114,12.5494,12.5702,12.5702,12.4912,12.4111,12.3405,12.2115,12.0289,11.7797,11.6617,11.5008,11.2915,11.2207,11.159,11.121,11.121,11.1005,11.0509,10.9303,10.8602,10.8088,10.6885,10.6386,10.6297,10.5883,10.551,10.4913,10.3713,10.3103,10.2506,10.13,10.0601,10.0186,9.9853,9.8876,9.7974,9.8398,9.7636,9.6685,9.6685,9.6685,9.6515,9.5685,9.5179,9.4562,9.3378,9.4287,9.5117,9.426,9.5055,9.5348,9.3791,9.3247,9.2725,9.1932,9.1808,9.1808,9.1808,9.1808,9.1808,9.1808,9.1808,9.1808,9.1808,9.1808,9.1808,9.1808,9.1767,9.156,9.1143,9.1416,9.1581,9.1514,9.1862,9.2394,9.3147,9.3147,9.3305,9.3701,9.3701,9.3505,12.2005,12.4281,12.5381,12.5185,12.0092,11.2811,10.3395,9.346,0.0,0.0,7.2277,7.1592,7.1135,7.7463,8.4231,0.0,9.3745,10.14,11.3482,11.4707,11.7398,0.0,0.0,0.0,0.0,0.0,0.0,12.599,12.599,12.5905,12.5702,12.5702,12.5702,12.5702,12.4912,12.4485,12.4515,12.2697,12.0785,11.8594,11.75,11.5387,11.2703,11.2501,11.2002,11.121,11.121,11.121,11.1089,10.9508,10.8897,10.8914,10.709,10.6507,10.6591,10.6507,10.6009,10.5301,10.4389,10.3593,10.2799,10.2005,10.1217,10.0596,10.0596,9.9429,9.8307,9.8934,9.7931,9.6685,9.6685,9.6685,9.6556,9.5892,9.5141,9.4445,9.3965,9.4796,9.5213,9.3783,9.4488,9.4845,9.3283,9.2849,9.2514,9.189,9.1808,9.1808,9.1808,9.1808,9.1808,9.1808,9.1808,9.1808,9.1808,9.1808,9.1808,9.1808,9.1808,9.1519,9.0891,9.1395,9.1515,9.1056,9.2117,9.2848,9.3148,9.3743,9.4101,9.4259,9.4259,9.4259,12.5994,12.6005,12.5016,12.721,12.0104,11.0492,10.2285,0.0,0.0,7.2266,6.9808,6.9426,7.0089,7.3881,7.9645,8.8039,9.2344,9.8866,11.0999,11.5085,11.8818,12.4115,0.0,0.0,12.7014,12.6881,0.0,12.6782,12.6782,12.6494,12.5702,12.5702,12.5702,12.5702,12.4912,12.4514,12.4508,12.2183,12.0499,11.9509,11.7204,11.5214,11.349,11.2706,11.2002,11.121,11.121,11.121,0.0,10.9508,10.9186,10.9703,10.7295,10.6796,10.7384,10.6712,10.6297,10.6213,10.5301,10.4509,10.3709,10.2882,10.2005,10.1384,10.1384,10.0304,9.9015,9.9095,9.7931,9.6685,9.6685,9.6685,9.6681,9.6602,9.5975,9.557,9.6235,9.6436,9.6225,9.5345,9.5294,9.4878,9.328,9.239,9.189,9.1808,9.1808,9.1808,9.1808,9.1808,9.1808,9.1808,9.1808,9.1808,9.1808,9.1808,9.1808,9.1808,9.1808,9.1767,9.1684,9.1767,9.2101,9.2762,9.2906,9.3611,9.4975,9.5015,9.5412,9.6045,9.6045,9.6045,12.4592,12.758,12.8508,12.7582,11.9787,11.0091,10.1489,0.0,7.839,7.0927,6.8733,6.8405,6.9238,7.1868,7.5712,8.1204,8.281,8.7269,9.8479,10.1612,10.6805,11.8119,12.1501,0.0,0.0,0.0,12.721,12.6281,12.6219,12.6002,12.569,12.5702,12.5702,12.5702,12.5408,12.52,12.52,12.2787,12.089,11.9607,11.7617,11.5619,11.3602,11.3307,11.2709,11.188,11.1385,11.121,0.0,11.0008,10.9686,10.9803,10.7916,10.7313,10.7505,10.6712,10.6386,10.6297,10.5385,10.4913,10.4404,10.3084,10.2506,10.2094,10.1593,10.0716,9.9723,9.9225,9.8301,9.7308,9.6847,9.6685,9.6685,9.6685,9.61,9.5473,9.5307,9.5238,9.4812,9.3505,9.3666,9.3639,9.2473,9.2014,9.1808,9.1808,9.1808,9.1808,9.1808,9.1808,9.1808,9.1808,9.1808,9.1808,9.1808,9.1808,9.1808,9.1808,9.1808,9.1808,9.1808,9.1808,9.1936,9.2266,9.2762,9.3511,9.454,9.4979,9.557,9.6285,9.6285,9.6285,12.1695,12.6886,12.9587,12.7102,11.9006,10.9396,0.0,0.0,7.6362,6.9869,6.7901,6.7596,6.8399,7.0501,7.3196,7.6429,7.7072,8.0626,9.0491,9.3426,9.9233,11.1986,0.0,11.9583,0.0,12.7685,12.7897,12.6506,12.64,12.6289,12.6101,12.5788,12.5702,12.5702,12.5702,12.5702,12.5702,12.3117,12.1183,11.9984,11.7908,11.5707,11.3596,11.3601,11.301,11.2002,11.1385,11.121,0.0,11.0298,10.9984,10.9811,10.8213,10.7614,10.7505,10.6712,10.6386,10.6297,10.5715,10.5301,10.4897,10.3502,10.2902,10.2506,10.1713,10.0888,10.0198,9.9615,9.8703,9.7765,9.7184,9.6888,9.6685,9.6685,9.6266,9.5636,9.4816,9.4632,9.4255,9.2798,9.2844,9.2973,9.2597,9.2138,9.189,9.2143,9.1973,9.1808,9.1808,9.2042,9.2106,9.184,9.2019,9.2092,9.1808,9.1808,9.1808,9.1808,9.1808,9.1808,9.1808,9.1808,9.1808,9.1808,9.2349,9.3138,9.4103,9.462,9.5371,9.6285,9.6285,9.6285,11.801,12.321,12.671,12.5916,11.7802,10.7711,0.0,8.6646,7.5491,6.9054,6.7069,6.6769,6.7567,6.9706,7.2368,7.5601,7.8182,8.2614,9.0745,9.5338,10.0284,0.0,0.0,11.3506,11.9204,12.5482,12.9018,12.8102,12.8102,0.0,12.6905,12.6113,12.5702,12.5702,12.5702,12.5702,12.5702,12.2493,12.0889,12.0808,11.7616,11.521,11.3585,11.359,11.2693,11.121,11.121,11.121,0.0,11.0298,11.0008,10.9808,10.8213,10.7614,10.7505,10.6712,10.6386,10.6386,10.6386,10.5799,10.5007,10.4185,10.3315,10.2506,10.1713,10.0888,10.0304,10.0304,9.915,9.789,9.7885,9.7303,9.6685,9.6685,9.6681,9.6468,9.5649,9.5492,9.5244,9.4416,9.3634,9.3345,9.4135,9.2891,9.2097,9.2969,9.2349,9.1808,9.1808,9.2537,9.2771,9.1872,9.2551,9.2735,9.1881,9.1808,9.1808,9.1808,9.1808,9.1808,9.1808,9.1808,9.1808,9.1808,9.1808,9.2556,9.4103,9.4098,9.4857,9.6285,9.6285,9.6285,10.6485,11.1593,11.4597,11.1597,10.5392,9.8206,9.0908,8.2631,7.4804,6.8917,6.7507,6.7392,6.765,6.9211,7.2098,7.6997,7.8455,8.1016,8.6907,0.0,0.0,10.6811,11.7486,12.4918,0.0,0.0,12.8705,12.7414,12.7312,12.6905,12.6113,12.5788,12.5702,12.5702,12.5702,12.5408,12.4912,12.22,12.0596,11.9984,11.7287,11.5416,11.439,11.3887,11.3005,11.2002,11.1385,11.121,11.121,11.0883,11.0509,10.9909,10.8804,10.8087,10.7384,10.6009,10.551,10.551,10.551,10.5007,10.4216,10.4007,10.3399,10.2506,10.1713,10.13,10.1008,10.0508,9.915,9.7904,9.7896,9.7303,9.6685,9.6685,9.6266,9.5677,9.4862,9.4673,9.4425,9.3634,9.3726,9.3991,9.4251,9.385,9.3603,9.3892,9.3694,9.3502,9.3515,9.3736,9.3589,9.2799,9.2928,9.2753,9.1886,9.1808,9.1808,9.1808,9.2354,9.268,9.2679,9.2684,9.2684,9.2684,9.2101,9.2556,9.4103,9.4098,9.4855,9.6283,9.5769,9.5808,9.5681,10.2395,10.6007,10.2885,9.7617,0.0,8.5764,7.8698,7.2133,6.7721,6.6297,6.6136,6.708,6.8559,7.1096,7.5565,7.6797,7.9104,8.4567,0.0,0.0,10.7484,0.0,0.0,0.0,12.8117,12.8788,12.7497,12.7114,12.6494,12.5702,12.5702,12.5702,12.5702,12.5702,12.5285,12.4495,12.2111,12.0503,11.9607,11.7202,11.5416,11.4305,11.381,11.3,11.188,11.1385,11.121,0.0,11.0883,11.0298,10.951,10.8702,10.7915,10.7006,10.5594,10.5112,10.5091,10.5091,10.4609,10.3913,10.3913,10.3198,10.2214,10.1713,10.1509,10.13,10.0508,9.9346,9.8276,9.7987,9.7303,9.6685,9.6685,9.6307,9.5726,9.4934,9.4741,9.4586,9.4089,9.4163,9.4482,9.5091,9.4701,9.4391,9.4722,9.45,9.4287,9.4313,9.4554,9.4444,9.3648,9.3814,9.3667,9.2836,9.2473,9.2303,9.2303,9.3065,9.3566,9.3561,9.3556,9.3428,9.3093,9.2556,9.2762,9.3689,9.3978,9.4568,9.5452,9.5008,9.5015,0.0,9.4023,9.9047,9.7438,9.2446,0.0,8.2148,7.4613,0.0,6.5703,6.3975,6.3696,6.6286,6.7928,6.9807,7.2563,7.4325,7.7554,8.3956,9.0347,0.0,0.0,11.7308,0.0,12.1306,12.6201,12.901,12.8206,12.7385,12.6494,12.5702,12.5702,12.5702,12.5702,12.5616,12.5114,12.4287,12.1995,12.0302,11.9399,11.708,11.521,11.3602,11.3604,11.2709,0.0,11.121,11.121,11.1089,11.0298,10.9488,10.8596,10.7887,10.709,10.6297,10.5385,10.4996,10.4996,10.4908,10.4382,10.3709,10.3693,10.271,10.1509,10.1509,10.1509,10.13,10.0596,9.9704,9.8856,9.8163,9.7345,9.6685,9.6685,9.6685,9.6473,9.568,9.5547,9.5585,9.5513,9.4934,9.4934,9.6432,9.5473,9.4727,9.5473,9.4934,9.4468,9.4464,9.5118,9.5276,9.4481,9.5069,9.5156,9.4361,9.3616,9.318,9.318,9.3952,9.4379,9.4374,9.4391,9.4044,9.329,9.3285,9.3221,9.3184,9.3786,9.4124,9.418,9.4083,9.4041,7.0154,0.0,7.8918,7.7303,7.5311,7.3107,0.0,6.8088,6.5809,6.4643,0.0,6.4929,6.8572,6.9069,7.0904,7.7071,7.8921,8.1383,8.6616,0.0,0.0,0.0,0.0,12.7497,12.5697,12.7785,12.9009,12.8185,12.7389,12.6494,12.5702,12.5702,12.5702,12.5702,12.4495,12.3497,12.2701,12.0792,11.9187,11.7701,11.6582,11.521,11.3602,11.3604,11.2709,11.121,11.121,11.0883,11.0298,11.0093,10.9205,10.7903,10.7709,10.709,10.6213,10.4714,10.4205,10.4085,10.35,10.2713,10.2082,10.2114,10.1801,10.1509,10.1509,10.1092,10.0716,10.1092,9.9742,9.8263,9.8692,9.776,9.6685,9.6685,9.6685,9.6473,9.568,9.5974,9.6224,9.5621,9.5851,9.6266,9.6639,9.639,9.6183,9.639,9.6266,9.6156,9.613,9.6301,9.6112,9.5294,9.538,9.5159,9.4378,9.4113,9.4011,9.4011,9.4766,9.5219,9.5234,9.5224,9.5148,9.4926,9.4881,9.4839,9.4839,9.4395,9.4461,9.4981,9.38,9.3567,6.2287,6.7376,7.2296,7.1426,7.0311,6.9118,6.7869,6.5244,0.0,0.0,0.0,6.3538,6.7222,6.8158,7.0259,7.6043,7.8633,8.3269,0.0,0.0,0.0,12.3407,12.6399,12.7813,0.0,12.8117,12.8009,12.7616,12.6782,12.6199,12.5702,12.5702,12.5494,12.52,12.3619,12.2501,12.2111,12.0086,11.8382,11.7202,11.5999,11.4797,11.3602,11.3186,11.2419,11.121,11.121,11.1005,11.0483,10.9811,10.8911,10.8088,10.7295,10.6796,10.6213,10.4887,10.4498,10.429,10.35,10.2684,10.1982,10.16,10.1509,10.1384,10.1092,10.0388,9.9844,10.0284,9.9451,9.8396,9.8086,9.7345,9.6685,9.6685,9.6685,9.6598,9.6141,9.639,9.6561,9.6141,9.639,9.6685,9.6685,9.6685,9.6847,9.7184,9.7262,9.7262,9.7262,9.7262,9.6934,9.6141,9.6058,9.5851,9.5436,9.5402,9.5248,9.487,9.5596,9.6058,9.6058,9.6058,9.5892,9.5514,9.5089,9.4912,9.4875,9.4456,9.4269,9.4259,9.3428,9.3056,5.9742,6.601,7.1901,7.0886,7.0,6.9042,6.7886,0.0,0.0,0.0,0.0,0.0,0.0,6.7716,0.0,7.432,7.8371,0.0,10.1089,10.7093,11.3489,12.3185,12.4796,0.0,12.828,12.7594,12.6918,12.6916,12.6199,12.5702,12.5702,12.5702,12.5285,12.4287,12.2806,12.1794,12.1508,11.9305,11.7786,11.6789,11.5501,11.4286,11.3403,11.2717,11.2002,11.121,11.121,11.1089,11.07,10.9411,10.8687,10.8293,10.6885,10.6386,10.6297,10.5301,10.4912,10.4785,10.3898,10.3212,10.2506,10.1593,10.1384,10.13,10.0388,9.9724,9.9224,9.8995,9.8839,9.8438,9.7212,9.6805,9.6685,9.6685,9.6685,9.6685,9.6685,9.6685,9.6685,9.6685,9.6685,9.6727,9.6851,9.6888,9.7142,9.7968,9.8081,9.8043,9.7918,9.8013,9.7724,9.6805,9.693,9.6971,9.6722,9.6805,9.6556,9.5726,9.6307,9.6685,9.6685,9.6685,9.639,9.5685,9.5017,9.4681,9.4681,9.4557,9.4131,9.3456,9.3322,9.2817,6.3211,6.7356,6.9137,6.3618,6.4164,6.5297,6.2385,0.0,0.0,0.0,0.0,0.0,0.0,7.27,7.5338,0.0,0.0,9.6286,0.0,0.0,11.7,12.2807,0.0,12.6904,12.5412,12.6185,12.6916,12.6898,12.6199,12.5702,12.5702,12.5702,12.4991,12.3497,12.1885,12.0403,11.9009,11.7916,11.6582,11.521,11.4918,11.3985,11.2615,11.2512,11.2002,11.121,11.121,11.0382,10.9097,10.8916,10.7999,10.6712,10.6507,10.6386,10.6213,10.4714,10.4096,10.3913,10.238,10.2214,10.2506,10.1008,10.0888,10.1217,9.9721,9.9673,9.9842,9.8453,9.7592,9.718,9.7616,9.722,9.6685,9.6685,9.6685,9.6685,9.6685,9.6685,9.6685,9.6685,9.6685,9.693,9.7594,9.7719,9.7973,9.88,9.892,9.865,9.7984,9.8499,9.8342,9.6851,9.7927,9.8176,9.681,9.7308,9.7386,9.6561,9.6639,9.6685,9.6685,9.6685,9.6639,9.6515,9.639,9.6349,9.6349,9.5643,9.5263,9.5122,9.4437,9.3667,6.0736,6.4046,6.613,6.3157,6.6487,6.9748,6.6929,0.0,0.0,0.0,0.0,0.0,0.0,0.0,8.1573,0.0,0.0,10.2901,11.0693,11.381,11.7298,0.0,0.0,12.5103,12.5684,12.6113,12.6285,12.6285,12.5905,12.5702,12.5702,12.5285,12.4287,12.2701,12.1095,11.9203,11.7117,11.6301,11.5512,11.4797,11.3898,11.3107,11.2419,11.188,11.1506,11.121,11.0715,11.0093,10.9403,10.8518,10.7697,10.7006,10.6591,10.6386,10.6287,10.5483,10.4408,10.3199,10.2912,10.2513,10.1885,10.1217,10.1209,10.131,10.0089,9.9681,9.9419,9.8222,9.7636,9.7345,9.7267,9.6976,9.6685,9.6685,9.6685,9.6685,9.6685,9.6685,9.6685,9.6685,9.7054,9.7469,9.7843,9.8246,9.8802,9.963,9.9763,9.9596,9.9221,9.9505,9.9295,9.8119,9.8665,9.8625,9.7444,9.7676,9.7557,9.6764,9.6685,9.6685,9.6685,9.6685,9.6685,9.6685,9.6685,9.6685,9.6685,9.6349,9.5934,9.5482,9.5122,9.4519,5.9632,6.2128,6.4563,6.5334,6.9265,7.2803,7.2276,0.0,0.0,0.0,0.0,0.0,0.0,8.138,0.0,9.8851,10.4184,10.8687,11.3112,11.5488,11.8489,12.3289,12.3289,12.3907,12.6408,12.6113,12.5702,12.5702,12.5494,12.5409,12.5385,12.4491,12.3206,12.1603,12.0094,11.8203,11.5686,11.4917,11.4419,11.4194,11.3014,11.2298,11.2086,11.1506,11.1089,11.0883,11.0298,10.9816,10.931,10.8113,10.7505,10.7295,10.6591,10.6208,10.5799,10.5599,10.4301,10.2803,10.3185,10.2687,10.1686,10.1105,10.119,10.1213,9.9863,9.9306,9.8899,9.7912,9.7636,9.7474,9.6851,9.6685,9.6685,9.6685,9.6685,9.6685,9.6685,9.6685,9.6685,9.6685,9.7348,9.7964,9.8161,9.8853,9.9637,10.0508,10.0596,10.0508,10.0304,10.0495,10.0198,9.9209,9.926,9.8965,9.7976,9.7743,9.735,9.6727,9.6685,9.6685,9.6685,9.6685,9.6685,9.6685,9.6685,9.6685,9.6685,9.6685,9.639,9.5768,9.5768,9.5342,6.4453,6.5558,6.5917,6.8919,6.8375,0.0,7.3503,7.2756,0.0,0.0,0.0,0.0,0.0,8.8724,9.676,10.3611,10.9305,11.489,12.0503,0.0,12.3411,12.5285,12.5494,12.5494,12.5788,12.5702,12.5702,12.5702,12.4991,12.4619,12.4587,12.3113,12.1493,11.9802,11.8912,11.7306,11.4901,11.4104,11.3316,11.2586,11.2487,11.2002,11.13,11.121,11.0799,11.0093,11.0008,10.9201,10.7794,10.7615,10.7211,10.6507,10.6386,10.5385,10.4011,10.3205,10.2918,10.2598,10.1904,10.2105,10.2202,10.0014,10.0293,10.0897,9.7859,9.7975,9.8787,9.7209,9.6805,9.6764,9.6722,9.6685,9.6685,9.6685,9.6685,9.6685,9.6685,9.6685,9.6685,9.6685,9.7352,9.8148,9.888,9.9694,10.0508,10.13,10.1384,10.1092,10.0388,10.0997,10.0793,9.9268,9.976,9.9576,9.8013,9.7206,9.6764,9.6685,9.6685,9.6685,9.6685,9.6685,9.6685,9.6685,9.6685,9.6685,9.6685,9.6685,9.6681,9.6602,9.6602,9.6194,6.0507,6.3226,6.5831,6.8062,0.0,0.0,0.0,0.0,0.0,0.0,0.0,0.0,0.0,0.0,10.2397,10.7285,11.3297,11.8397,12.1705,12.3705,12.4991,12.5616,12.5702,12.5702,12.5702,12.52,12.4991,12.4991,12.4201,12.3511,12.3008,12.1983,12.0587,11.8906,11.7614,11.5994,11.411,11.329,11.2419,11.1711,11.1711,11.1506,11.1216,11.0694,11.0296,10.989,10.8904,10.8187,10.7589,10.709,10.6712,10.6313,10.5783,10.489,10.389,10.36,10.279,10.2019,10.2189,10.2094,10.1811,10.089,10.0696,10.0603,9.9909,9.9416,9.9061,9.8956,9.8589,9.7965,9.6974,9.6685,9.6685,9.6685,9.6685,9.6685,9.6685,9.7078,9.7437,9.7437,9.8491,9.9492,9.9793,10.0508,10.1092,10.1509,10.1509,10.1384,10.1092,10.13,10.13,10.0716,10.0387,10.0112,9.9448,9.8195,9.7432,9.7461,9.6984,9.6685,9.6685,9.6685,9.6685,9.6685,9.6685,9.6685,9.6685,9.6685,9.6685,9.6685,9.6685,9.6534,5.7933,6.0834,6.4269,0.0,0.0,0.0,0.0,0.0,0.0,0.0,0.0,0.0,0.0,0.0,0.0,0.0,11.5509,12.0602,12.2182,12.4287,12.5616,12.5408,12.5285,12.5408,12.5702,12.4703,12.4092,12.4099,12.3108,12.2197,12.14,12.0091,11.8789,11.7699,11.6094,11.4605,11.3198,11.2715,11.1983,11.121,11.121,11.121,11.1216,11.0415,10.9901,10.9496,10.819,10.7504,10.7211,10.6591,10.6213,10.5899,10.4798,10.3994,10.3492,10.3187,10.2381,10.1593,10.2094,10.2005,10.1384,10.0888,10.0683,10.0586,10.0104,9.9749,9.9499,9.9541,9.9147,9.8533,9.7684,9.7474,9.7383,9.7123,9.7255,9.7373,9.7148,9.7723,9.8266,9.8266,9.9365,10.03,10.0291,10.0992,10.1509,10.1509,10.1509,10.1509,10.1509,10.1509,10.1509,10.1509,10.08,10.0291,10.0307,9.9074,9.8178,9.7902,9.7388,9.6942,9.6722,9.6685,9.6685,9.6685,9.6685,9.6685,9.6685,9.6685,9.6685,9.6685,9.6685,9.6685,5.8203,5.9211,6.1258,0.0,0.0,0.0,0.0,0.0,0.0,0.0,0.0,0.0,0.0,0.0,0.0,10.8292,11.5603,12.1396,12.3094,12.4703,12.5414,12.4617,12.4495,12.4789,12.5586,12.4207,12.3297,12.3289,12.1791,12.0503,11.9594,11.7299,11.6008,11.5984,11.4401,11.3209,11.2413,11.2393,11.2018,11.121,11.121,11.121,11.121,11.0382,10.9592,10.8802,10.7887,10.7103,10.6386,10.6386,10.5888,10.4892,10.3305,10.2689,10.2619,10.1804,10.1509,10.1509,10.1509,10.1509,10.1217,9.9637,10.0216,10.0885,9.7713,9.8388,9.9933,9.8373,9.7904,9.809,9.8899,9.9127,9.8902,9.8081,9.8506,9.8868,9.8068,9.8528,9.9098,9.9098,9.9764,10.0283,10.0283,10.0995,10.1509,10.1509,10.1509,10.1509,10.1509,10.1509,10.1509,10.1509,10.08,10.0298,10.0309,9.9557,9.8782,9.7975,9.7906,9.7539,9.6722,9.6685,9.6685,9.6685,9.6685,9.6685,9.6685,9.6685,9.6685,9.6722,9.6685,9.6685,5.8537,6.1285,0.0,0.0,0.0,0.0,0.0,9.489,0.0,0.0,0.0,0.0,0.0,0.0,0.0,10.9515,11.4998,11.9687,12.1388,12.2998,12.3903,12.3699,12.3705,12.3486,12.3199,12.2209,12.1414,12.0711,11.9703,11.8508,11.7096,11.6391,11.5491,11.4285,11.3294,11.2587,11.2419,11.1783,11.1403,11.121,11.0593,11.0715,11.121,10.9797,10.9011,10.8712,10.7407,10.6595,10.6386,10.5715,10.5316,10.4909,10.3305,10.2699,10.2619,10.1804,10.1092,10.0716,10.13,10.1092,10.0716,10.08,10.0311,9.9759,9.9369,9.8941,9.8614,9.871,9.9155,9.9653,9.9872,10.0396,10.0398,9.9064,9.8934,9.9025,9.8795,9.9387,9.9952,9.9952,10.0618,10.1095,10.1095,10.1315,10.1509,10.1509,10.2018,10.2296,10.2296,10.2296,10.2081,10.1582,10.1804,10.1804,10.121,10.0414,9.9822,9.959,9.9071,9.8112,9.6759,9.6685,9.6685,9.6685,9.6685,9.6685,9.6685,9.6685,9.6979,9.7534,9.6942,9.7016,5.9948,6.3359,0.0,0.0,0.0,0.0,0.0,0.0,0.0,0.0,0.0,10.8406,10.791,10.9008,0.0,11.0381,11.4899,11.8781,11.9803,12.1298,12.2196,12.1904,12.1787,12.1806,12.1596,12.0595,11.9704,11.9198,11.8098,11.691,11.5586,11.4909,11.4112,11.32,11.2298,11.1796,11.1385,11.13,11.0883,11.0214,11.0093,11.0102,11.0181,10.8885,10.8304,10.8191,10.6612,10.5715,10.5301,10.4509,10.4106,10.3987,10.2694,10.2188,10.2199,10.1709,10.1217,10.0783,10.099,10.0898,10.0716,10.0216,9.9843,9.9489,9.8997,9.8648,9.8419,9.8582,9.922,9.9913,10.0202,10.07,10.0805,9.9807,9.9812,9.9989,9.9654,10.0209,10.0806,10.0806,10.1215,10.1509,10.1509,10.1509,10.1614,10.1903,10.271,10.3182,10.3182,10.2884,10.259,10.2495,10.2307,10.2201,10.2018,10.12,10.0613,10.0319,9.9837,9.8993,9.7708,9.7346,9.7016,9.6722,9.6685,9.6685,9.6685,9.7017,9.7274,9.7424,9.7234,9.7271,6.2202,0.0,0.0,7.837,8.5213,0.0,0.0,0.0,0.0,0.0,0.0,11.05,11.05,11.0402,11.0709,11.1382,11.5202,11.8107,11.8196,11.9489,12.0184,11.9392,11.9307,11.9599,12.0392,11.9094,11.82,11.8115,11.6704,11.5518,11.46,11.3211,11.2419,11.2298,11.1506,11.0715,11.0008,11.0711,11.0216,10.8802,10.9504,10.9402,10.8693,10.7918,10.7498,10.73,10.5715,10.4609,10.3819,10.2987,10.2688,10.2506,10.1801,10.1509,10.1384,10.1509,10.1509,10.1314,10.0605,10.0804,10.0897,9.8815,9.8996,9.9679,9.7483,9.7843,9.8836,9.8128,9.8539,9.9367,10.0108,10.0393,10.0399,10.0391,10.1008,10.1289,10.0586,10.099,10.1509,10.1509,10.1509,10.1509,10.1509,10.1509,10.1803,10.2595,10.3298,10.3696,10.389,10.3214,10.2994,10.3812,10.249,10.1903,10.2585,10.1981,10.121,10.0513,10.0393,10.0016,9.9235,9.8374,9.7571,9.6832,9.6827,9.6827,9.6795,9.7612,9.7685,9.7052,9.7626,9.7562,6.4236,6.7594,0.0,0.0,9.403,10.4014,10.9801,11.1787,11.2687,11.391,11.4415,11.45,11.3918,11.381,11.3802,11.4012,11.4901,11.5814,11.6402,11.6797,11.6984,11.6814,11.6814,11.6814,11.6984,11.6694,11.629,11.5586,11.5294,11.4394,11.3019,11.258,11.2086,11.1506,11.0715,11.0214,11.0008,10.9515,10.9104,10.8802,10.8284,10.7998,10.7915,10.7698,10.6911,10.561,10.4586,10.4106,10.3818,10.2992,10.23,10.1713,10.1593,10.1092,10.0596,10.13,10.1092,10.0606,10.1108,10.0505,9.9615,9.9743,9.9154,9.8314,9.7819,9.7885,9.8109,9.7947,9.894,10.0086,10.0283,10.0793,10.1189,10.119,10.1384,10.1514,10.1289,10.1399,10.1509,10.1509,10.1509,10.1509,10.1509,10.1509,10.1803,10.2595,10.2301,10.25,10.3696,10.3214,10.2994,10.3812,10.2994,10.2517,10.27,10.1981,10.1394,10.1289,10.121,10.0887,10.0114,9.8675,9.7833,9.7645,9.7652,9.7652,9.7649,9.8462,9.9096,9.9505,9.8396,9.8161,6.6407,0.0,0.0,9.1311,0.0,10.8887,11.1711,11.2416,11.2597,11.3384,11.4601,11.521,11.4415,11.4513,11.4491,11.3802,11.4002,11.4406,11.4799,11.4898,11.4901,11.4912,11.4881,11.4881,11.4881,11.4911,11.4706,11.4294,11.39,11.331,11.2408,11.2002,11.159,11.121,11.0382,10.9818,10.9409,10.9008,10.8219,10.7,10.6984,10.6591,10.5799,10.6213,10.55,10.3885,10.3487,10.2882,10.2094,10.1713,10.1092,10.0403,10.0399,10.0104,9.9804,10.0596,10.0716,10.0304,10.0304,10.0111,9.9544,9.8817,9.8542,9.8389,9.8014,9.8176,9.8463,9.8462,9.9346,10.0304,10.0304,10.0888,10.1509,10.1509,10.1509,10.1509,10.1509,10.1509,10.1509,10.1509,10.1509,10.1509,10.1509,10.1793,10.2301,10.3188,10.3214,10.3508,10.4394,10.409,10.3686,10.3408,10.3004,10.2512,10.2201,10.1682,10.1509,10.1509,10.1509,10.13,10.0888,9.9717,9.8878,9.8477,9.8479,9.8479,9.8477,9.9269,9.9684,9.9696,9.8851,9.8506,6.7184,0.0,8.5067,9.9183,10.6384,0.0,11.188,11.2207,11.2419,11.3206,11.4002,11.4415,11.3712,11.4018,11.4014,11.2781,11.2901,11.3184,11.3387,11.3288,11.3197,11.3189,11.3206,11.3206,11.3412,11.3401,11.3403,11.3403,11.2805,11.2298,11.2002,11.1385,11.0883,11.0799,11.0008,10.9306,10.8582,10.8293,10.709,10.5096,10.571,10.5086,10.3499,10.4206,10.3786,10.2506,10.2214,10.13,10.0101,10.0088,9.9618,9.8908,9.9044,9.9008,9.8993,9.9784,10.0114,10.0007,9.9341,9.9438,9.9552,9.7566,9.7719,9.8577,9.8052,9.8449,9.9125,9.9279,9.9887,10.0508,10.0508,10.1008,10.1509,10.1509,10.1619,10.1688,10.1688,10.1798,10.1913,10.1682,10.1619,10.1509,10.1509,10.2091,10.2815,10.3591,10.409,10.4598,10.4997,10.4708,10.4085,10.3209,10.2695,10.2307,10.1803,10.1582,10.1509,10.1509,10.1614,10.1688,10.1688,10.11,10.0399,9.9716,9.9458,9.9311,9.9313,9.9968,9.9959,9.9298,9.9016,9.8523,6.3499,0.0,9.1342,0.0,10.6384,11.0214,0.0,0.0,11.159,0.0,11.3209,11.3712,11.3585,11.3093,11.2897,11.3406,11.2391,11.1786,11.2498,11.2006,11.1515,11.15,11.1506,11.1796,11.2503,11.2617,11.2589,11.2589,11.2512,11.1796,11.0382,11.0214,10.9797,10.9092,10.8302,10.789,10.7794,10.6297,10.5385,10.5096,10.4486,10.3414,10.1794,10.1919,10.1908,10.1593,10.0216,9.9471,9.9251,9.9275,9.8801,9.814,9.8822,9.8683,9.8177,9.8967,9.9243,9.9221,9.9138,9.8711,9.8187,9.7829,9.7428,9.7116,9.771,9.8469,9.9249,9.9944,10.0716,10.13,10.13,10.1384,10.1509,10.1509,10.2008,10.2517,10.2517,10.3109,10.3413,10.2705,10.2018,10.1509,10.1509,10.1619,10.1903,10.27,10.2385,10.2705,10.4819,10.3298,10.271,10.4604,10.2889,10.1903,10.2485,10.1903,10.1509,10.1509,10.2201,10.2517,10.2517,10.2401,10.2286,10.2203,10.0917,10.0099,10.0116,10.0209,10.0209,10.0089,9.8696,9.7985,7.0088,8.0915,9.1538,10.0995,10.5694,10.8508,11.0715,11.121,11.13,11.1711,11.1984,11.2394,11.2811,11.2587,11.2419,11.2298,11.1711,11.1315,11.1707,11.1383,11.121,11.121,11.121,11.13,11.1711,11.1289,11.1107,11.1107,11.0606,11.0098,10.9392,10.9285,10.921,10.88,10.8005,10.7392,10.6917,10.5709,10.4382,10.3094,10.2313,10.1285,10.0101,9.9673,9.9735,10.0105,9.9402,9.8824,9.8418,9.8431,9.7968,9.7262,9.7636,9.7553,9.7345,9.8134,9.8434,9.8445,9.8445,9.8193,9.7843,9.7386,9.7303,9.7441,9.7792,9.8781,9.9846,10.0216,10.0888,10.1509,10.1509,10.1509,10.1614,10.2086,10.2809,10.3485,10.3906,10.4005,10.3701,10.2889,10.2091,10.1509,10.1509,10.1509,10.1908,10.3188,10.3119,10.3408,10.4897,10.4205,10.3586,10.3681,10.281,10.2081,10.2008,10.1688,10.1688,10.2113,10.2517,10.27,10.27,10.27,10.2485,10.2008,10.1315,10.0995,10.0995,10.1005,10.0701,10.0302,9.9098,9.8337,7.2889,8.0522,8.7307,9.7632,10.2708,10.6,10.9213,11.0509,11.1005,11.121,11.1005,11.1089,11.1711,11.1796,11.1711,11.13,11.0883,11.0715,11.0883,11.068,11.0586,11.0606,11.0581,11.0592,11.0592,11.0011,10.9593,10.9411,10.8807,10.8311,10.7897,10.8103,10.8004,10.7589,10.7211,10.6486,10.5498,10.4396,10.2994,10.1209,10.0411,9.9561,9.8766,9.8161,9.8134,9.8467,9.8259,9.7968,9.7594,9.7386,9.7054,9.6685,9.6685,9.6685,9.6764,9.7386,9.7594,9.7594,9.7594,9.7594,9.7511,9.6893,9.71,9.7636,9.7843,9.8866,10.0011,10.0189,10.0888,10.1509,10.1509,10.1509,10.1698,10.2515,10.3312,10.4088,10.4918,10.4509,10.3713,10.289,10.2113,10.1593,10.1801,10.1593,10.2107,10.39,10.388,10.4017,10.5301,10.4897,10.409,10.3104,10.259,10.2201,10.1587,10.1688,10.2091,10.2705,10.2889,10.2994,10.2994,10.2805,10.2406,10.1793,10.1619,10.1394,10.121,10.099,10.0513,9.9664,9.8858,9.8293,6.4905,7.1306,7.7936,8.7719,9.6002,10.2609,10.5916,10.8387,11.0298,11.1005,11.0593,11.0093,11.0093,11.0093,11.0382,11.1089,10.9887,10.9213,11.0008,10.9399,10.8882,10.8895,10.8907,10.8903,10.8903,10.8897,10.8515,10.7799,10.7715,10.6999,10.541,10.6109,10.5799,10.4216,10.4887,10.4486,10.2908,10.1292,10.0495,10.0416,9.9553,9.8739,9.7976,9.7917,9.7511,9.6768,9.6017,9.61,9.6685,9.5934,9.6058,9.6685,9.6685,9.6685,9.6722,9.6764,9.6764,9.6764,9.6764,9.6764,9.6764,9.6722,9.6722,9.6893,9.7677,9.8472,9.9329,10.0089,10.0888,10.1509,10.1509,10.1509,10.1713,10.2496,10.3291,10.4116,10.4903,10.4483,10.3714,10.2897,10.2109,10.1713,10.2506,10.2005,10.2289,10.4715,10.3702,10.3599,10.5993,10.4284,10.3109,10.3812,10.2495,10.1499,10.1509,10.2191,10.2705,10.27,10.3403,10.3806,10.3806,10.3104,10.27,10.2585,10.1908,10.11,10.0398,9.9617,9.8814,9.8016,9.7204,9.7204,6.2614,6.7521,7.3379,8.3132,9.004,9.5767,10.0583,10.4798,10.7797,10.8092,10.8713,10.9185,10.921,10.92,10.9306,10.9594,10.92,10.8691,10.8516,10.8707,10.8591,10.8095,10.8515,10.8799,10.8799,10.7907,10.7099,10.6911,10.5799,10.4984,10.4407,10.4587,10.4499,10.3892,10.3701,10.2789,10.1191,10.0115,9.9284,9.8756,9.8459,9.7918,9.7137,9.7137,9.6679,9.5885,9.5079,9.5469,9.6621,9.5841,9.5975,9.6685,9.6685,9.6685,9.6685,9.6685,9.6685,9.6685,9.6685,9.6685,9.6685,9.6685,9.6685,9.6764,9.7054,9.8056,9.9146,9.9434,10.049,10.1509,10.1509,10.1509,10.1713,10.2506,10.4099,10.5311,10.4489,10.4494,10.441,10.3618,10.3191,10.3086,10.3416,10.3179,10.349,10.4905,10.459,10.4813,10.6198,10.4693,10.3597,10.3905,10.2489,10.1688,10.2191,10.2517,10.3094,10.42,10.4493,10.4389,10.388,10.3586,10.3004,10.1981,10.1609,10.1404,10.11,10.0288,9.947,9.8663,9.7836,9.7363,5.9585,0.0,0.0,7.8188,8.3373,8.8286,9.6442,10.0589,10.3419,10.5503,10.6603,10.7284,10.7904,10.7307,10.7084,10.8204,10.7717,10.7084,10.6801,10.7006,10.6995,10.6407,10.7109,10.7482,10.7183,10.6198,10.5385,10.5207,10.3586,10.2689,10.2698,10.2708,10.2721,10.2714,10.1607,10.0701,9.9909,9.8831,9.8029,9.7491,9.7207,9.6657,9.5881,9.5881,9.5603,9.5049,9.4234,9.4655,9.5838,9.5032,9.5349,9.6307,9.6307,9.6473,9.6685,9.6685,9.6685,9.6685,9.6685,9.6685,9.6685,9.6685,9.6685,9.6685,9.6685,9.7826,9.9107,9.9107,10.0294,10.1509,10.1509,10.1713,10.199,10.2583,10.4188,10.5211,10.3808,10.409,10.4491,10.3719,10.3513,10.3616,10.3909,10.3911,10.432,10.5381,10.5315,10.5385,10.6313,10.5217,10.4185,10.3895,10.2698,10.21,10.2688,10.2883,10.3696,10.4981,10.4814,10.4484,10.3897,10.3414,10.2605,10.1504,10.1509,10.1509,10.1509,10.0411,9.9467,9.867,9.7882,9.7503,0.0,0.0,0.0,7.2284,7.5793,8.0462,9.3207,9.5545,9.6919,10.3394,10.4111,10.4096,10.5988,10.4316,10.3698,10.6917,10.5411,10.4111,10.4902,10.4313,10.3884,10.3795,10.4489,10.4688,10.3906,10.3806,10.3518,10.27,10.1205,10.0288,10.0288,10.0312,10.0315,10.0186,9.8726,9.8275,9.9008,9.7448,9.6649,9.6649,9.5855,9.5056,9.4288,9.4288,9.4289,9.4235,9.3456,9.3515,9.4182,9.3423,9.4033,9.5455,9.5482,9.5975,9.6681,9.6681,9.6685,9.6685,9.6685,9.6685,9.6685,9.6685,9.6685,9.6685,9.6722,9.7855,9.9098,9.9135,10.0288,10.1509,10.1509,10.2094,10.2702,10.2697,10.3306,10.3695,10.2901,10.3311,10.3587,10.2903,10.2694,10.3012,10.3802,10.4007,10.4509,10.6213,10.5715,10.5385,10.6297,10.5594,10.4798,10.4016,10.3201,10.271,10.2799,10.3494,10.4292,10.5084,10.4415,10.3892,10.3897,10.2398,10.1504,10.1509,10.1509,10.1509,10.1509,9.9924,9.8728,9.7958,9.7132,9.7589,5.4823,0.0,0.0,0.0,0.0,0.0,8.0056,8.3472,8.7364,9.5609,9.6643,9.7631,10.2806,10.2199,10.1507,10.2888,10.3102,10.27,10.1786,10.289,10.3484,10.23,10.289,10.3294,10.3083,10.1984,10.1208,10.1012,9.9984,9.9433,9.9433,9.9441,9.9172,9.8565,9.815,9.7741,9.737,9.6352,9.5828,9.5832,9.5012,9.453,9.4317,9.4291,9.3965,9.3423,9.3198,9.2886,9.2505,9.2923,9.3704,9.4673,9.5266,9.5643,9.5892,9.6478,9.6685,9.6685,9.6685,9.6685,9.6685,9.6685,9.6685,9.6827,9.7386,9.8276,9.9208,9.9805,10.0283,10.0598,10.0611,10.1713,10.2612,10.2013,10.2916,10.3694,10.289,10.2916,10.3009,10.2684,10.3607,10.4489,10.4703,10.5301,10.5883,10.6297,10.6213,10.6093,10.6386,10.5594,10.4992,10.4803,10.3988,10.3792,10.441,10.461,10.5085,10.5988,10.5206,10.4499,10.3907,10.2916,10.2108,10.1504,10.1509,10.1509,10.1509,10.0508,9.9851,9.9608,9.8228,9.8105,0.0,0.0,0.0,0.0,0.0,0.0,7.5225,7.7551,8.0569,8.9856,9.1666,9.3232,9.8686,9.867,9.8186,9.931,9.9887,10.0087,9.9829,10.0991,10.1495,10.0616,10.1189,10.1409,10.0785,10.0216,9.9666,9.9335,9.8543,9.8112,9.8112,9.7774,9.7375,9.6906,9.6554,9.6155,9.5699,9.5241,9.4832,9.4474,9.4006,9.3602,9.3244,9.3244,9.3015,9.2579,9.2569,9.2266,9.1849,9.2349,9.3056,9.386,9.4687,9.5184,9.5602,9.639,9.6685,9.6685,9.6685,9.6685,9.6685,9.6685,9.6685,9.6791,9.7248,9.8188,9.9205,9.9651,10.0304,10.0713,10.0411,10.1205,10.2094,10.1593,10.2214,10.2799,10.2297,10.2214,10.2297,10.259,10.3699,10.4603,10.4588,10.5594,10.6386,10.6386,10.6386,10.6386,10.6386,10.6009,10.551,10.5096,10.4698,10.4505,10.4604,10.4894,10.5206,10.5317,10.4897,10.4205,10.3391,10.2895,10.2287,10.1504,10.1801,10.1801,10.1509,10.0716,10.0109,9.9776,9.8493,9.8337,0.0,0.0,0.0,0.0,0.0,0.0,7.4353,7.4785,7.5647,8.4932,8.7436,8.9292,9.3753,9.4022,9.4063,9.5404,9.5926,9.6763,9.8467,9.8942,9.9034,9.8836,9.9541,9.9444,9.7911,9.84,9.8488,9.7682,9.7065,9.6649,9.658,9.5873,9.5465,9.535,9.4666,9.4309,9.4309,9.4194,9.3822,9.3083,9.301,9.2537,9.1808,9.1808,9.1808,9.1808,9.1808,9.1808,9.1808,9.1808,9.2266,9.3051,9.3841,9.4655,9.5473,9.6266,9.6639,9.6685,9.6685,9.6685,9.6685,9.6685,9.6685,9.6722,9.6818,9.7816,9.8987,9.9063,10.0191,10.1215,10.0508,10.0917,10.1509,10.1509,10.1509,10.1504,10.1614,10.1582,10.1713,10.2486,10.328,10.3912,10.4002,10.5311,10.6386,10.6386,10.6386,10.6386,10.6386,10.6386,10.6093,10.5301,10.5217,10.5002,10.4189,10.4695,10.4797,10.4089,10.3906,10.3386,10.2705,10.2606,10.2183,10.1504,10.2214,10.2219,10.1399,10.0685,9.9981,9.9219,9.8489,9.8548,0.0,0.0,0.0,0.0,0.0,0.0,6.5119,6.6952,7.0686,7.7148,7.8587,8.0732,8.7423,8.9052,8.9289,8.8956,9.1079,9.3566,9.5864,9.7878,9.8604,9.7317,9.7889,9.7992,9.7028,9.707,9.6836,9.6039,9.6417,9.6401,9.5774,9.5589,9.5208,9.4556,9.4377,9.4309,9.4309,9.3675,9.3272,9.3083,9.2391,9.1955,9.1808,9.1808,9.1808,9.1808,9.1808,9.1808,9.1808,9.1808,9.189,9.2143,9.301,9.3827,9.4639,9.5436,9.6141,9.6685,9.6685,9.6685,9.6685,9.6685,9.6685,9.6818,9.7469,9.7877,9.8271,9.8935,9.9806,10.0491,10.0283,10.0917,10.1509,10.1509,10.1509,10.1693,10.2301,10.1981,10.1682,10.2517,10.3292,10.4104,10.4791,10.571,10.6386,10.6386,10.6386,10.6386,10.6386,10.6386,10.6297,10.6213,10.6093,10.6088,10.592,10.5408,10.5007,10.489,10.3714,10.2916,10.271,10.2095,10.1714,10.1509,10.1713,10.1299,10.0503,10.1007,10.0885,10.0117,9.9917,9.9936,0.0,0.0,0.0,6.3638,0.0,0.0,0.0,6.4366,6.6475,7.2978,7.334,7.4491,8.0963,8.2164,8.2706,8.4328,8.6961,8.9375,9.1019,9.4392,9.6425,9.5585,9.5851,9.5805,9.4976,9.529,9.5327,9.4926,9.527,9.5333,9.4937,9.4533,9.4134,9.3712,9.3276,9.3056,9.3056,9.2648,9.2464,9.2464,9.2028,9.1808,9.1808,9.1808,9.1808,9.1808,9.1808,9.1808,9.1808,9.1808,9.1808,9.1927,9.3185,9.369,9.3904,9.5513,9.61,9.6141,9.6556,9.6685,9.6685,9.6685,9.6685,9.6786,9.7173,9.759,9.7993,9.8381,9.9366,10.0206,9.9795,10.0618,10.1509,10.1509,10.1509,10.1614,10.2013,10.1795,10.1691,10.251,10.331,10.4006,10.4389,10.5604,10.6386,10.6386,10.6386,10.6386,10.6386,10.6386,10.6386,10.6386,10.6386,10.6203,10.5815,10.5383,10.4789,10.3999,10.3102,10.2488,10.2089,10.2112,10.2086,10.2086,10.1315,10.0691,10.0283,10.0289,10.0289,10.0283,9.9491,9.9514,0.0,0.0,0.0,0.0,0.0,6.4663,0.0,0.0,0.0,6.9315,6.9226,6.9687,7.4544,7.5036,7.5702,7.8691,8.1835,8.4055,8.4383,8.866,9.2031,9.2803,9.3021,9.298,9.2645,9.2932,9.3451,9.4254,9.3692,9.3574,9.4028,9.3441,9.301,9.2863,9.2175,9.1808,9.1808,9.1808,9.1808,9.1808,9.1808,9.1808,9.1808,9.1808,9.1808,9.1808,9.1808,9.1808,9.1808,9.1808,9.1808,9.1923,9.33,9.3515,9.3341,9.5452,9.5935,9.5636,9.6404,9.6685,9.6685,9.6685,9.6685,9.6685,9.6685,9.7142,9.769,9.7863,9.8939,9.9944,9.9477,10.0419,10.1509,10.1509,10.1509,10.1509,10.1713,10.1701,10.2017,10.2814,10.3611,10.4097,10.4095,10.541,10.6386,10.6386,10.6386,10.6386,10.6386,10.6386,10.6386,10.6386,10.6386,10.6098,10.539,10.5196,10.4515,10.2989,10.2794,10.228,10.1504,10.2081,10.2485,10.2485,10.12,10.0481,10.0312,9.9651,9.9601,10.0011,9.8896,9.908,0.0,0.0,0.0,0.0,7.1024,0.0,0.0,0.0,6.5362,6.3264,0.0,6.6333,6.8414,0.0,0.0,6.8445,7.3289,7.6744,7.5416,7.9409,8.3819,8.7413,8.8445,8.9404,9.0736,8.9697,9.0411,9.4025,9.1611,9.091,9.313,9.3166,9.2748,9.195,9.1845,9.1808,9.1808,9.1808,9.1808,9.1808,9.1808,9.1808,9.1808,9.1808,9.1808,9.1808,9.1808,9.1808,9.1808,9.1808,9.1808,9.1808,9.2001,9.2505,9.3216,9.4197,9.4964,9.5613,9.6433,9.6685,9.6685,9.6685,9.6685,9.6685,9.6685,9.6764,9.6974,9.7711,9.856,9.9399,10.0008,10.082,10.1509,10.1509,10.1509,10.1713,10.2381,10.2612,10.2814,10.3614,10.4402,10.4996,10.4986,10.5794,10.6386,10.6386,10.6386,10.6386,10.6386,10.6386,10.6386,10.6386,10.6386,10.6392,10.6282,10.549,10.4704,10.3801,10.3086,10.2287,10.1509,10.1619,10.1609,10.1609,10.1509,10.0988,10.0286,10.0185,9.9854,9.9256,9.9791,10.0116,0.0,0.0,0.0,0.0,0.0,0.0,6.3097,0.0,6.1726,0.0,0.0,0.0,0.0,0.0,0.0,0.0,6.8541,7.1145,7.094,7.3083,7.7033,8.3448,8.3689,8.4153,8.6224,8.622,8.7023,8.9183,8.8088,8.818,9.0145,9.1139,9.1712,9.1803,9.1808,9.1808,9.1808,9.1808,9.1808,9.1808,9.1808,9.1808,9.1808,9.1808,9.1808,9.1808,9.1808,9.1808,9.1808,9.1808,9.1808,9.1808,9.1808,9.2019,9.2556,9.4335,9.4616,9.4355,9.6103,9.6387,9.6093,9.6534,9.6685,9.6685,9.6685,9.6685,9.6786,9.7109,9.8136,9.9196,9.9519,10.051,10.1509,10.1509,10.1509,10.1593,10.1885,10.2405,10.2802,10.3112,10.4201,10.5101,10.5086,10.5799,10.6386,10.6386,10.6386,10.6386,10.6386,10.6386,10.6386,10.6386,10.6386,10.6386,10.6386,10.5207,10.4284,10.3917,10.3108,10.2305,10.1504,10.1898,10.2018,10.1509,10.0985,10.0596,10.03,9.9827,9.9442,9.9114,9.994,10.0288,7.294,0.0,0.0,0.0,0.0,0.0,0.0,0.0,0.0,0.0,0.0,0.0,0.0,0.0,0.0,0.0,0.0,6.725,6.6956,6.7583,7.0796,7.8007,7.9228,8.034,8.2539,8.2863,8.3664,8.5334,8.4236,8.4771,8.7704,8.8997,9.0186,9.1432,9.1684,9.1808,9.1808,9.1808,9.1808,9.1808,9.1808,9.1808,9.1808,9.1808,9.1808,9.1808,9.1808,9.1808,9.1808,9.1808,9.1808,9.1808,9.1808,9.1808,9.2065,9.4107,9.4107,9.3414,9.5616,9.613,9.5942,9.6497,9.6685,9.6685,9.6685,9.6685,9.6685,9.6685,9.7691,9.8824,9.9044,10.0118,10.1217,10.1384,10.1509,10.1509,10.1509,10.2093,10.2703,10.2689,10.3808,10.4803,10.5112,10.5788,10.6386,10.6386,10.6386,10.6386,10.6386,10.6386,10.6386,10.6386,10.6386,10.6386,10.6386,10.5285,10.4483,10.421,10.3302,10.239,10.1914,10.2186,10.2086,10.1509,10.0912,10.0613,10.0613,10.0008,9.9621,9.9447,9.9992,10.0293,0.0,0.0,0.0,6.9986,0.0,0.0,0.0,0.0,6.6536,0.0,0.0,0.0,0.0,0.0,0.0,0.0,0.0,0.0,0.0,6.2526,6.4908,6.9891,7.5328,7.9274,8.0906,7.9694,8.0434,8.4348,8.0262,8.0348,8.6712,8.7074,8.8185,9.0562,9.1391,9.1808,9.1808,9.1808,9.1808,9.1808,9.1808,9.1808,9.1808,9.1808,9.1808,9.1808,9.1808,9.1808,9.1808,9.1808,9.1808,9.1808,9.1808,9.1808,9.1918,9.2827,9.3157,9.334,9.4987,9.6015,9.6685,9.6681,9.6685,9.6685,9.6685,9.6685,9.6685,9.6685,9.7303,9.8116,9.8915,9.9721,10.0508,10.13,10.1509,10.1509,10.1509,10.2084,10.2681,10.2708,10.3414,10.4184,10.4986,10.581,10.6386,10.6386,10.6386,10.6386,10.6386,10.6386,10.6386,10.6386,10.6386,10.6386,10.6386,10.6392,10.5988,10.5111,10.3587,10.2698,10.2697,10.1894,10.1504,10.1509,10.1509,10.1509,10.1509,10.1389,10.0995,10.0317,10.0308,10.0286,0.0,0.0,8.1091,7.4805,0.0,0.0,0.0,0.0,0.0,0.0,0.0,0.0,0.0,0.0,0.0,0.0,0.0,0.0,0.0,6.0256,6.1419,6.4152,6.9984,7.3562,7.3055,7.3938,7.5355,7.7251,7.5862,7.7281,8.2752,8.5067,8.7059,8.8943,9.031,9.1267,9.1808,9.1808,9.1808,9.1808,9.1808,9.1808,9.1808,9.1808,9.1808,9.1808,9.1808,9.1808,9.1808,9.1808,9.1808,9.1808,9.1808,9.1808,9.1918,9.279,9.2716,9.2464,9.4116,9.5212,9.5978,9.6539,9.6685,9.6685,9.6685,9.6685,9.6685,9.6685,9.7651,9.8777,9.9044,10.0108,10.1217,10.1384,10.1509,10.1509,10.1509,10.2112,10.2699,10.2701,10.3304,10.4,10.4304,10.4598,10.4908,10.5495,10.6004,10.6198,10.5595,10.6004,10.6386,10.6386,10.6386,10.6386,10.6386,10.5899,10.5212,10.4409,10.379,10.3287,10.2696,10.2905,10.2605,10.1504,10.2008,10.2008,10.1509,10.1509,10.1404,10.111,10.1098,10.0816,7.9293,8.1156,0.0,7.7602,7.5984,0.0,6.8295,0.0,0.0,0.0,0.0,0.0,0.0,0.0,0.0,0.0,0.0,0.0,0.0,5.8597,5.9366,6.0976,6.5893,6.8988,6.8517,6.9887,7.1001,7.1521,7.1553,7.3572,7.8175,8.1735,8.4815,8.7286,8.9473,9.0978,9.1808,9.1808,9.1808,9.1808,9.1808,9.1808,9.1808,9.1808,9.1808,9.1808,9.1808,9.1808,9.1808,9.1808,9.1808,9.1808,9.1808,9.1808,9.1881,9.2427,9.2464,9.2432,9.3496,9.4588,9.5575,9.6103,9.647,9.6685,9.6685,9.6685,9.6832,9.7378,9.8105,9.8863,9.9742,10.0508,10.1095,10.1394,10.1509,10.1509,10.1509,10.1903,10.2307,10.2307,10.271,10.3109,10.3403,10.3696,10.4215,10.5007,10.56,10.5783,10.56,10.6093,10.6386,10.6386,10.6386,10.6386,10.6386,10.5899,10.5306,10.4803,10.4504,10.4095,10.3618,10.3508,10.3298,10.2784,10.2406,10.2307,10.239,10.1803,10.1509,10.1509,10.121,10.0907]},{"header":{"parameterUnit":"m.s-1","parameterCategory":1,"la1":30.6,"la2":29.2853,"lo1":-89.7004,"lo2":-87.6739,"dy":0.0162,"dx":0.0183,"nx":112,"ny":82,"refTime":"2023-10-07T06:00:00:Z","depth":0,"parameterNumber":3,"parameterNumberName":"V-component_of_WINDS"},"data":[0.0,0.0,0.0,0.0,0.0,0.0,0.0,0.0,0.0,0.0,0.0,0.0,0.0,0.0,0.0,0.0,0.0,0.0,0.0,0.0,0.0,0.0,0.0,0.0,0.0,0.0,0.0,0.0,0.0,0.0,0.0,0.0,0.0,0.0,0.0,0.0,0.0,0.0,0.0,0.0,0.0,0.0,0.0,0.0,0.0,0.0,0.0,0.0,0.0,0.0,0.0,0.0,0.0,0.0,0.0,0.0,0.0,0.0,0.0,0.0,0.0,0.0,0.0,0.0,0.0,0.0,0.0,0.0,0.0,0.0,0.0,0.0,0.0,0.0,0.0,0.0,0.0,0.0,0.0,0.0,0.0,0.0,0.0,0.0,0.0,0.0,0.0,0.0,0.0,0.0,0.0,0.0,0.1578,0.2623,0.2624,1.0352,1.3988,1.1158,0.0,0.0,0.0,0.0,0.0,0.0,0.0,0.0,0.0,0.0,0.0,0.0,0.0,0.0,0.0,0.0,0.0,0.0,0.0,0.0,0.0,0.0,0.0,0.0,0.0,0.0,0.0,0.0,0.0,0.0,0.0,0.0,0.0,0.0,0.0,0.0,0.0,0.0,0.0,0.0,0.0,0.0,0.0,0.0,0.0,0.0,0.0,0.0,0.0,0.0,0.0,0.0,0.0,0.0,0.0,0.0,0.0,0.0,0.0,0.0,0.0,0.0,0.0,0.0,0.0,0.0,0.0,0.0,0.0,0.0,0.0,0.0,0.0,0.0,0.0,0.0,0.0,0.0,0.0,0.0,0.0,0.0,0.0,0.0,0.0,0.0,0.0,0.0,0.0,0.0,0.0,0.0,0.0,0.0,0.0,0.0,0.0,0.0,0.0,0.0,0.0,0.0,0.0,0.0,0.0,0.0,0.8655,1.4421,1.4413,1.4897,1.4356,1.2349,0.0,0.0,0.0,0.0,0.0,0.0,0.0,0.0,0.0,0.0,0.0,0.0,0.0,0.0,0.0,0.0,0.0,0.0,0.0,0.0,0.0,0.0,0.0,0.0,0.0,0.0,0.0,0.0,0.0,0.0,0.0,0.0,0.0,0.0,0.0,0.0,0.0,0.0,0.0,0.0,0.0,0.0,0.0,0.0,0.0,0.0,0.0,0.0,0.0,0.0,0.0,0.0,0.0,0.0,0.0,0.0,0.0,0.0,0.0,0.0,0.0,0.0,0.0,0.0,0.0,0.0,0.0,0.0,0.0,0.0,0.0,0.0,0.0,0.0,0.0,0.0,0.0,0.0,0.0,0.0,0.0,0.0,0.0,0.0,0.0,0.0,0.0,0.0,0.0,0.0,0.0,0.0,0.0,0.0,0.0,0.0,0.0,0.0,0.0,0.0,0.0,0.0,0.0,0.0,0.2371,0.8558,1.3891,1.7003,1.6996,1.6185,1.4921,1.31,0.816,0.0,0.0,0.0,0.0,0.0,0.0,0.0,0.0,0.0,0.0,0.0,0.0,0.0,0.0,0.0,0.0,0.0,0.0,0.0,0.0,0.0,0.0,0.0,0.0,0.0,0.0,0.0,0.0,0.0,0.0,0.0,0.0,0.0,0.0,0.0,0.0,0.0,0.0,0.0,0.0,0.0,0.0,0.0,0.0,0.0,0.0,0.0,0.0,0.0,0.0,0.0,0.0,0.0,0.0,0.0,0.0,0.0,0.0,0.0,0.0,0.0,0.0,0.0,0.0,0.0,0.0,0.0,0.0,0.0,0.0,0.0,0.0,0.0,0.0,0.0,0.0,0.0,0.0,0.0,0.0,0.0,0.0,0.0,0.0,0.0,0.0,0.0,0.0,0.0,0.0,0.0,0.0,0.0,0.0,0.0,0.0,0.0,0.0,0.0,0.0,0.0,0.0,0.0,0.4367,1.5779,1.7003,1.6949,1.6806,1.5191,1.3964,1.3429,1.1082,0.0,0.0,0.0,0.0,0.0,0.0,0.0,0.0,0.0,0.0,0.0,0.0,0.0,0.0,0.0,0.0,0.0,0.0,0.0,0.0,0.0,0.0,0.0,0.0,0.0,0.0,0.0,0.0,0.0,0.0,0.0,0.0,0.0,0.0,0.0,0.0,0.0,0.0,0.0,0.0,0.0,0.0,0.0,0.0,0.0,0.0,0.0,0.0,0.0,0.0,0.0,0.0,0.0,0.0,0.0,0.0,0.0,0.0,0.0,0.0,0.0,0.0,0.0,0.0,0.0,0.0,0.0,0.0,0.0,0.0,0.0,0.0,0.0,0.0,0.0,0.0,0.0,0.0,0.0,0.0,0.0,0.0,0.0,0.0,0.0,0.0,0.0,0.0,0.0,0.0,0.0,0.0,0.0,0.0,0.0,0.0,0.0,0.0,0.0,0.0,0.0,0.0,0.0,0.437,1.5787,1.7001,1.6769,1.621,1.1497,0.995,1.3201,1.0904,0.0,0.0,0.0,0.0,0.0,0.0,0.0,0.0,0.0,0.0,0.0,0.0,0.0,0.0,0.0,0.0,0.0,0.0,0.0,0.0,0.0,0.0,0.0,0.0,0.0,0.0,0.0,0.0,0.0,0.0,0.0,0.0,0.0,0.0,0.0,0.0,0.0,0.0,0.0,0.0,0.0,0.0,0.0,0.0,0.0,0.0,0.0,0.0,0.0,0.0,0.0,0.0,0.0,0.0,0.0,0.0,0.0,0.0,0.0,0.0,0.0,0.0,0.0,0.0,0.0,0.0,0.0,0.0,0.0,0.0,0.0,0.0,0.0,0.0,0.0,0.0,0.0,0.0,0.0,0.0,0.0,0.0,0.0,0.0,0.0,0.0,0.0,0.0,0.0,0.0,0.0,0.0,0.0,0.0,0.0,0.0,0.0,0.0,0.0,0.0,0.0,0.0,0.6207,1.2393,0.0,1.7222,1.6603,1.5616,1.3323,1.1552,1.0649,0.0,0.0,0.0,0.0,0.0,0.0,0.0,0.0,0.0,0.0,0.0,0.0,0.0,0.0,0.0,0.0,0.0,0.0,0.0,0.0,0.0,0.0,0.0,0.0,0.0,0.0,0.0,0.0,0.0,0.0,0.0,0.0,0.0,0.0,0.0,0.0,0.0,0.0,0.0,0.0,0.0,0.0,0.0,0.0,0.0,0.0,0.0,0.0,0.0,0.0,0.0,0.0,0.0,0.0,0.0,0.0,0.0,0.0,0.0,0.0,0.0,0.0,0.0,0.0,0.0,0.0,0.0,0.0,0.0,0.0,0.0,0.0,0.0,0.0,0.0,0.0,0.0,0.0,0.0,0.0,0.0,0.0,0.0,0.0,0.0,0.0,0.0,0.0,0.0,0.0,0.0,0.0,0.0,0.0,0.0,0.0,0.0,0.0,0.0,0.0,0.0,0.0,0.0,0.9948,1.7164,0.0,1.7242,1.6615,1.5685,1.4396,1.2624,1.0294,0.0,0.0,0.0,0.0,0.0,0.0,0.0,0.0,0.0,0.0,0.0,0.0,0.0,0.0,0.0,0.0,0.0,0.0,0.0,0.0,0.0,0.0,0.0,0.0,0.0,0.0,0.0,0.0,0.0,0.0,0.0,0.0,0.0,0.0,0.0,0.0,0.0,0.0,0.0,0.0,0.0,0.0,0.0,0.0,0.0,0.0,0.0,0.0,0.0,0.0,0.0,0.0,0.0,0.0,0.0,0.0,0.0,0.0,0.0,0.0,0.0,0.0,0.0,0.0,0.0,0.0,0.0,0.0,0.0,0.0,0.0,0.0,0.0,0.0,0.0,0.0,0.0,0.0,0.0,0.0,0.0,0.0,0.0,0.0,0.0,0.0,0.0,0.0,0.0,0.0,0.0,0.0,0.0,0.0,0.0,0.0,0.0,0.0,0.0,0.0,0.0,0.0,0.0144,1.002,1.6999,1.7001,1.6996,1.6862,1.6528,1.3877,1.2392,0.0,0.0,0.0,0.0,0.0,0.0,0.0,0.0,0.0,0.0,0.0,0.0,0.0,0.0,0.0,0.0,0.0,0.0,0.0,0.0,0.0,0.0,0.0,0.0,0.0,0.0,0.0,0.0,0.0,0.0,0.0,0.0,0.0,0.0,0.0,0.0,0.0,0.0,0.0,0.0,0.0,0.0,0.0,0.0,0.0,0.0,0.0,0.0,0.0,0.0,0.0,0.0,0.0,0.0,0.0,0.0,0.0,0.0,0.0,0.0,0.0,0.0,0.0,0.0,0.0,0.0,0.0,0.0,0.0,0.0,0.0,0.0,0.0,0.0,0.0,0.0,0.0,0.0,0.0,0.0,0.0,0.0,0.0,0.0,0.0,0.0,0.0,0.0,0.0,0.0,0.0,0.0,0.0,0.0,0.0,0.0,0.0,0.0,0.0,0.0,0.0,0.0,0.0,0.9212,1.4128,1.7005,1.7009,1.7,1.696,1.6858,1.5422,1.415,1.3279,0.0,0.0,0.0,0.0,0.0,0.0,0.0,0.0,0.0,0.0,0.0,0.0,0.0,0.0,0.0,0.0,0.0,0.0,0.0,0.0,0.0,0.0,0.0,0.0,0.0,0.0,0.0,0.0,0.0,0.0,0.0,0.0,0.0,0.0,0.0,0.0,0.0,0.0,0.0,0.0,0.0,0.0,0.0,0.0,0.0,0.0,0.0,0.0,0.0,0.0,0.0,0.0,0.0,0.0,0.0,0.0,0.0,0.0,0.0,0.0,0.0,0.0,0.0,0.0,0.0,0.0,0.0,0.0,0.0,0.0,0.0,0.0,0.0,0.0,0.0,0.0,0.0,0.0,0.0,0.0,0.0,0.0,0.0,0.0,0.0,0.0,0.0,0.0,0.0,0.0,0.0,0.0,0.0,0.0,0.0,0.0,0.0,0.0,0.0,0.0,0.0,0.0,0.7849,1.3511,1.7005,1.7007,1.6991,1.6996,1.7001,1.6224,1.5118,1.3647,0.0,0.0,0.0,0.0,0.0,0.0,0.0,0.0,0.0,0.0,0.0,0.0,0.0,0.0,0.0,0.0,0.0,0.0,0.0,0.0,0.0,0.0,0.0,0.0,0.0,0.0,0.0,0.0,0.0,0.0,0.0,0.0,0.0,0.0,0.0,0.0,0.0,0.0,0.0,0.0,0.0,0.0,0.0,0.0,0.0,0.0,0.0,0.0,0.0,0.0,0.0,0.0,0.0,0.0,0.0,0.0,0.0,0.0,0.0,0.0,0.0,0.0,0.0,0.0,0.0,0.0,0.0,0.0,0.0,0.0,0.0,0.0,0.0,0.0,0.0,0.0,0.0,0.0,0.0,0.0,0.0,0.0,0.0,0.0,0.0,0.0,0.0,0.0,0.0,0.0,0.0,0.0,0.0,0.0,0.0,0.0,0.0,0.0,0.0,0.0,0.0,0.0,0.1208,1.0498,1.7003,1.7,1.6997,1.7005,1.6996,1.6495,1.5493,1.3869,0.0,0.0,0.0,0.0,0.0,0.0,0.0,0.0,0.0,0.0,0.0,0.0,0.0,0.0,0.0,0.0,0.0,0.0,0.0,0.0,0.0,0.0,0.0,0.0,0.0,0.0,0.0,0.0,0.0,0.0,0.0,0.0,0.0,0.0,0.0,0.0,0.0,0.0,0.0,0.0,0.0,0.0,0.0,0.0,0.0,0.0,0.0,0.0,0.0,0.0,0.0,0.0,0.0,0.0,0.0,0.0,0.0,0.0,0.0,0.0,1.3971,0.0,0.0,0.0,0.0,0.0,0.0,0.0,0.0,0.0,0.0,0.0,0.0,0.0,0.0,0.0,0.0,0.0,0.0,0.0,0.0,0.0,0.0,0.0,0.0,0.0,0.0,0.0,0.0,0.0,0.0,0.0,0.0,0.0,0.0,0.0,0.0,0.0,0.0,0.0,0.0,0.0,1.0278,1.4624,1.7,1.6998,1.7003,1.6999,1.7004,1.6883,1.5859,1.363,1.0404,0.0,0.0,0.0,0.0,0.0,0.0,0.0,0.0,0.0,0.0,0.0,0.0,0.0,0.0,0.0,0.0,0.0,0.0,0.0,0.0,0.0,0.0,0.0,0.0,0.0,0.0,0.0,0.0,0.0,0.0,0.0,0.0,0.0,0.0,0.0,0.0,0.0,0.0,0.0,0.0,0.0,0.0,0.0,0.0,0.0,0.0,0.0,0.0,0.0,0.0,0.0,0.0,0.0,0.0,0.0,0.0,0.0,0.0,0.0,0.0,1.5449,0.0,0.0,0.0,0.0,0.0,0.0,0.0,0.0,0.0,0.0,0.0,0.0,0.0,0.0,0.0,0.0,0.0,0.0,0.0,0.0,0.0,0.0,0.0,0.0,0.0,0.0,0.0,0.0,0.0,0.0,0.0,0.0,0.0,0.0,0.0,0.0,0.0,0.0,0.0,0.0,1.3074,1.5629,1.6677,1.6969,1.7007,1.6875,1.6583,1.6307,1.548,1.3934,1.0979,0.0,0.0,0.0,0.0,0.0,0.0,0.0,0.0,0.0,0.0,0.0,0.0,0.0,0.0,0.0,0.0,0.0,0.0,0.0,0.0,0.0,0.0,0.0,0.0,0.0,0.0,0.0,0.0,0.0,0.0,0.0,0.0,0.0,0.0,0.0,0.0,0.0,0.0,0.0,0.0,0.0,0.0,0.0,0.0,0.0,0.0,0.0,0.0,0.0,0.0,0.0,0.0,0.0,2.8717,2.9793,2.8418,2.6226,2.6039,2.7213,2.2893,2.0781,2.0055,1.6024,0.0,0.0,0.0,0.0,0.0,0.0,0.0,0.0,0.0,0.0,0.0,0.0,0.0,0.0,0.0,0.0,0.0,0.0,0.0,0.0,0.0,0.0,0.0,0.0,1.0433,1.0539,1.093,0.0,0.0,0.0,0.0,0.0,0.0,0.0,0.0,0.0,0.0,0.0,1.3064,1.5348,1.6335,1.6939,1.7009,1.6762,1.6152,1.5551,1.494,1.4331,1.2232,1.0201,0.0,0.0,0.0,0.0,0.0,0.0,0.0,0.0,0.0,0.0,0.0,0.0,0.0,0.0,0.0,0.0,0.0,0.0,0.0,0.0,0.0,0.0,0.0,0.0,0.0,0.0,0.0,0.0,0.0,0.0,0.0,0.0,1.5474,1.8554,0.0,0.0,0.0,0.0,0.0,0.0,0.0,0.0,0.0,0.0,0.0,0.0,0.0,1.9146,2.1271,2.2188,2.3829,2.6222,3.0772,3.1789,2.9626,2.8321,2.7869,2.802,2.6812,0.0,2.4894,1.7872,0.0,0.0,0.0,0.0,0.0,0.0,0.0,0.0,0.0,0.0,0.0,0.0,0.0,0.0,0.0,0.0,0.0,0.0,0.0,0.0,0.0,0.0,1.1533,1.2657,1.2933,1.2807,0.0,1.1026,1.0232,1.1279,1.0284,0.0,0.0,0.0,0.0,0.0,0.0,0.0,1.3067,1.5351,1.6327,1.6938,1.6996,1.6762,1.6157,1.5549,1.4936,1.434,1.3022,1.1445,0.964,0.9212,0.0,0.0,0.0,0.0,0.0,0.0,0.0,0.0,0.0,0.0,0.0,0.0,0.0,0.0,0.0,0.0,0.0,0.0,0.0,0.0,0.0,0.0,0.0,0.0,0.0,0.0,0.0,0.0,0.0,1.6132,1.7892,2.0085,1.9328,1.861,0.0,0.0,0.0,0.0,0.0,0.0,0.0,0.0,0.0,2.3008,2.3909,2.5476,2.7815,2.8337,2.9171,3.0357,3.241,3.286,3.182,3.0698,2.997,2.965,2.9374,2.9501,2.9457,2.4027,2.1018,1.9371,0.0,0.0,0.0,0.0,1.0857,1.0822,1.0496,1.0413,1.0492,1.0833,0.0,0.0,0.0,0.0,0.0,0.0,0.0,0.0,0.0,0.0,1.2831,1.3701,1.3909,1.3836,1.3564,1.262,1.1575,0.0,1.0098,0.9602,0.9339,0.0,0.0,0.0,0.0,0.8015,1.3586,1.5345,1.6207,1.6466,1.649,1.6392,1.6119,1.5241,1.4582,1.4311,1.3343,1.2188,1.0875,1.0232,0.9848,0.0,0.0,0.0,0.0,0.0,0.0,0.0,0.0,0.0,0.0,0.0,0.0,0.0,0.0,0.0,0.0,0.0,0.0,0.0,0.0,0.0,0.0,0.0,0.0,0.0,0.0,0.0,0.0,1.779,2.0596,2.2665,2.1093,1.9726,0.0,0.0,0.0,0.0,0.0,0.0,2.2386,2.3028,2.4426,2.6775,2.8588,3.0521,3.258,3.2602,3.3012,3.3867,3.3853,3.3857,3.3814,3.2657,3.2064,3.1932,3.1924,3.2254,3.2545,2.9149,2.6011,2.2884,1.805,1.536,1.3966,1.2081,1.1466,1.1555,1.1192,1.0906,1.0766,1.1214,1.1266,1.1061,1.061,0.0,0.0,0.0,0.0,1.086,1.1461,1.2625,1.3744,1.4188,1.4302,1.4302,1.4297,1.3944,1.3008,0.0,1.0,0.9535,0.9381,0.0,0.0,0.0,0.0,1.1754,1.4005,1.5356,1.6101,1.6104,1.6095,1.6036,1.5874,1.4904,1.4306,1.4298,1.369,1.2882,1.1875,1.1252,1.0442,0.938,0.0,0.0,0.0,0.0,0.0,0.0,0.0,0.0,0.0,0.0,0.0,0.0,0.0,0.0,0.0,0.0,0.0,0.0,0.0,0.0,0.0,0.0,0.0,0.0,0.0,0.0,0.0,0.0,0.0,2.7302,2.3804,0.0,0.0,0.0,0.0,1.9398,2.1455,2.3714,2.6016,2.8258,3.0533,3.2884,3.3077,3.3748,3.5006,3.5023,3.5056,3.511,3.5119,3.5109,3.507,3.3862,3.3928,3.4982,3.4981,3.4358,3.3162,3.0748,2.8682,2.6428,2.0338,1.5429,1.1756,1.1634,1.195,1.2402,1.2115,1.1451,1.0711,1.0741,1.0363,0.9882,0.985,0.9846,0.0,0.0,1.1914,1.3361,1.3963,1.4192,1.4267,1.4291,1.4299,1.4301,1.4297,1.4282,1.388,0.0,1.1881,1.1284,1.0711,0.0,1.0511,0.9933,1.082,1.2225,1.4054,1.5354,1.6096,1.6098,1.6109,1.5869,1.5287,1.4667,1.4298,1.4298,1.4262,1.3699,1.2502,1.1882,1.1256,1.0616,1.0086,0.0,0.0,0.0,0.0,0.0,0.0,0.0,0.0,0.0,0.0,0.0,0.0,0.0,0.0,0.0,0.0,0.0,0.0,0.0,0.0,0.0,0.0,0.0,0.0,0.0,0.0,0.0,0.0,2.8736,2.444,0.0,2.1625,2.1648,2.2599,2.4881,2.7233,2.9905,3.2995,3.3954,3.4794,3.5636,3.494,3.5118,3.6277,3.6288,3.6288,3.6288,3.6286,3.6286,3.6286,3.5842,3.5885,3.6248,3.5522,3.496,3.4423,3.2826,3.1132,2.9292,2.6702,2.2348,1.7096,1.3494,1.2322,1.2652,1.372,1.3886,1.353,1.314,1.2605,1.2039,1.1656,1.1812,1.2237,1.2854,1.3483,1.4034,1.424,1.4301,1.4306,1.4305,1.4294,1.4298,1.43,1.4301,1.4169,1.3738,1.317,1.2684,1.2474,1.1793,1.1338,1.1508,1.2555,1.3709,1.4752,1.5594,1.6108,1.6097,1.6094,1.6014,1.5803,1.5233,1.471,1.4323,1.4298,1.4106,1.3678,1.2713,1.1709,1.0723,1.011,0.9692,0.0,0.0,0.0,0.0,0.0,0.0,0.0,0.0,0.0,0.0,0.0,0.0,0.0,0.0,0.0,0.0,0.0,0.0,0.0,0.0,0.0,0.0,0.0,0.0,0.0,0.0,2.6283,3.0568,2.764,2.5412,2.5826,2.5863,2.7002,2.9741,3.2512,3.5081,3.7381,3.731,3.7209,3.7198,3.668,3.674,3.7492,3.7522,3.7503,3.7507,3.7507,3.7522,3.7499,3.7504,3.7286,3.685,3.6099,3.5551,3.5138,3.4337,3.3088,3.1641,3.1245,2.634,1.9067,1.5382,1.4014,1.4158,1.5153,1.5501,1.5394,1.4792,1.4207,1.3627,1.3226,1.339,1.3793,1.4192,1.4453,1.46,1.4597,1.4597,1.4603,1.4603,1.4602,1.4554,1.4336,1.4304,1.4299,1.4306,1.3981,1.3697,1.3701,1.3039,1.2645,1.3051,1.3787,1.4518,1.5117,1.5733,1.6091,1.6098,1.6095,1.6024,1.5803,1.5234,1.476,1.4446,1.4351,1.4296,1.4298,1.2947,1.172,1.0722,1.0112,0.99,1.0089,0.0,0.0,0.0,0.0,0.0,0.0,0.0,0.0,0.0,0.0,0.0,0.0,0.0,0.0,0.0,0.0,0.0,0.0,0.0,0.0,0.0,0.0,0.0,2.0134,2.4608,2.9626,3.3052,3.3413,3.2986,3.1909,3.1799,3.2299,3.3483,3.679,3.8737,3.8699,3.8158,3.7839,3.7826,3.8385,3.868,3.8693,3.8735,3.8768,3.876,3.8717,3.8696,3.8693,3.8709,3.8053,3.6962,3.6963,3.631,3.5258,3.5205,3.4503,3.3444,3.3412,2.6895,1.7511,1.7511,1.7287,1.6918,1.6335,1.6133,1.6025,1.5421,1.4833,1.4345,1.4327,1.4327,1.4331,1.4353,1.4777,1.5222,1.5206,1.52,1.5203,1.5203,1.5196,1.5045,1.4451,1.4309,1.4307,1.4295,1.4303,1.4295,1.4298,1.4304,1.4302,1.4298,1.4328,0.0,1.5154,1.574,1.6098,1.6106,1.6095,1.5859,1.5246,1.4645,1.4413,1.4669,1.4413,1.4229,1.4191,1.2489,1.1292,1.0747,1.012,1.0091,1.0661,0.0,0.0,0.0,0.0,0.0,0.0,0.0,0.0,0.0,0.0,0.0,0.0,0.0,0.0,0.0,0.0,0.0,0.0,0.0,0.0,0.0,0.0,2.6644,2.1957,2.7455,3.2652,3.4488,3.3929,3.3611,3.4174,3.4236,3.5075,3.7087,3.8959,3.9618,3.8737,3.8817,3.8747,3.8466,3.8192,3.827,3.8687,3.957,4.0005,3.9981,3.9122,3.8705,3.8687,3.8708,3.8522,3.8205,3.8219,3.7536,3.6363,3.5538,3.4992,3.4608,3.3749,3.1554,2.8882,2.8891,2.3851,1.6982,1.6815,1.675,1.6653,1.6048,1.5736,1.5521,1.5089,1.4951,1.5043,1.5476,1.5717,1.5756,1.5306,1.5203,1.52,1.52,1.5198,1.5145,1.4993,1.4603,1.4307,1.4301,1.4298,1.4305,1.4295,1.4297,1.4299,1.4296,1.5043,0.0,1.5827,1.5994,1.6098,1.6106,1.6095,1.5866,1.5252,1.4643,1.4336,1.4406,1.3518,1.2601,1.1732,1.0793,1.0631,1.1333,1.0329,0.9882,0.0,0.0,0.0,0.0,0.0,0.0,0.0,0.0,0.0,0.0,0.0,0.0,0.0,0.0,0.0,0.0,0.0,0.0,0.0,0.0,0.0,0.0,3.0812,3.1097,2.8194,3.2319,3.5781,3.6246,3.5898,3.5898,3.6612,3.6883,3.7606,3.8958,3.9799,3.9938,3.9241,3.9267,3.9202,3.8967,3.8447,3.8342,3.8701,3.9908,4.0499,4.0493,3.9786,3.9457,3.9453,3.9457,3.9178,3.8705,3.8712,3.8031,3.686,3.6191,3.5631,0.0,0.0,0.0,0.0,0.0,2.9361,2.3868,2.3875,2.0858,1.6934,1.659,1.6312,1.6033,1.5677,1.5584,1.5653,1.6003,1.6098,1.6017,1.5674,1.5584,1.5576,1.5576,1.5583,1.5509,1.525,1.4917,1.4675,1.468,1.4683,0.0,1.4336,1.4298,1.439,1.4634,1.527,1.581,1.6063,1.6105,1.6101,1.6105,1.6101,1.5959,1.5615,1.4792,0.0,0.0,0.0,1.1429,1.0737,1.0361,0.0,0.0,0.0,1.0053,0.98,1.005,0.0,0.0,0.8134,0.98,0.0,0.0,0.0,0.0,0.0,0.0,0.0,0.0,0.0,0.0,0.0,0.0,0.0,0.0,0.0,0.0,3.4763,3.6602,3.6221,3.7722,3.8656,3.8156,3.8524,3.8839,3.8904,3.939,3.9678,3.9639,3.9841,3.9966,3.9975,0.0,0.0,0.0,0.0,3.8899,3.8899,3.9949,4.0499,4.0496,4.0496,4.0506,4.05,4.0502,3.9919,3.8897,3.8896,3.8223,3.7089,3.6971,3.6228,3.5205,3.5206,3.4556,3.3613,3.3599,3.3522,3.3406,3.3406,0.0,0.0,1.8852,1.7652,1.6197,1.6199,1.615,1.6097,1.6099,1.6096,1.6101,1.6102,1.615,1.6187,1.6128,1.6099,1.5954,1.5415,1.5253,1.5203,1.5197,1.5201,1.5025,1.4489,1.4397,1.4579,1.5126,1.5196,1.5412,1.6028,1.6096,1.6096,1.6097,0.0,0.0,1.6088,1.4943,1.3806,1.267,1.1467,1.0772,1.0703,1.0701,1.0453,0.9906,1.0429,1.0436,0.9901,1.0436,1.0698,1.0694,1.0151,0.9902,0.0,0.0,0.0,0.0,0.0,0.0,0.0,0.0,0.0,0.0,0.0,0.0,0.0,0.0,0.0,3.5726,3.7312,3.8673,3.8492,3.9196,3.98,3.9969,3.9652,3.9616,4.0098,4.0252,4.0198,3.9873,4.0171,4.0391,4.0376,4.0309,4.0267,4.028,4.0183,4.0147,4.0147,4.0382,4.0502,4.0505,0.0,0.0,4.0502,4.0496,4.0373,4.0155,4.0147,3.947,3.8278,3.7299,3.6232,3.5201,3.5201,3.5055,3.4852,3.4839,3.4245,3.3393,3.3406,3.2007,3.0235,3.0235,2.415,1.6827,1.6834,1.6483,0.0,1.6103,1.61,1.6102,1.6096,1.6458,1.6697,1.6217,1.6097,1.6068,1.5945,1.5537,1.5201,1.5195,1.5197,1.516,1.5053,1.5027,1.5071,1.5174,1.5203,1.5417,1.6016,1.61,1.6101,1.6092,2.2783,2.4008,1.6049,1.4717,1.3993,1.3266,1.2096,1.1208,1.0722,1.0705,1.0651,1.0532,1.0639,1.064,1.0528,1.064,1.0698,1.0703,1.0578,1.0529,0.0,0.0,0.0,0.0,0.0,0.0,0.0,0.0,0.0,0.0,0.0,2.3662,0.0,0.0,3.7531,3.6599,3.8011,3.9282,3.9514,4.0077,4.0407,4.0271,4.0133,4.0098,4.0244,4.0516,4.0625,4.0432,4.0717,4.0867,4.0803,4.0863,4.0778,4.0501,4.0493,4.0501,4.0501,4.0501,4.0501,4.0501,4.0506,4.0501,4.0501,4.0505,4.0492,4.0495,4.0493,4.0162,3.947,3.7654,3.6564,3.6052,3.6047,3.5696,3.5199,3.519,3.4822,3.4302,3.4297,3.3906,3.339,3.3405,2.5965,1.7001,1.7006,1.6791,1.6487,1.6178,1.6323,1.6558,1.6547,1.6764,1.6922,1.6619,1.6546,1.6467,1.6167,1.5857,1.5563,1.5258,1.5195,1.5205,1.52,1.5452,1.5549,1.5248,1.52,1.5421,1.6014,2.0672,2.3902,2.3902,2.7505,2.8141,2.3826,1.7837,1.4173,1.3869,1.2999,1.2234,1.1632,1.1602,1.1461,1.1165,1.1444,1.1446,1.115,1.1155,1.1146,1.1162,1.1461,1.1437,0.0,0.0,0.0,0.0,0.0,0.0,0.0,0.0,2.6517,2.6909,2.6453,2.7627,3.3072,3.5925,3.7352,3.7044,3.8343,3.9582,4.0169,4.068,4.0787,4.0239,4.0361,4.0391,4.0117,4.0588,4.0893,4.0893,4.1116,4.1239,4.1188,4.1157,4.1051,4.0838,4.0822,4.0822,4.0818,4.0818,4.0818,4.0818,4.0825,4.0703,4.0501,4.0504,4.0493,4.0502,4.0506,4.0374,4.0005,3.8052,3.7256,3.7226,3.6986,3.6339,3.551,3.5283,3.5199,3.5211,3.5198,3.4565,3.371,3.3482,2.7415,2.0188,2.0189,2.0188,1.9639,1.7014,1.6539,1.6849,1.6967,1.7003,1.7,1.6995,1.6996,1.6873,1.6376,1.6186,1.5964,1.5468,1.537,1.5372,1.5362,1.5774,1.5901,1.5286,1.5301,1.5545,1.6036,2.5231,3.1698,3.1696,3.0831,3.0638,3.1621,2.1118,1.4421,1.4309,1.3839,1.3358,1.2868,1.2848,1.2577,1.1956,1.2427,1.2441,1.1947,1.1831,1.1771,1.1795,1.239,1.2348,2.0811,2.0885,0.0,2.5495,2.4046,2.1558,0.0,0.0,2.8142,3.4266,3.6288,3.6845,3.6559,3.7894,3.8996,3.883,3.9666,4.0533,4.1076,4.1208,4.1147,4.0842,4.0615,4.0496,4.0456,4.0722,4.0893,4.0893,4.1041,4.1243,4.1527,4.0938,4.103,4.1981,4.2012,4.2002,4.2019,4.2019,4.2019,4.2019,4.2009,4.148,4.0501,4.0492,4.0497,4.0502,4.0499,3.989,3.8872,3.8609,3.8505,3.839,3.7312,3.6825,3.6591,3.5577,3.5205,3.5205,3.5198,3.51,3.4824,3.3755,3.2571,3.1572,3.1572,3.1573,2.9511,1.9671,1.6562,1.6319,1.6865,1.7006,1.7003,1.7003,1.6999,1.6983,1.6907,1.6474,1.6085,1.6013,1.6004,1.5998,1.5999,1.6064,1.5903,1.5285,1.5658,1.6017,1.6086,2.5222,3.1701,3.17,3.1577,3.1552,3.17,2.1501,1.4866,1.4328,1.4239,1.4173,1.4104,1.4101,1.381,1.3213,1.3261,1.3271,1.3202,1.266,1.2397,1.2404,1.3023,1.2977,2.1778,0.0,0.0,0.0,2.8039,2.8343,2.8701,3.0478,3.307,3.6677,3.8089,3.8754,3.8966,3.9743,4.03,0.0,4.0762,4.1325,4.1563,4.1425,4.1198,4.0933,4.0655,4.0563,4.0722,4.1151,4.1497,4.1639,4.1709,4.1798,4.193,4.1665,4.2023,4.3223,4.2568,4.2207,4.2209,4.2207,4.2203,4.2203,4.2201,4.1953,4.1467,4.0807,4.0499,4.0502,4.0499,3.9816,3.8702,3.8707,3.8696,3.8646,3.8133,3.7951,3.7807,3.6611,3.5777,3.5205,3.5205,3.5201,3.5127,3.461,3.397,3.3401,3.3407,3.3396,3.1107,2.009,2.1435,2.4757,1.8607,1.6992,1.6994,1.6994,1.6998,1.7,1.6994,1.6799,1.6517,1.6164,1.6104,1.6096,1.61,1.6099,1.6006,1.5753,1.5938,1.8301,2.4395,2.8994,3.1699,3.1697,3.1705,3.1421,3.0709,2.1158,1.5094,1.4844,1.4487,1.4294,1.4299,1.4293,1.4182,1.3929,1.3919,1.3926,1.3919,1.3662,1.337,1.3033,1.3277,1.3449,2.2679,0.0,0.0,2.7818,3.0896,3.3385,3.4471,3.5939,3.7285,3.8045,3.8646,3.9292,4.0102,4.0636,4.0979,4.1121,4.1579,4.194,4.2036,4.1695,4.1239,4.0706,4.0416,4.0334,4.0518,4.1214,4.1802,4.2162,4.2347,4.2461,4.245,4.2617,4.3092,4.3981,4.3141,4.271,4.2695,4.2688,4.2526,4.2201,4.2191,4.2052,4.169,4.0874,4.0489,4.0512,4.0503,4.0,3.9201,3.9197,3.8999,3.8705,3.8691,3.8496,3.8101,3.7227,3.6392,3.5617,3.5311,3.5205,3.5199,3.52,3.4373,3.3401,3.3401,3.3404,3.173,2.3754,2.7256,3.1572,2.3587,2.1511,2.1521,2.1521,2.1521,2.0695,1.765,1.7007,1.6865,1.6434,1.6351,1.6351,1.6351,1.6351,1.6291,1.6137,1.855,2.3137,3.0732,3.1704,3.1699,3.17,3.1698,3.1354,3.0463,2.1209,1.5379,1.5216,1.4795,1.4468,1.4307,1.4306,1.4297,1.43,1.4306,1.4299,1.4301,1.4302,1.4082,1.3654,1.3654,1.3875,2.3594,0.0,2.613,2.9113,3.1102,3.2927,3.5227,3.7698,3.9448,3.9293,3.9589,3.9833,3.9657,4.0115,4.0796,4.1635,4.2004,4.2298,4.264,4.2167,4.135,4.0172,3.9783,3.964,0.0,4.0651,4.1572,4.2162,4.2751,4.3071,4.3073,4.363,4.395,4.3989,4.395,4.395,4.3952,4.3942,4.3355,4.2202,4.2202,4.1629,4.0542,4.0526,4.0497,4.0512,4.0503,4.0484,4.0449,4.0444,3.9766,3.8689,3.8705,3.7989,3.6951,3.6918,3.6888,3.6692,3.559,3.5205,3.5192,3.5199,3.4371,3.3395,3.3401,3.3402,3.3327,3.3005,3.314,3.3328,3.299,3.2903,3.2904,3.2904,3.2904,2.9978,1.9298,1.7007,1.6987,1.6979,1.6972,1.6972,1.6972,1.6968,1.677,1.6187,2.4726,3.1342,3.1654,3.1693,3.1699,3.1699,3.1703,3.1688,3.1645,2.208,1.5821,1.5246,1.5179,1.4906,1.432,1.4294,1.4294,1.4299,1.4296,1.4296,1.4301,1.43,1.429,1.4268,1.4268,1.4275,2.5902,0.0,2.9851,3.2239,3.4402,3.6314,3.7683,3.9133,4.0185,4.0118,3.9581,3.9127,3.9253,3.9438,3.9878,4.0777,4.1833,4.2635,4.2913,4.2782,4.2004,4.0209,4.0279,0.0,0.0,0.0,0.0,4.2445,4.2875,4.3278,4.3682,4.4605,4.5116,4.5123,4.4385,4.4002,4.3996,4.3199,4.26,4.221,4.2204,4.1996,4.1598,4.0839,4.0497,4.0512,4.0495,4.0492,4.043,3.964,3.9065,3.8702,3.8708,3.8442,3.8084,3.8095,3.7592,3.6842,3.646,3.5831,3.5205,3.519,3.4936,3.4579,3.4579,3.4036,3.3393,3.3389,3.3401,3.34,3.3397,3.3393,3.3402,3.3402,3.3402,3.2389,2.8671,2.2159,1.6997,1.7003,1.6995,1.6998,1.6998,1.6998,1.9142,2.5496,2.9445,3.1695,3.1702,3.1695,3.17,3.1697,3.2383,3.2528,3.1764,2.2109,1.6011,1.5808,1.5428,1.5113,1.4917,1.4509,1.4303,1.4302,1.4298,1.4301,1.4301,1.4292,1.4294,1.4304,1.4298,1.4294,2.8577,3.0837,3.3002,3.5298,3.7394,3.9077,3.9743,4.0346,4.0695,4.0391,3.9291,3.8343,3.8207,3.798,3.8261,3.9507,4.067,4.1735,4.2659,4.2512,4.1777,4.0346,4.0224,3.9955,0.0,0.0,0.0,4.2405,4.2872,4.3356,4.3973,4.5072,4.5694,4.5699,4.4583,4.4006,4.4008,4.3232,4.2637,4.22,4.2198,4.22,4.216,4.1011,4.0501,4.0512,4.0512,4.0505,4.0443,3.9654,3.9083,3.8701,3.8697,3.8704,3.8699,3.8712,3.7934,3.6891,3.6904,3.6423,3.5738,3.5325,3.5203,3.5197,3.52,3.4651,3.4028,3.4039,3.4045,3.3933,3.3503,3.3404,3.3403,3.3396,3.3393,3.3393,3.3406,2.7848,2.1704,1.7754,1.6999,1.7009,1.6998,1.7002,2.0353,3.0218,3.1699,3.1699,3.1704,3.2051,3.231,3.232,3.2957,3.3107,3.2365,2.5777,2.0076,1.6344,1.5741,1.5413,1.5203,1.4827,1.4623,1.4626,1.4617,1.452,1.4302,1.4294,1.4294,1.4313,1.4525,1.4509,3.1517,3.3616,3.5591,3.8221,3.9945,4.108,4.129,4.1314,4.1036,4.0089,3.8689,3.7368,0.0,0.0,3.6166,3.7958,3.8838,3.9982,4.1999,4.1615,4.0989,0.0,0.0,0.0,0.0,0.0,0.0,4.2012,0.0,4.3327,4.3973,4.5074,4.5697,4.5697,4.4656,4.4055,4.4002,4.3987,4.339,4.2198,4.2201,4.2191,4.2156,4.1015,4.0501,4.0512,4.0512,4.0502,4.0499,4.0499,3.9827,3.8796,3.8709,3.8697,3.8708,3.8701,3.7949,3.6889,3.6902,3.6911,3.6707,3.5564,3.5205,3.519,3.5198,3.5195,3.5193,3.5195,3.5205,3.4925,3.3702,3.3448,3.347,3.342,3.3401,3.3393,3.3392,3.3395,3.032,1.9865,1.7373,1.6992,1.7003,1.7006,2.0351,3.029,3.1788,3.179,3.1782,3.2729,3.3396,3.3396,3.3403,3.3395,3.3395,3.2419,2.7532,1.7528,1.6406,1.5832,1.5271,1.5258,1.5254,1.525,1.5218,1.4928,1.4349,1.4347,1.4347,1.436,1.4934,1.4892,3.4523,3.6834,3.8838,4.0798,4.1924,4.2445,4.2055,4.1623,4.0798,3.9092,3.7049,3.5163,0.0,0.0,0.0,3.737,3.9978,0.0,4.3386,4.3878,0.0,4.1338,0.0,4.0716,3.8967,3.9362,0.0,0.0,4.1851,4.2895,4.3933,4.5087,4.5712,4.5697,4.5417,4.4858,4.4014,4.4,4.3393,4.2201,4.2199,4.2202,4.2156,4.103,4.0511,4.0512,4.0512,4.0502,4.0499,4.0491,4.0312,3.9945,3.9063,3.8697,3.8708,3.8701,3.7949,3.6889,3.6896,3.6907,3.672,3.556,3.5203,3.5192,3.5204,3.5202,3.5202,3.52,3.5208,3.4927,3.3707,3.4065,3.4504,3.3615,3.3395,3.3391,3.3396,3.3403,3.257,2.9758,2.2601,1.7002,1.6993,1.6995,2.0633,3.1352,3.2967,3.2976,3.297,3.3223,3.3397,3.3392,3.3403,3.3398,3.3393,3.312,3.1472,2.7944,2.0408,1.6026,1.588,1.5873,1.5866,1.5869,1.5425,1.5113,1.4976,1.4971,1.4967,1.4969,1.5138,1.5119,3.7448,3.9574,4.1258,4.2472,4.3027,4.2969,4.1735,4.0787,3.9438,3.6888,3.4816,0.0,3.1512,3.2664,0.0,0.0,0.0,0.0,4.2911,4.3834,4.382,0.0,4.2316,0.0,4.0355,4.078,4.096,0.0,4.1088,4.2422,4.4625,4.5343,4.5695,4.5705,4.5697,4.5384,4.4753,4.372,4.2875,4.2204,4.2207,4.1936,4.144,4.0798,4.0506,4.0512,0.0,4.0495,4.0452,3.9933,3.9699,3.964,3.8968,3.8708,3.8708,3.8695,3.7944,3.69,3.6898,3.6899,3.6784,3.6152,3.5617,3.5191,3.5192,3.5192,3.5204,3.5205,3.5202,3.5038,3.4373,3.4682,3.5032,3.4353,3.3796,3.3393,3.3392,3.3395,3.1972,2.7144,2.1219,1.6997,1.6997,2.0999,2.6289,3.2475,3.3397,3.3399,3.3399,3.3399,3.3403,3.34,3.3401,3.3397,3.34,3.34,3.3123,3.2483,2.6937,2.1411,1.6307,1.6093,1.6103,1.6093,1.5775,1.5462,1.52,1.5469,1.5594,1.5585,1.5599,1.5593,4.0187,4.2206,4.3609,4.3719,4.3974,4.3532,4.1018,3.936,3.7434,3.4161,0.0,3.0847,2.9435,3.0696,3.1956,3.1929,0.0,3.8795,4.2192,4.3129,4.3639,4.4165,4.3295,4.2668,4.2657,4.3139,4.2816,4.13,4.1193,4.2506,4.5539,4.5696,4.5694,4.5694,4.5696,4.5631,4.5486,4.347,4.2452,4.2437,4.2275,4.1606,4.05,4.0501,4.0497,4.0512,4.0512,4.0502,4.0416,3.9366,3.8842,3.8701,3.8702,3.8699,3.8705,3.8699,3.8046,3.7106,3.6959,3.6903,3.6901,3.6897,3.6127,3.5203,3.5204,3.5312,3.539,3.5245,3.5191,3.5198,3.5203,3.5196,3.5207,3.5205,3.4279,3.3397,3.3396,3.3408,3.0155,1.9127,1.7004,1.7003,1.7003,2.6117,3.3403,3.3395,3.341,3.3401,3.3401,3.3401,3.3401,3.3401,3.3401,3.3401,3.3401,3.3399,3.3396,3.3399,3.3409,2.8899,1.8809,1.8246,1.7519,1.6131,1.6097,1.5845,1.5317,1.5841,1.6103,1.6093,1.6093,1.6098,4.2333,4.5497,4.7649,4.551,4.6439,4.6516,4.1285,3.825,0.0,0.0,3.0167,2.8788,2.7636,2.9533,3.1682,3.2909,3.769,4.2174,4.4729,0.0,4.5289,0.0,0.0,0.0,0.0,0.0,0.0,0.0,4.481,4.505,4.5664,4.5704,4.5694,4.5694,4.5696,4.5253,4.4306,4.389,4.3701,4.368,4.2679,4.1608,4.05,4.0502,4.0493,4.0512,4.0512,0.0,4.0481,4.0272,3.9609,3.8705,3.8689,3.87,3.8705,3.8699,3.8579,3.8258,3.7247,3.6897,3.6903,3.6894,3.6135,3.5202,3.5196,3.5859,3.6419,3.5471,3.5205,3.5203,3.519,3.519,3.5187,3.5194,3.4278,3.3395,3.3398,3.3404,3.0152,1.9135,1.7001,1.6996,1.7002,2.6121,3.3407,3.3408,3.3403,3.3401,3.3401,3.3401,3.3401,3.3401,3.3401,3.3401,3.3401,3.3399,3.3398,3.34,3.3397,3.249,3.0478,2.9483,2.4928,1.6262,1.6092,1.6052,1.5937,1.6045,1.6102,1.6095,1.6095,1.6098,4.6183,4.7358,4.7619,4.8435,4.6975,4.4137,3.9456,0.0,0.0,0.0,2.8238,2.7302,2.6774,2.8278,0.0,2.9745,3.627,4.2122,4.4496,4.5327,0.0,0.0,0.0,0.0,0.0,0.0,0.0,0.0,4.5712,4.5712,4.5712,4.5695,4.5694,4.5694,4.5696,4.5154,4.4003,4.4013,4.4005,4.3988,4.2787,4.1611,4.0506,4.0511,4.0495,4.0512,4.0512,4.0505,4.0495,4.0493,3.9796,3.8691,3.8689,3.8689,3.8705,3.8702,3.8696,3.8623,3.8037,3.7431,3.6898,3.6902,3.6538,3.6078,3.6081,3.6477,3.6662,3.551,3.5205,3.5191,3.5191,3.5191,3.5203,3.5196,3.476,3.417,3.354,3.3896,3.0992,1.966,1.7216,1.8817,2.4557,2.9919,3.3392,3.3404,3.3401,3.3401,3.3401,3.3401,3.3401,3.3401,3.3401,3.3401,3.3401,3.3401,3.3401,3.3401,3.34,3.3396,3.3399,3.2878,3.0241,2.5205,1.9487,1.6564,1.6568,1.6568,1.657,1.6575,1.6575,1.6566,4.881,4.9112,4.866,5.0221,4.7381,4.3039,3.8561,3.5788,0.0,0.0,2.653,2.6013,2.6012,2.6992,2.7584,0.0,3.3442,3.9083,4.043,4.3548,4.5691,0.0,0.0,0.0,0.0,0.0,0.0,4.5701,4.5701,4.5709,4.5694,4.5694,4.5694,4.5694,4.5696,4.527,4.438,4.4355,4.4242,4.3972,4.2531,4.1482,4.0864,4.0617,4.0506,4.0512,4.0512,4.0512,4.0502,4.0501,3.9787,3.8702,3.8697,3.87,3.8697,3.87,3.8699,3.8701,3.8689,3.7913,3.6893,3.6906,3.6902,3.6894,3.6894,3.6897,3.6664,3.5521,3.5191,3.5191,3.5191,3.5191,3.5203,3.5198,3.5203,3.4945,3.3983,3.4327,3.219,2.3328,2.1015,2.3263,3.1921,3.3393,3.3401,3.3403,3.3401,3.3401,3.3401,3.3401,3.3401,3.3401,3.3401,3.3401,3.3401,3.3401,3.3401,3.3401,3.3401,3.3395,3.3405,3.3392,3.3408,3.3409,2.4925,1.9352,1.7001,1.7004,1.7003,1.7005,1.7005,1.7005,4.7382,5.1731,5.5151,4.8692,4.8926,4.878,4.131,0.0,0.0,2.6672,2.5203,2.4766,2.4766,2.5755,2.6891,2.7864,3.0548,3.1841,2.9921,3.8909,4.5703,4.5712,0.0,0.0,4.7331,4.6338,0.0,4.5695,4.5695,4.5689,4.5694,4.5694,4.5694,4.5694,4.5696,4.5646,4.5548,4.553,4.5015,4.3978,4.1738,4.1153,4.2009,4.097,4.0506,4.0512,4.0512,4.0512,0.0,4.0501,3.9791,3.8696,3.8705,3.8706,3.8687,3.8708,3.8705,3.8708,3.8701,3.7909,3.69,3.6891,3.6906,3.6901,3.6901,3.6895,3.6667,3.5533,3.5191,3.5191,3.5191,3.5191,3.5204,3.519,3.5199,3.5169,3.5057,3.4268,3.3574,3.3603,3.2681,3.2207,3.3233,3.3399,3.3403,3.3401,3.3401,3.3401,3.3401,3.3401,3.3401,3.3401,3.3401,3.3401,3.3401,3.3401,3.3401,3.3401,3.3401,3.34,3.3399,3.34,3.3394,3.3405,3.2416,2.6981,1.7,1.6994,1.6998,1.7003,1.7003,1.7003,4.896,5.0859,5.1798,5.1587,4.9082,4.5443,4.0779,0.0,3.1734,2.7016,2.4731,2.3784,2.4476,2.5593,2.6556,2.7035,2.9096,3.0783,3.1257,3.8418,4.4394,4.6528,4.7211,0.0,0.0,0.0,4.6006,4.6725,4.678,4.6465,4.5728,4.5694,4.5694,4.5694,4.5703,4.5704,4.5704,4.5698,4.4748,4.2906,4.1975,4.1761,4.2156,4.1031,4.0501,4.0497,4.0489,4.0512,0.0,4.0499,3.9787,3.8765,3.9512,3.9341,3.8698,3.8708,3.8689,3.8705,3.8699,3.8396,3.7855,3.7138,3.6898,3.6891,3.6898,3.6907,3.6666,3.5518,3.5203,3.5192,3.5204,3.5191,3.5191,3.5191,3.52,3.5207,3.5205,3.4826,3.4626,3.512,3.4236,3.3389,3.3401,3.3405,3.3401,3.3401,3.3401,3.3401,3.3401,3.3401,3.3401,3.3401,3.3401,3.3401,3.3401,3.3401,3.3401,3.3401,3.3401,3.3401,3.3401,3.3401,3.3391,3.3397,3.3405,3.1246,2.6858,2.0229,1.6999,1.6991,1.6991,1.6991,4.8321,4.9423,4.9804,5.1938,4.8516,4.4043,0.0,0.0,3.0285,2.6613,2.4274,2.3255,2.4389,2.5584,2.6404,2.6398,2.8088,2.9969,3.1629,3.544,3.937,4.29,0.0,4.7501,0.0,4.6414,4.6058,4.6906,4.6965,4.659,4.5741,4.5686,4.5694,4.5694,4.5694,4.5694,4.5694,4.5707,4.4519,4.2194,4.2206,4.2203,4.2172,4.1365,4.0819,4.0506,4.0489,4.0512,0.0,4.0503,3.9997,3.9325,4.0174,3.9767,3.8698,3.8708,3.8689,3.8705,3.8706,3.8701,3.8552,3.7704,3.7183,3.6898,3.691,3.6892,3.6732,3.5934,3.5468,3.5192,3.5192,3.5205,3.5191,3.5191,3.5201,3.5104,3.473,3.4663,3.467,3.4667,3.3979,3.3395,3.3403,3.3408,3.3403,3.3395,3.3404,3.3401,3.3401,3.3557,3.3609,3.3427,3.3506,3.3533,3.3401,3.3401,3.3401,3.3401,3.3401,3.3401,3.3401,3.3401,3.3401,3.3401,3.3399,3.3397,3.3367,2.2362,1.7004,1.6991,1.6991,1.6991,4.4086,4.7991,5.1657,4.7921,4.7222,4.7149,0.0,3.5696,2.612,2.4878,2.3699,2.3255,2.4394,2.5597,2.6396,2.6401,2.7422,2.8232,2.8245,2.8311,2.9631,0.0,0.0,4.7506,4.7501,4.6409,4.5707,4.5717,4.5717,0.0,4.57,4.5707,4.5694,4.5694,4.5694,4.5694,4.5694,4.5703,4.4524,4.2206,4.221,4.22,4.2203,4.2187,4.1575,4.0512,4.0512,4.0512,0.0,4.0503,4.0499,4.0476,4.051,3.9767,3.8698,3.8708,3.8689,3.8689,3.8689,3.8704,3.8707,3.8678,3.7875,3.6898,3.691,3.6892,3.6895,3.6895,3.6072,3.5191,3.5205,3.5205,3.5191,3.5191,3.5204,3.4873,3.3681,3.342,3.3421,3.342,3.3402,3.3399,3.3393,3.3394,3.3407,3.3408,3.3399,3.3401,3.3401,3.391,3.4067,3.3453,3.3757,3.3824,3.3428,3.3401,3.3401,3.3401,3.3401,3.3401,3.3401,3.3401,3.3401,3.3401,3.3401,3.3402,3.3367,2.236,1.6993,1.6991,1.6991,1.6991,3.9103,4.2941,4.681,4.7209,4.803,4.653,3.8063,3.1074,2.5837,2.3856,2.3152,2.3246,2.4393,2.5587,2.6677,2.7491,2.7939,2.8193,2.8198,0.0,0.0,3.3277,3.6042,4.04,0.0,0.0,4.6924,4.6927,4.6181,4.57,4.5707,4.5686,4.5694,4.5694,4.5694,4.5703,4.5696,4.5708,4.4528,4.2194,4.2201,4.2204,4.2165,4.1381,4.0834,4.0506,4.0489,4.0512,4.0512,4.0495,4.0495,4.0429,3.9585,3.904,3.8687,3.8699,3.8696,3.8696,3.8696,3.8707,3.8706,3.8709,3.7874,3.6898,3.691,3.6902,3.6904,3.6908,3.664,3.6179,3.5405,3.5205,3.5191,3.5191,3.5201,3.5105,3.4718,3.3977,3.3394,3.3402,3.407,3.437,3.3535,3.4072,3.4633,3.4639,3.3928,3.3542,3.3965,3.3813,3.376,3.3991,3.3751,3.3545,3.3415,3.3401,3.3401,3.3401,3.3614,3.3633,3.3404,3.3391,3.3391,3.3391,3.3394,3.3402,3.3367,2.236,1.7006,1.7004,1.6994,1.7001,3.5432,3.8778,4.2209,4.5891,4.7397,0.0,3.3056,2.7953,2.5311,2.3846,2.3538,2.3756,2.4477,2.5208,2.6119,2.7317,2.9384,3.0675,3.022,0.0,0.0,3.8293,0.0,0.0,0.0,4.7503,4.7492,4.7491,4.6384,4.5689,4.5694,4.5694,4.5694,4.5694,4.5694,4.5697,4.5697,4.5276,4.4102,4.2208,4.2206,4.2204,4.2169,4.102,4.0501,4.0497,4.0489,4.0512,0.0,4.0495,4.0503,4.0383,3.9179,3.8712,3.8699,3.8694,3.842,3.8023,3.8023,3.8317,3.8625,3.8175,3.7513,3.6903,3.691,3.6899,3.6902,3.6908,3.6897,3.6637,3.5498,3.5205,3.5191,3.5191,3.5202,3.5197,3.52,3.4249,3.3524,3.3984,3.4695,3.4959,3.42,3.4703,3.5203,3.5209,3.457,3.4128,3.4284,3.3963,3.3807,3.3941,3.3827,3.3659,3.3431,3.3401,3.341,3.341,3.36,3.3824,3.4068,3.408,3.3861,3.3409,3.3402,3.3405,3.3364,2.2359,1.9133,2.3081,1.8925,1.6994,0.0,3.5183,3.7912,4.3144,4.4451,0.0,3.0471,2.6148,0.0,2.4372,2.4418,2.4491,2.4485,2.4545,2.4977,2.6086,3.0941,3.4213,3.3177,3.3751,0.0,0.0,4.7507,0.0,4.7497,4.7499,4.7454,4.7377,4.6325,4.5689,4.5694,4.5694,4.5694,4.5694,4.5701,4.5712,4.5698,4.4572,4.3397,4.2208,4.2198,4.22,4.2156,4.1015,4.0501,0.0,4.0512,4.0512,4.0502,4.0503,4.0443,4.0265,3.9134,3.8697,3.8705,3.8699,3.794,3.6891,3.6908,3.7686,3.8501,3.7293,3.6908,3.6899,3.6899,3.6899,3.6902,3.6894,3.6829,3.6531,3.5471,3.5205,3.5191,3.5191,3.5191,3.5203,3.5209,3.4319,3.3863,3.4985,3.52,3.52,3.5202,3.5207,3.5196,3.5207,3.52,3.4997,3.4441,3.4356,3.4149,3.3588,3.4031,3.4135,3.3574,3.3453,3.3398,3.3398,3.3443,3.3987,3.5138,3.5203,3.468,3.3552,3.345,3.3398,3.3385,2.3153,2.3413,3.3149,2.2927,1.8173,2.5166,0.0,3.3919,3.2627,3.232,3.1115,0.0,2.4331,2.3042,2.2111,0.0,2.3302,2.3298,2.4014,2.4685,2.4972,2.6958,2.8682,2.9323,0.0,0.0,0.0,0.0,4.7491,4.7505,4.7499,4.7115,4.6181,4.5855,4.5689,4.5694,4.5694,4.5694,4.5694,4.5697,4.5694,4.5705,4.4562,4.338,4.2205,4.2198,4.22,4.2156,4.1015,4.0501,4.0512,4.0512,4.0495,4.0503,4.0496,3.9967,3.909,3.8821,3.8697,3.8708,3.8712,3.7944,3.689,3.6905,3.7702,3.8501,3.7293,3.6896,3.6899,3.6899,3.6904,3.6907,3.6904,3.6272,3.5537,3.5267,3.5205,3.5191,3.5191,3.5191,3.5203,3.5209,3.4976,3.4859,3.5143,3.5198,3.5201,3.5204,3.5202,3.5201,3.5202,3.5201,3.5161,3.5003,3.4991,3.4938,3.4787,3.4892,3.4929,3.4789,3.392,3.3392,3.3392,3.3835,3.4422,3.5178,3.5204,3.5072,3.477,3.3861,3.3395,3.3395,3.0813,3.0863,3.3343,3.0746,2.9558,2.199,2.5254,2.8137,2.624,2.5765,2.5274,2.3421,2.2525,0.0,0.0,0.0,2.2901,2.2901,2.5166,2.6685,2.5594,2.5977,2.7383,0.0,0.0,0.0,4.7372,4.6064,4.5713,0.0,4.7503,4.7007,4.5799,4.5695,4.5699,4.5694,4.5694,4.5695,4.5704,4.5701,4.5459,4.4936,4.3763,4.285,4.2206,4.2202,4.2191,4.2156,4.1022,4.0501,4.0512,4.0512,4.0505,4.0452,3.99,3.9288,3.8691,3.8705,3.8706,3.8708,3.8695,3.7937,3.6899,3.6905,3.7326,3.7765,3.7105,3.6899,3.6901,3.6904,3.6895,3.6788,3.6268,3.6044,3.5859,3.5337,3.5205,3.5191,3.5191,3.5191,3.5203,3.52,3.5202,3.519,3.52,3.5202,3.5191,3.5191,3.5191,3.5204,3.5192,3.5205,3.5205,3.5205,3.5205,3.5191,3.52,3.52,3.5198,3.5194,3.4606,3.4227,3.4237,3.4529,3.4858,3.52,3.52,3.5198,3.5208,3.4551,3.4238,3.4224,3.4233,3.3948,3.3393,3.34,3.3396,2.1101,2.1847,2.28,2.3525,2.3709,2.3248,2.1506,0.0,0.0,0.0,0.0,0.0,0.0,2.644,0.0,2.697,2.7117,0.0,3.309,4.0157,4.5277,4.6306,4.4403,0.0,4.6948,4.723,4.6803,4.5783,4.5699,4.5694,4.5694,4.5694,4.5697,4.5698,4.5534,4.4894,4.3738,4.2706,4.2199,4.2201,4.2199,4.2109,4.1907,4.0939,4.0506,4.0512,4.0512,4.0502,4.0428,3.94,3.8872,3.8698,3.8689,3.8689,3.8705,3.8701,3.8055,3.7138,3.6952,3.6898,3.6898,3.6898,3.6901,3.6902,3.6895,3.6775,3.6437,3.5466,3.5898,3.6423,3.5457,3.5204,3.5191,3.5191,3.5191,3.5191,3.5191,3.5191,3.5191,3.5191,3.5191,3.5191,3.5191,3.5205,3.5192,3.5204,3.5351,3.5458,3.5458,3.5311,3.5192,3.5204,3.5205,3.5205,3.5204,3.5204,3.5203,3.5197,3.5202,3.5191,3.5191,3.5191,3.5202,3.5196,3.5201,3.5209,3.5209,3.5206,3.4668,3.3669,3.3578,3.3482,2.1102,2.1237,2.2339,2.6372,2.7391,2.6289,2.2063,0.0,0.0,0.0,0.0,0.0,0.0,2.511,2.7142,0.0,0.0,3.2919,0.0,0.0,4.1378,4.1557,0.0,4.6503,4.6034,4.5967,4.59,4.5718,4.5699,4.5694,4.5694,4.5694,4.5705,4.5694,4.4758,4.3693,4.2491,4.23,4.2198,4.22,4.22,4.1681,4.0763,4.0587,4.0506,4.0512,4.0512,4.05,4.0485,4.0299,3.9626,3.8708,3.87,3.8689,3.8708,3.8712,3.858,3.8287,3.7247,3.6903,3.6898,3.6904,3.6892,3.6902,3.6897,3.6232,3.5417,3.5242,3.5325,3.5431,3.5258,3.5205,3.5191,3.5191,3.5191,3.5191,3.5191,3.5191,3.5191,3.5191,3.5191,3.5205,3.5205,3.5205,3.5191,3.5199,3.6019,3.6639,3.6635,3.5805,3.5203,3.5191,3.5204,3.5203,3.5191,3.5192,3.5205,3.519,3.5204,3.5191,3.5191,3.5191,3.5204,3.5203,3.5202,3.5202,3.5202,3.5196,3.51,3.4916,3.4401,3.389,2.1099,2.3896,2.735,2.9545,2.7201,2.3963,2.2425,0.0,0.0,0.0,0.0,0.0,0.0,0.0,2.8374,0.0,0.0,3.7644,3.8825,4.1476,4.331,0.0,0.0,4.6308,4.5745,4.5707,4.5691,4.5691,4.5709,4.5694,4.5694,4.5697,4.5698,4.5705,4.3963,4.2761,4.2212,4.1595,4.1597,4.2191,4.1579,4.101,4.0501,4.0497,4.0499,4.0512,4.0502,4.0496,4.0446,3.9799,3.9199,3.8699,3.8697,3.8689,3.862,3.797,3.7728,3.7737,3.7839,3.7454,3.6894,3.6902,3.6696,3.653,3.6801,3.6096,3.5206,3.519,3.5205,3.5205,3.5192,3.5192,3.5191,3.5191,3.5191,3.5191,3.5191,3.5191,3.5191,3.5191,3.5205,3.5205,3.5205,3.5698,3.6114,3.6124,3.6557,3.6897,3.6897,3.5894,3.5437,3.6046,3.5576,3.5456,3.607,3.5551,3.5192,3.5204,3.5191,3.5191,3.5191,3.5191,3.5191,3.5191,3.5191,3.5191,3.5191,3.5202,3.5199,3.5181,3.4916,3.4519,2.1062,2.5062,2.9295,2.9581,2.5553,2.2269,2.514,0.0,0.0,0.0,0.0,0.0,0.0,2.9156,0.0,3.6208,3.9569,4.201,4.2907,4.4567,4.5688,4.5694,4.5694,4.5712,4.5697,4.5707,4.5694,4.5694,4.5695,4.5587,4.5308,4.5023,4.5015,4.5296,4.3284,4.2076,4.1803,4.0941,4.094,4.1793,4.0924,4.0492,4.0502,4.0499,4.0502,4.0495,4.0503,4.0343,4.0022,3.9083,3.8698,3.8705,3.8697,3.8607,3.8361,3.7297,3.6983,3.7227,3.8003,3.7661,3.6869,3.6752,3.6518,3.6339,3.6625,3.6099,3.5387,3.5244,3.5205,3.5192,3.5191,3.5191,3.5191,3.5191,3.5191,3.5191,3.5191,3.5191,3.5191,3.5191,3.5312,3.5445,3.5591,3.6316,3.6897,3.6908,3.6894,3.6908,3.6895,3.6143,3.5929,3.6816,3.5883,3.5547,3.6434,3.5711,3.5192,3.5191,3.5191,3.5191,3.5191,3.5191,3.5191,3.5191,3.5191,3.5191,3.5191,3.5191,3.5202,3.5197,3.5197,3.4996,2.0952,2.1469,2.2125,2.3248,2.3148,0.0,3.2557,3.0942,0.0,0.0,0.0,0.0,0.0,3.4391,4.0064,4.1468,4.3747,4.5347,4.5448,0.0,4.5701,4.5697,4.5695,4.5695,4.5686,4.5694,4.5694,4.5694,4.5705,4.5242,4.4176,4.3069,4.2967,4.4086,4.2877,4.1684,4.0636,4.0546,4.0545,4.0613,4.0543,4.0506,4.0493,4.0512,4.0499,4.0496,4.0499,3.9864,3.8818,3.8737,3.8707,3.87,3.8689,3.8357,3.7793,3.715,3.7253,3.7676,3.7184,3.6974,3.682,3.6325,3.6473,3.6755,3.6299,3.6099,3.5925,3.5351,3.5204,3.5204,3.5204,3.5191,3.5191,3.5191,3.5191,3.5191,3.5191,3.5191,3.5191,3.5191,3.5644,3.6194,3.6693,3.6856,3.6908,3.6902,3.6901,3.6904,3.6895,3.6822,3.681,3.6883,3.5879,3.5231,3.5311,3.5245,3.5204,3.5191,3.5191,3.5191,3.5191,3.5191,3.5191,3.5191,3.5191,3.5191,3.5191,3.5191,3.5204,3.519,3.519,3.5056,2.0687,2.081,2.139,2.2608,0.0,0.0,0.0,0.0,0.0,0.0,0.0,0.0,0.0,0.0,3.7428,4.1519,4.4166,4.5708,4.5693,4.5695,4.5705,4.5701,4.5694,4.5694,4.5694,4.5704,4.5705,4.5705,4.5705,4.5203,4.407,4.3571,4.3184,4.2893,4.2445,4.1986,4.1568,4.085,4.0501,4.0504,4.0504,4.0499,4.0496,4.0101,3.994,3.9912,3.9537,3.911,3.8695,3.8697,3.8708,3.8662,3.829,3.7772,3.7205,3.6973,3.7032,3.7211,3.6973,3.6891,3.6868,3.6659,3.6619,3.6648,3.6611,3.6369,3.6086,3.6032,3.5899,3.5672,3.5311,3.5191,3.5191,3.5191,3.5191,3.5191,3.5191,3.5483,3.575,3.575,3.5939,3.6274,3.6815,3.6908,3.6904,3.6899,3.6899,3.6901,3.6904,3.6902,3.6902,3.6907,3.6213,3.5821,3.5935,3.5725,3.5538,3.5458,3.5284,3.5191,3.5191,3.5191,3.5191,3.5191,3.5191,3.5191,3.5191,3.5191,3.5191,3.5191,3.5191,3.515,2.1283,2.0817,2.1387,0.0,0.0,0.0,0.0,0.0,0.0,0.0,0.0,0.0,0.0,0.0,0.0,0.0,4.3636,4.5297,4.5644,4.5698,4.5701,4.5703,4.5697,4.5703,4.5694,4.5697,4.5549,4.5188,4.5169,4.4816,4.4036,4.3635,4.3217,4.2784,4.2398,4.2032,4.1673,4.106,4.0672,4.0512,4.0512,4.0512,4.0496,4.0069,3.9882,3.9853,3.9445,3.9045,3.8707,3.8697,3.8708,3.8658,3.8257,3.7722,3.7158,3.6968,3.69,3.6898,3.6891,3.6906,3.6901,3.6892,3.677,3.6579,3.6419,3.6367,3.6368,3.6368,3.6194,3.5939,3.5645,3.5538,3.5444,3.5245,3.5338,3.5471,3.5404,3.5765,3.61,3.61,3.6166,3.6336,3.6704,3.6836,3.6899,3.6899,3.6899,3.6899,3.6899,3.6899,3.6899,3.6899,3.6564,3.6363,3.6431,3.6167,3.5886,3.5618,3.5431,3.5284,3.5204,3.5191,3.5191,3.5191,3.5191,3.5191,3.5191,3.5191,3.5191,3.5191,3.5191,3.5191,2.2881,2.1195,2.1383,0.0,0.0,0.0,0.0,0.0,0.0,0.0,0.0,0.0,0.0,0.0,0.0,3.9733,4.2487,4.4391,4.5545,4.5697,4.5686,4.5704,4.5697,4.5689,4.5671,4.5688,4.522,4.4095,4.399,4.399,4.3972,4.2856,4.2744,4.3924,4.2808,4.1642,4.0516,4.1029,4.1031,4.0512,4.0512,4.0512,4.0512,4.05,4.0499,4.0494,4.0488,3.9795,3.8689,3.8689,3.8687,3.868,3.8689,3.833,3.7731,3.7117,3.6899,3.6899,3.6899,3.6899,3.6902,3.6897,3.6909,3.6672,3.5565,3.5993,3.6774,3.6261,3.5952,3.5899,3.6302,3.6248,3.5952,3.5351,3.5671,3.6046,3.5845,3.5953,3.6099,3.6099,3.6326,3.65,3.65,3.6712,3.6899,3.6899,3.6899,3.6899,3.6899,3.6899,3.6899,3.6899,3.6906,3.68,3.6541,3.6436,3.6167,3.5645,3.5605,3.5471,3.5204,3.5191,3.5191,3.5191,3.5191,3.5191,3.5191,3.5191,3.5191,3.5204,3.5191,3.5191,2.2452,2.1777,0.0,0.0,0.0,0.0,0.0,3.3486,0.0,0.0,0.0,0.0,0.0,0.0,0.0,4.0929,4.2996,4.4396,4.5536,4.5015,4.481,4.5597,4.5695,4.5384,4.4575,4.5237,4.5244,4.4103,4.3217,4.2731,4.2728,4.2381,4.1999,4.1543,4.1183,4.0839,4.0501,4.0651,4.0668,4.0512,4.0492,4.0502,4.0512,4.0506,4.0267,3.9837,3.9425,3.9028,3.8689,3.8706,3.8202,3.7489,3.7903,3.7967,3.7731,3.7117,3.6904,3.6907,3.6902,3.6904,3.6907,3.6906,3.665,3.634,3.6382,3.6073,3.5832,3.6477,3.6626,3.6517,3.6258,3.6417,3.6526,3.5965,3.5979,3.6073,3.6019,3.622,3.638,3.638,3.6606,3.678,3.678,3.686,3.6899,3.6899,3.71,3.7249,3.7249,3.7249,3.7155,3.6926,3.7117,3.7117,3.6806,3.6594,3.6394,3.6232,3.6059,3.5725,3.5217,3.5191,3.5191,3.5191,3.5191,3.5191,3.5191,3.5191,3.5297,3.5485,3.5284,3.5311,2.1801,2.1642,0.0,0.0,0.0,0.0,0.0,0.0,0.0,0.0,0.0,4.1105,3.7552,3.7485,0.0,4.1734,4.2816,4.3692,4.4867,4.443,4.4249,4.4935,4.5024,4.4748,4.407,4.4191,4.4013,4.3348,4.2601,4.2209,4.2195,4.177,4.1217,4.0521,4.0492,4.0501,4.0489,4.0493,4.0495,4.0506,4.0496,4.0244,3.9797,4.0271,4.0039,3.9211,3.8869,3.8706,3.8701,3.8701,3.7988,3.6935,3.7298,3.743,3.7403,3.7035,3.6902,3.6838,3.6383,3.6521,3.6907,3.6909,3.6679,3.6396,3.6262,3.5737,3.5336,3.6033,3.6221,3.6258,3.6378,3.6496,3.655,3.6435,3.6421,3.6393,3.6286,3.6473,3.6659,3.6659,3.6792,3.6899,3.6899,3.6899,3.6953,3.7074,3.7368,3.7555,3.7555,3.7462,3.7356,3.7274,3.7221,3.7167,3.71,3.6834,3.662,3.6513,3.6353,3.6046,3.5578,3.5431,3.5311,3.5204,3.5191,3.5191,3.5191,3.5192,3.5285,3.5445,3.551,3.5524,2.1162,0.0,0.0,2.4628,2.968,0.0,0.0,0.0,0.0,0.0,0.0,4.2192,4.2192,4.212,4.2082,4.2181,4.2108,4.2459,4.3586,4.3804,4.3836,4.3843,4.3848,4.3845,4.3838,4.2832,4.2202,4.2208,4.2207,4.2152,4.2047,4.1066,4.0501,4.0492,4.0499,4.0502,4.0499,4.0398,4.0388,4.0494,4.0398,3.9768,3.874,3.9846,3.9741,3.869,3.8591,3.8544,3.8542,3.8537,3.7884,3.6898,3.6896,3.6899,3.6901,3.6899,3.6899,3.675,3.5719,3.5975,3.6755,3.6868,3.6829,3.6558,3.5511,3.5205,3.5212,3.5337,3.5349,3.5585,3.6637,3.654,3.6294,3.6772,3.6904,3.6819,3.6579,3.6726,3.6899,3.6899,3.6899,3.6899,3.6899,3.6899,3.7006,3.7342,3.7581,3.7742,3.7781,3.7583,3.7503,3.7768,3.7288,3.7074,3.737,3.7087,3.6806,3.6553,3.654,3.6434,3.618,3.5805,3.5498,3.5244,3.5257,3.5257,3.5231,3.5272,3.5298,3.5324,3.5804,3.5751,2.161,2.314,0.0,0.0,3.4602,3.9245,4.027,4.0981,4.159,4.2112,4.221,4.2206,4.2203,4.1476,4.1157,4.2061,4.1448,4.1101,4.1775,4.2294,4.2579,4.2589,4.2589,4.2589,4.2579,4.2347,4.2201,4.2195,4.2195,4.1813,4.0909,4.0629,4.0502,4.0499,4.0502,4.0506,4.0499,3.9573,3.9559,4.0494,3.9529,3.8942,3.8712,3.8966,3.8962,3.8651,3.7695,3.7298,3.7291,3.7279,3.7124,3.691,3.6898,3.6904,3.6894,3.6902,3.6904,3.6866,3.6629,3.6116,3.5704,3.6612,3.6288,3.5511,3.5271,3.5205,3.5391,3.6287,3.6531,3.6583,3.6841,3.681,3.6752,3.6861,3.6901,3.6885,3.6819,3.6859,3.6899,3.6899,3.6899,3.6899,3.6899,3.6899,3.7006,3.7342,3.7235,3.726,3.7742,3.7583,3.7503,3.7768,3.7503,3.7329,3.7396,3.7087,3.6873,3.6819,3.6806,3.6782,3.6733,3.6006,3.5578,3.5525,3.5618,3.5618,3.5511,3.5792,3.5991,3.6125,3.5631,3.5591,2.2139,0.0,0.0,3.4737,0.0,4.0491,4.0504,4.0968,4.1382,4.1391,4.1817,4.22,4.221,4.1715,4.1318,4.1385,4.1177,4.1094,4.127,4.1571,4.1679,4.1417,4.1388,4.1388,4.1388,4.1878,4.2211,4.2201,4.1685,4.1137,4.0532,4.0506,4.0495,4.0512,4.05,4.0225,3.9636,3.902,3.9021,3.9624,3.8989,3.8697,3.8704,3.8708,3.8383,3.7795,3.7172,3.6891,3.6891,3.691,3.6904,3.6854,3.6294,3.6419,3.6897,3.6894,3.6907,3.6895,3.6895,3.6515,3.6016,3.6073,3.5684,3.5189,3.5191,3.5203,3.5443,3.6584,3.6897,3.6895,3.6895,3.6892,3.6899,3.6899,3.6899,3.6899,3.6899,3.6899,3.6899,3.6899,3.6899,3.6899,3.6899,3.7034,3.7235,3.7541,3.7583,3.769,3.7996,3.7918,3.7771,3.7621,3.7474,3.7343,3.7167,3.6994,3.6899,3.6899,3.6899,3.6902,3.6892,3.634,3.6019,3.5979,3.5859,3.5859,3.5979,3.6315,3.6544,3.6625,3.6208,3.5899,2.301,0.0,3.3871,3.9179,4.0488,0.0,4.0497,4.0511,4.0501,4.0506,4.1405,4.221,4.2197,4.2046,4.1603,4.0649,4.1005,4.137,4.1269,4.1198,4.0991,4.0552,4.0506,4.0506,4.051,4.1345,4.1907,4.1907,4.104,4.0492,4.0506,4.0489,4.0495,4.0499,4.0499,3.9919,3.8701,3.8698,3.8697,3.8691,3.8492,3.8378,3.8392,3.8395,3.7839,3.6898,3.6903,3.6902,3.6883,3.6692,3.6612,3.6504,3.556,3.5776,3.6612,3.6612,3.6733,3.691,3.6911,3.6762,3.645,3.5511,3.5205,3.5241,3.5431,3.5483,3.5681,3.6626,3.6897,3.6908,3.6908,3.6904,3.6899,3.6899,3.6939,3.698,3.698,3.702,3.7046,3.6994,3.6939,3.6899,3.6899,3.7127,3.7422,3.7688,3.7918,3.8119,3.8281,3.8159,3.7932,3.7597,3.741,3.7221,3.7006,3.6926,3.6899,3.6899,3.6953,3.698,3.698,3.6766,3.6635,3.6571,3.6138,3.6085,3.6423,3.6679,3.6815,3.6802,3.6775,3.6194,2.4783,0.0,3.6905,0.0,4.0488,4.0506,0.0,0.0,4.0495,0.0,4.1415,4.2197,4.2203,4.139,4.0673,4.0525,4.0578,4.0756,4.1085,4.0836,4.0588,4.0514,4.0499,4.0501,4.0497,4.0642,4.0719,4.0719,4.0587,4.0501,4.05,4.0506,4.0506,4.05,4.0493,3.992,3.8702,3.8705,3.8699,3.8691,3.7627,3.7145,3.7144,3.7143,3.706,3.6898,3.6909,3.6897,3.6816,3.5842,3.5428,3.5417,3.5253,3.5294,3.5431,3.5426,3.6045,3.6897,3.6897,3.6248,3.5404,3.5245,3.5205,3.5377,3.6365,3.6678,3.6707,3.6856,3.6907,3.6902,3.6902,3.6901,3.6899,3.6899,3.7128,3.7329,3.7329,3.7529,3.7607,3.7382,3.71,3.6899,3.6899,3.6939,3.7074,3.7396,3.7233,3.7382,3.8199,3.7581,3.7368,3.8105,3.7448,3.7074,3.7301,3.7074,3.6899,3.6899,3.7167,3.7329,3.7329,3.7303,3.7277,3.7278,3.6699,3.6433,3.6501,3.6473,3.6473,3.646,3.6289,3.5845,2.2699,2.9064,3.5669,3.8721,3.9994,4.0502,4.0502,4.0512,4.0493,4.0504,4.0897,4.1255,4.1252,4.0839,4.0501,4.0492,4.0504,4.0567,4.0744,4.0609,4.0512,4.0512,4.0512,4.0493,4.0504,4.018,3.9994,3.9994,4.0001,4.014,4.0476,3.9861,3.9496,3.9482,3.9494,3.9237,3.8716,3.8035,3.7686,3.7683,3.686,3.6599,3.6883,3.6232,3.5947,3.5957,3.5949,3.5939,3.5912,3.5416,3.5204,3.5205,3.5205,3.5205,3.5205,3.5204,3.5523,3.5953,3.5953,3.5618,3.5205,3.5205,3.5205,3.5285,3.5805,3.6396,3.6897,3.6909,3.6892,3.6899,3.6899,3.6899,3.6953,3.7141,3.7324,3.7522,3.7738,3.7807,3.7728,3.7448,3.7127,3.6899,3.6899,3.6899,3.706,3.7541,3.75,3.7621,3.8212,3.7944,3.7702,3.7785,3.7436,3.7155,3.7128,3.698,3.698,3.7182,3.7329,3.7396,3.7396,3.7396,3.7301,3.7128,3.686,3.6712,3.6712,3.6685,3.6606,3.6445,3.6099,3.5792,2.1159,2.7346,3.4048,3.6685,3.8945,4.0507,4.0511,4.0495,4.0505,4.0512,4.0505,4.0502,4.0504,4.0501,4.0504,4.0493,4.0495,4.0502,4.0495,4.037,4.0284,4.0343,4.0299,4.0269,4.0269,3.9922,3.9584,3.94,3.9233,3.9339,3.9789,3.9113,3.8694,3.8695,3.8707,3.8413,3.7813,3.7065,3.6694,3.6696,3.6144,3.6084,3.6437,3.5591,3.5204,3.5202,3.5203,3.5204,3.5205,3.5205,3.5205,3.5191,3.5191,3.5191,3.5204,3.5205,3.5205,3.5205,3.5205,3.5205,3.5205,3.5191,3.5192,3.5205,3.5205,3.5938,3.6788,3.6869,3.6892,3.6899,3.6899,3.6899,3.6952,3.7218,3.7427,3.7692,3.8155,3.8135,3.7925,3.756,3.7182,3.6898,3.6896,3.6898,3.7085,3.764,3.7809,3.8004,3.8359,3.8212,3.7918,3.7543,3.7356,3.7167,3.6912,3.698,3.7127,3.7382,3.7448,3.7503,3.7503,3.745,3.7289,3.7034,3.6939,3.6873,3.6806,3.6726,3.6553,3.6259,3.5844,3.5685,2.219,2.7987,3.3434,3.3631,3.7122,4.05,4.0508,4.049,4.0503,4.0505,4.0492,4.0496,4.0496,4.0496,4.05,4.0502,4.0489,4.0511,4.0499,4.0004,3.9714,3.9904,3.9757,3.9654,3.9654,3.9787,3.958,3.8803,3.8226,3.7907,3.7943,3.8424,3.8704,3.8706,3.8695,3.7627,3.5403,3.5885,3.6143,3.613,3.5529,3.5253,3.5298,3.5231,3.5205,3.5191,3.5199,3.52,3.5191,3.5199,3.52,3.5191,3.5191,3.5191,3.5204,3.5204,3.5204,3.5204,3.5204,3.5204,3.5204,3.5204,3.5204,3.5191,3.5205,3.5765,3.6491,3.6801,3.6892,3.6899,3.6899,3.6899,3.691,3.6926,3.7372,3.7959,3.8538,3.8659,3.8487,3.7881,3.7307,3.691,3.6898,3.6906,3.7041,3.7451,3.7841,3.8236,3.8627,3.7956,3.7529,3.7768,3.7274,3.6927,3.6899,3.7195,3.7382,3.7396,3.7635,3.7782,3.7782,3.7543,3.7396,3.737,3.706,3.6766,3.6526,3.6273,3.5965,3.5645,3.5364,3.5364,2.042,2.359,2.7378,3.0399,3.3567,3.6537,3.8815,3.9933,4.0505,4.0498,4.0511,4.0247,3.9496,3.9982,4.0258,3.9467,3.9982,4.0233,3.9463,3.9164,3.9139,3.9477,3.958,3.9599,3.9599,3.9308,3.9014,3.8731,3.8132,3.7742,3.7615,3.7808,3.8164,3.8682,3.7616,3.6573,3.5585,3.593,3.6045,3.5898,3.5684,3.5458,3.5205,3.5205,3.4979,3.4648,3.5032,3.4763,3.4097,3.4883,3.5199,3.5191,3.5191,3.5191,3.5191,3.5191,3.5191,3.5191,3.5191,3.5191,3.5191,3.5191,3.5191,3.5204,3.5205,3.5765,3.6423,3.6545,3.673,3.6899,3.6899,3.6899,3.691,3.6898,3.7664,3.8444,3.8645,3.8404,3.8067,3.7842,3.7304,3.6901,3.6907,3.722,3.7396,3.7149,3.7568,3.81,3.8636,3.8202,3.7786,3.7626,3.7176,3.698,3.7195,3.7329,3.7571,3.7958,3.8065,3.801,3.7809,3.7702,3.7474,3.7087,3.6967,3.6845,3.6766,3.6486,3.622,3.5925,3.5685,3.5498,1.9874,0.0,0.0,2.6565,2.9614,3.268,3.6629,3.8141,3.894,3.9725,3.9907,3.9646,3.8858,3.9355,3.9622,3.8832,3.9372,3.9622,3.8806,3.8353,3.8267,3.8746,3.91,3.922,3.9012,3.8636,3.8357,3.8276,3.7702,3.7312,3.7173,3.7145,3.734,3.7813,3.6512,3.5799,3.5809,3.5804,3.5725,3.5604,3.5471,3.527,3.5002,3.5002,3.4738,3.4317,3.4502,3.4145,3.3497,3.4706,3.5205,3.5202,3.5202,3.5203,3.5191,3.5191,3.5191,3.5191,3.5191,3.5191,3.5191,3.5191,3.5191,3.5191,3.5191,3.5711,3.6302,3.6302,3.6582,3.6899,3.6899,3.691,3.6948,3.7147,3.7648,3.8148,3.8345,3.7918,3.7613,3.8023,3.7788,3.7505,3.7499,3.7837,3.7969,3.756,3.7861,3.8243,3.8662,3.8475,3.8113,3.7654,3.7173,3.6988,3.7201,3.7351,3.763,3.8096,3.8327,3.832,3.8104,3.7719,3.7314,3.6913,3.6899,3.6899,3.6899,3.6717,3.6341,3.5791,3.5672,3.5458,0.0,0.0,0.0,2.2229,2.5601,2.951,3.3896,3.5012,3.58,3.8112,3.8651,3.8693,3.8642,3.8662,3.8642,3.8601,3.8627,3.8651,3.8652,3.7645,3.7106,3.7698,3.8305,3.8443,3.7851,3.7782,3.7661,3.7396,3.682,3.6486,3.6486,3.6418,3.6295,3.6078,3.5522,3.539,3.5776,3.5378,3.5177,3.5177,3.4844,3.4642,3.458,3.458,3.4464,3.427,3.3669,3.3388,3.3496,3.4668,3.5157,3.5141,3.5181,3.5199,3.5204,3.5204,3.5191,3.5191,3.5191,3.5191,3.5191,3.5191,3.5191,3.5191,3.5204,3.5631,3.6099,3.6113,3.6486,3.6899,3.6899,3.6891,3.7048,3.7633,3.7329,3.7055,3.7644,3.7315,3.724,3.8426,3.8651,3.8691,3.8697,3.8709,3.8701,3.8708,3.8706,3.8699,3.8705,3.8694,3.8483,3.7891,3.7275,3.6908,3.6893,3.727,3.7589,3.781,3.8392,3.8682,3.8668,3.7539,3.6913,3.6899,3.6899,3.6899,3.6899,3.691,3.6316,3.5231,3.5218,3.5219,1.9776,0.0,0.0,0.0,0.0,0.0,2.8214,3.0833,3.4331,3.5851,3.7522,3.8427,3.7561,3.7403,3.7134,3.6293,3.6859,3.7396,3.7393,3.71,3.6948,3.7124,3.7672,3.7931,3.7599,3.7308,3.704,3.6781,3.6407,3.6206,3.6206,3.6071,3.5897,3.5738,3.5391,3.5258,3.5365,3.4965,3.4805,3.4909,3.442,3.426,3.4387,3.4232,3.4099,3.3989,3.3576,3.3407,3.3426,3.3764,3.3903,3.3977,3.4865,3.5196,3.5198,3.519,3.5191,3.5191,3.5191,3.5191,3.5191,3.5191,3.5191,3.5257,3.5551,3.5845,3.6139,3.6326,3.65,3.6661,3.6853,3.691,3.6952,3.7114,3.703,3.6943,3.71,3.703,3.7,3.7326,3.7758,3.8192,3.8627,3.8701,3.8702,3.8705,3.8708,3.8696,3.8689,3.8694,3.8636,3.8469,3.7512,3.6898,3.6909,3.7398,3.7924,3.8413,3.8617,3.8503,3.8076,3.7601,3.7196,3.6913,3.6899,3.6899,3.6899,3.6908,3.6543,3.5839,3.5404,3.5631,0.0,0.0,0.0,0.0,0.0,0.0,2.382,2.7331,3.1003,3.0229,3.3902,3.7019,3.6316,3.6585,3.6542,3.5396,3.5755,3.6351,3.6829,3.6493,3.6362,3.6839,3.7205,3.7286,3.6947,3.6909,3.6707,3.6247,3.5912,3.5725,3.5725,3.5511,3.5351,3.5271,3.4979,3.482,3.4817,3.4591,3.4458,3.4415,3.4099,3.3953,3.3909,3.3794,3.374,3.3682,3.3478,3.3397,3.3402,3.3399,3.3396,3.3468,3.4171,3.4747,3.5195,3.5202,3.5191,3.5191,3.5191,3.5191,3.5191,3.5191,3.5191,3.5244,3.5471,3.5859,3.6261,3.6408,3.6554,3.6688,3.6717,3.682,3.6891,3.6898,3.6903,3.6893,3.6902,3.6903,3.6902,3.6897,3.7391,3.7992,3.8601,3.8694,3.8689,3.8689,3.8689,3.8689,3.8689,3.8699,3.8696,3.8691,3.8075,3.7457,3.6946,3.7532,3.8048,3.8316,3.8325,3.8056,3.744,3.7546,3.7388,3.6913,3.6896,3.6896,3.6899,3.6907,3.6746,3.6408,3.559,3.5564,0.0,0.0,0.0,0.0,0.0,0.0,2.0871,2.4672,2.709,2.3941,2.9335,3.4654,3.4791,3.5739,3.6181,3.5167,3.5107,3.5548,3.6571,3.5844,3.5587,3.6585,3.6707,3.6518,3.6046,3.6302,3.6288,3.5765,3.5404,3.5177,3.5137,3.491,3.4776,3.4749,3.4456,3.4296,3.4296,3.4269,3.4148,3.3894,3.3867,3.3681,3.3401,3.3401,3.3401,3.3401,3.3401,3.3401,3.3401,3.3401,3.3397,3.3409,3.3404,3.4145,3.5207,3.5201,3.5204,3.5191,3.5191,3.5191,3.5191,3.5191,3.5191,3.5204,3.5284,3.5738,3.6289,3.6423,3.6637,3.6792,3.6566,3.6699,3.6899,3.6899,3.6899,3.6913,3.6953,3.6926,3.691,3.6954,3.74,3.7949,3.8497,3.8672,3.8689,3.8689,3.8689,3.8689,3.8689,3.8689,3.8696,3.8701,3.8702,3.8266,3.7183,3.7622,3.7916,3.7805,3.7738,3.7454,3.6922,3.7425,3.7444,3.6913,3.6903,3.6889,3.6859,3.688,3.6869,3.6789,3.5832,3.5322,0.0,0.0,0.0,0.0,0.0,0.0,2.1051,2.4028,2.6549,2.586,2.8494,3.123,3.2198,3.3309,3.401,3.3786,3.4578,3.5289,3.55,3.5338,3.5281,3.5511,3.5538,3.5485,3.539,3.4583,3.4425,3.5252,3.5242,3.5057,3.4726,3.4777,3.4682,3.4416,3.4336,3.4296,3.4296,3.4095,3.3948,3.3894,3.3627,3.3455,3.3401,3.3401,3.3401,3.3401,3.3401,3.3401,3.3401,3.3401,3.3403,3.3395,3.3408,3.4136,3.5208,3.5194,3.52,3.5191,3.5191,3.5191,3.5191,3.5191,3.5191,3.5284,3.5777,3.5685,3.5631,3.6545,3.6666,3.6498,3.65,3.6699,3.6899,3.6899,3.6899,3.6966,3.7235,3.7087,3.6994,3.7329,3.7483,3.765,3.7931,3.8377,3.8689,3.8689,3.8689,3.8689,3.8689,3.8689,3.8705,3.8708,3.8696,3.8596,3.8372,3.7602,3.733,3.7772,3.7349,3.703,3.6908,3.7002,3.7021,3.6899,3.691,3.6792,3.658,3.6795,3.6672,3.627,3.6475,3.6081,0.0,0.0,0.0,2.5389,0.0,0.0,0.0,2.4597,2.4082,2.5262,2.692,2.8524,2.9731,3.0427,3.0987,3.1555,3.1182,3.1622,3.396,3.4297,3.4531,3.513,3.5198,3.5211,3.52,3.411,3.3889,3.5108,3.5191,3.5022,3.4627,3.448,3.432,3.4108,3.3935,3.3855,3.3855,3.3721,3.3654,3.3654,3.3481,3.3401,3.3401,3.3401,3.3401,3.3401,3.3401,3.3401,3.3401,3.3401,3.3401,3.3416,3.3615,3.3941,3.4381,3.4985,3.52,3.52,3.5203,3.5191,3.5191,3.5191,3.5191,3.5257,3.5563,3.5445,3.5364,3.6127,3.6504,3.6596,3.6353,3.6606,3.6899,3.6899,3.6899,3.6953,3.7114,3.7255,3.7311,3.7232,3.7203,3.723,3.7319,3.8095,3.8689,3.8689,3.8689,3.8689,3.8689,3.8689,3.8689,3.8689,3.8689,3.8622,3.8432,3.7901,3.7591,3.7596,3.7319,3.7065,3.6905,3.7071,3.7141,3.7141,3.686,3.6633,3.65,3.6595,3.6595,3.65,3.6504,3.6328,0.0,0.0,0.0,0.0,0.0,2.3465,0.0,0.0,0.0,2.354,2.5432,2.6761,2.681,2.6825,2.7285,2.8666,2.7854,2.8482,3.2511,3.2681,3.3014,3.4654,3.4852,3.485,3.4855,3.3968,3.3797,3.4787,3.4841,3.471,3.4383,3.4168,3.3982,3.3814,3.3535,3.3401,3.3401,3.3401,3.3401,3.3401,3.3401,3.3401,3.3401,3.3401,3.3401,3.3401,3.3401,3.3401,3.3401,3.3401,3.3401,3.3429,3.3757,3.3734,3.3642,3.4697,3.5081,3.5104,3.5163,3.5191,3.5191,3.5191,3.5191,3.5191,3.5191,3.5192,3.5285,3.5725,3.6194,3.6516,3.6314,3.6581,3.6899,3.6899,3.6899,3.6899,3.691,3.7283,3.7557,3.731,3.7057,3.6975,3.7214,3.8057,3.8689,3.8689,3.8689,3.8689,3.8689,3.8689,3.8689,3.8689,3.8689,3.8567,3.8229,3.8304,3.8121,3.7517,3.7366,3.7179,3.6913,3.7155,3.7301,3.7301,3.6834,3.6526,3.6418,3.6408,3.6544,3.6788,3.6423,3.6491,0.0,0.0,0.0,0.0,2.6202,0.0,0.0,0.0,2.1188,2.1437,0.0,2.6748,2.2663,0.0,0.0,2.4838,2.7618,3.0061,3.1673,3.0098,2.9991,3.3227,3.3592,3.3594,3.3601,3.3481,3.3466,3.3585,3.3599,3.3581,3.3537,3.401,3.4016,3.3467,3.3415,3.3401,3.3401,3.3401,3.3401,3.3401,3.3401,3.3401,3.3401,3.3401,3.3401,3.3401,3.3401,3.3401,3.3401,3.3401,3.3401,3.3401,3.3443,3.3655,3.3986,3.4489,3.4667,3.4712,3.5084,3.5191,3.5191,3.5191,3.5191,3.5191,3.5191,3.5204,3.5311,3.5911,3.5751,3.5611,3.657,3.6851,3.6899,3.6899,3.6899,3.691,3.69,3.6952,3.731,3.8306,3.7629,3.7245,3.8309,3.8604,3.8689,3.8689,3.8689,3.8689,3.8689,3.8689,3.8689,3.8689,3.8689,3.8674,3.8634,3.864,3.84,3.7797,3.725,3.693,3.6899,3.6939,3.6967,3.6967,3.6899,3.6616,3.6145,3.631,3.6421,3.6464,3.6707,3.6842,0.0,0.0,0.0,0.0,0.0,0.0,2.1563,0.0,2.1104,0.0,0.0,0.0,0.0,0.0,0.0,0.0,2.3267,2.4943,2.8168,2.8375,2.8981,3.1122,3.1368,3.1909,3.3274,3.3394,3.2266,2.953,3.1857,3.3408,3.3396,3.3637,3.3664,3.3414,3.3401,3.3401,3.3401,3.3401,3.3401,3.3401,3.3401,3.3401,3.3401,3.3401,3.3401,3.3401,3.3401,3.3401,3.3401,3.3401,3.3401,3.3401,3.3401,3.3506,3.3745,3.4452,3.4481,3.4284,3.4964,3.5097,3.499,3.515,3.5191,3.5191,3.5191,3.5191,3.5257,3.551,3.5658,3.5829,3.6314,3.6676,3.6899,3.6899,3.6899,3.6898,3.6894,3.7178,3.7687,3.8536,3.8296,3.8108,3.8606,3.8704,3.8689,3.8689,3.8689,3.8689,3.8689,3.8689,3.8689,3.8689,3.8689,3.8689,3.8689,3.839,3.8069,3.7823,3.7417,3.711,3.6913,3.7088,3.71,3.6899,3.674,3.6552,3.6336,3.638,3.6409,3.6396,3.6298,3.6486,2.8205,0.0,0.0,0.0,0.0,0.0,0.0,0.0,0.0,0.0,0.0,0.0,0.0,0.0,0.0,0.0,0.0,2.1053,2.4474,2.57,2.6811,2.826,2.8446,2.9502,3.2188,3.2432,3.0762,2.6701,2.9868,3.2262,3.29,3.3233,3.3397,3.3406,3.3399,3.3401,3.3401,3.3401,3.3401,3.3401,3.3401,3.3401,3.3401,3.3401,3.3401,3.3401,3.3401,3.3401,3.3401,3.3401,3.3401,3.3401,3.3401,3.3401,3.3495,3.4281,3.4281,3.4014,3.4816,3.5003,3.495,3.5137,3.5191,3.5191,3.5191,3.5191,3.5191,3.5191,3.5511,3.5939,3.6248,3.661,3.6902,3.6901,3.6899,3.6899,3.6899,3.7237,3.773,3.833,3.8458,3.8469,3.8534,3.8618,3.8689,3.8689,3.8689,3.8689,3.8689,3.8689,3.8689,3.8689,3.8689,3.8689,3.8689,3.8288,3.798,3.7817,3.7455,3.722,3.7157,3.7209,3.7141,3.6899,3.6713,3.662,3.662,3.657,3.649,3.6396,3.604,3.6241,0.0,0.0,0.0,2.6635,0.0,0.0,0.0,0.0,2.1109,0.0,0.0,0.0,0.0,0.0,0.0,0.0,0.0,0.0,0.0,2.1301,2.2181,2.4503,2.4771,2.6153,2.966,3.0007,2.9015,2.6582,2.7624,2.9368,3.1641,3.2799,3.3396,3.3396,3.3405,3.3401,3.3401,3.3401,3.3401,3.3401,3.3401,3.3401,3.3401,3.3401,3.3401,3.3401,3.3401,3.3401,3.3401,3.3401,3.3401,3.3401,3.3401,3.3401,3.3441,3.38,3.3921,3.3988,3.4602,3.4976,3.5191,3.5204,3.5191,3.5191,3.5191,3.5191,3.5191,3.5191,3.5205,3.5484,3.6599,3.6897,3.6908,3.6902,3.6899,3.6899,3.6899,3.6919,3.7104,3.7716,3.7831,3.7888,3.8082,3.8446,3.8689,3.8689,3.8689,3.8689,3.8689,3.8689,3.8689,3.8689,3.8689,3.8689,3.8689,3.8674,3.8413,3.7852,3.724,3.7173,3.7744,3.7212,3.6913,3.6899,3.6899,3.6899,3.6899,3.6887,3.6712,3.6404,3.62,3.6377,0.0,0.0,2.8095,2.769,0.0,0.0,0.0,0.0,0.0,0.0,0.0,0.0,0.0,0.0,0.0,0.0,0.0,0.0,0.0,2.0454,2.055,2.2099,2.5062,2.7447,2.8662,2.8764,2.8116,2.6529,2.753,2.82,2.8191,3.0791,3.2618,3.3379,3.3401,3.3402,3.3401,3.3401,3.3401,3.3401,3.3401,3.3401,3.3401,3.3401,3.3401,3.3401,3.3401,3.3401,3.3401,3.3401,3.3401,3.3401,3.3401,3.3401,3.3441,3.3787,3.376,3.3654,3.4255,3.4669,3.4963,3.5137,3.5191,3.5191,3.5191,3.5191,3.5191,3.5191,3.5391,3.5723,3.6248,3.6637,3.6902,3.6901,3.6899,3.6899,3.6899,3.7071,3.7284,3.7507,3.7679,3.7821,3.7899,3.8006,3.8183,3.8397,3.8599,3.8636,3.8466,3.8599,3.8689,3.8689,3.8689,3.8689,3.8689,3.8544,3.8261,3.7841,3.76,3.7498,3.7521,3.7518,3.7314,3.6913,3.7128,3.7128,3.6899,3.6899,3.6845,3.6739,3.6656,3.6632,2.803,2.8502,0.0,2.8797,2.9644,0.0,2.3505,0.0,0.0,0.0,0.0,0.0,0.0,0.0,0.0,0.0,0.0,0.0,0.0,2.0472,2.0279,2.1005,2.4534,2.7262,2.8118,2.6674,2.535,2.4572,2.6797,2.7863,2.7085,2.9207,3.1369,3.3342,3.3411,3.3395,3.3401,3.3401,3.3401,3.3401,3.3401,3.3401,3.3401,3.3401,3.3401,3.3401,3.3401,3.3401,3.3401,3.3401,3.3401,3.3401,3.3401,3.3401,3.3428,3.3641,3.3654,3.3628,3.4016,3.4442,3.4816,3.4964,3.5097,3.5191,3.5191,3.5191,3.5244,3.5458,3.5631,3.5831,3.6272,3.6566,3.678,3.6873,3.6899,3.6899,3.6899,3.7074,3.7221,3.7221,3.7368,3.7529,3.7635,3.7742,3.7915,3.8252,3.8451,3.8518,3.8451,3.8582,3.8689,3.8689,3.8689,3.8689,3.8689,3.8544,3.8345,3.8129,3.8036,3.7904,3.773,3.769,3.7581,3.7394,3.7289,3.7221,3.722,3.7006,3.6899,3.6899,3.6806,3.6727]}]]